[[{"header":{"parameterUnit":"m.s-1","parameterCategory":1,"la1":31.0,"la2":29.5877,"lo1":-88.7671,"lo2":-86.6584,"dy":0.0162,"dx":0.0185,"nx":115,"ny":88,"refTime":"2023-08-11T06:00:00:Z","depth":0,"parameterNumber":2,"parameterNumberName":"U-component_of_WINDS"},"data":[0.0,0.0,0.0,0.0,0.0,0.0,0.0,0.0,0.0,0.0,0.0,0.0,0.0,0.0,0.0,0.0,0.0,0.0,0.0,0.0,0.0,0.0,0.0,0.0,0.0,0.0,0.0,0.0,0.0,0.0,0.0,0.0,0.0,0.0,0.0,0.0,0.0,0.0,0.0,0.0,0.0,0.0,0.0,0.0,0.0,0.0,0.0,0.0,0.0,0.0,0.0,0.0,0.0,0.0,0.0,0.0,0.0,0.0,0.0,0.0,0.0,0.0,0.0,0.0,0.0,0.0,0.0,0.0,0.0,0.0,0.0,0.0,0.0,0.0,0.0,0.0,0.0,0.0,0.0,0.0,0.0,0.0,0.0,0.0,0.0,0.0,0.0,0.0,0.0,0.0,0.0,0.0,0.0,0.0,0.0,0.0,0.0,0.0,0.0,0.0,0.0,0.0,0.0,0.0,0.0,0.0,0.0,0.0,0.0,0.0,0.0,0.0,0.0,0.0,0.0,0.0,0.0,0.0,0.0,0.0,0.0,0.0,0.0,0.0,0.0,0.0,0.0,0.0,0.0,0.0,0.0,0.0,0.0,0.0,0.0,0.0,0.0,0.0,0.0,0.0,0.0,0.0,0.0,0.0,0.0,0.0,0.0,0.0,0.0,0.0,0.0,0.0,0.0,0.0,0.0,0.0,0.0,0.0,0.0,0.0,0.0,0.0,0.0,0.0,0.0,0.0,0.0,0.0,0.0,0.0,0.0,0.0,0.0,0.0,0.0,0.0,0.0,0.0,0.0,0.0,0.0,0.0,0.0,0.0,0.0,0.0,0.0,0.0,0.0,0.0,0.0,0.0,0.0,0.0,0.0,0.0,0.0,0.0,0.0,0.0,0.0,0.0,0.0,0.0,0.0,0.0,0.0,0.0,0.0,0.0,0.0,0.0,0.0,0.0,0.0,0.0,0.0,0.0,0.0,0.0,0.0,0.0,0.0,0.0,0.0,0.0,0.0,0.0,0.0,0.0,0.0,0.0,0.0,0.0,0.0,0.0,0.0,0.0,0.0,0.0,0.0,0.0,0.0,0.0,0.0,0.0,0.0,0.0,0.0,0.0,0.0,0.0,0.0,0.0,0.0,0.0,0.0,0.0,0.0,0.0,0.0,0.0,0.0,0.0,0.0,0.0,0.0,0.0,0.0,0.0,0.0,0.0,0.0,0.0,0.0,0.0,0.0,0.0,0.0,0.0,0.0,0.0,0.0,0.0,0.0,0.0,0.0,0.0,0.0,0.0,0.0,0.0,0.0,0.0,0.0,0.0,0.0,0.0,0.0,0.0,0.0,0.0,0.0,0.0,0.0,0.0,0.0,0.0,0.0,0.0,0.0,0.0,0.0,0.0,0.0,0.0,0.0,0.0,0.0,0.0,0.0,0.0,0.0,0.0,0.0,0.0,0.0,0.0,0.0,0.0,0.0,0.0,0.0,0.0,0.0,0.0,0.0,0.0,0.0,0.0,0.0,0.0,0.0,0.0,0.0,0.0,0.0,0.0,0.0,0.0,0.0,0.0,0.0,0.0,0.0,0.0,0.0,0.0,0.0,0.0,0.0,0.0,0.0,0.0,0.0,0.0,0.0,0.0,0.0,0.0,0.0,0.0,0.0,0.0,0.0,0.0,0.0,0.0,0.0,0.0,0.0,0.0,0.0,0.0,0.0,0.0,0.0,0.0,0.0,0.0,0.0,0.0,0.0,0.0,0.0,0.0,0.0,0.0,0.0,0.0,0.0,0.0,0.0,0.0,0.0,0.0,0.0,0.0,0.0,0.0,0.0,0.0,0.0,0.0,0.0,0.0,0.0,0.0,0.0,0.0,0.0,0.0,0.0,0.0,0.0,0.0,0.0,0.0,0.0,0.0,0.0,0.0,0.0,0.0,0.0,0.0,0.0,0.0,0.0,0.0,0.0,0.0,0.0,0.0,0.0,0.0,0.0,0.0,0.0,0.0,0.0,0.0,0.0,0.0,0.0,0.0,0.0,0.0,0.0,0.0,0.0,0.0,0.0,0.0,0.0,0.0,0.0,0.0,0.0,0.0,0.0,0.0,0.0,0.0,0.0,0.0,0.0,0.0,0.0,0.0,0.0,0.0,0.0,0.0,0.0,0.0,0.0,0.0,0.0,0.0,0.0,0.0,0.0,0.0,0.0,0.0,0.0,0.0,0.0,0.0,0.0,0.0,0.0,0.0,0.0,0.0,0.0,0.0,0.0,0.0,0.0,0.0,0.0,0.0,0.0,0.0,0.0,0.0,0.0,0.0,0.0,0.0,0.0,0.0,0.0,0.0,0.0,0.0,0.0,0.0,0.0,0.0,0.0,0.0,0.0,0.0,0.0,0.0,0.0,0.0,0.0,0.0,0.0,0.0,0.0,0.0,0.0,0.0,0.0,0.0,0.0,0.0,0.0,0.0,0.0,0.0,0.0,0.0,0.0,0.0,0.0,0.0,0.0,0.0,0.0,0.0,0.0,0.0,0.0,0.0,0.0,0.0,0.0,0.0,0.0,0.0,0.0,0.0,0.0,0.0,0.0,0.0,0.0,0.0,0.0,0.0,0.0,0.0,0.0,0.0,0.0,0.0,0.0,0.0,0.0,0.0,0.0,0.0,0.0,0.0,0.0,0.0,0.0,0.0,0.0,0.0,0.0,0.0,0.0,0.0,0.0,0.0,0.0,0.0,0.0,0.0,0.0,0.0,0.0,0.0,0.0,0.0,0.0,0.0,0.0,0.0,0.0,0.0,0.0,0.0,0.0,0.0,0.0,0.0,0.0,0.0,0.0,0.0,0.0,0.0,0.0,0.0,0.0,0.0,0.0,0.0,0.0,0.0,0.0,0.0,0.0,0.0,0.0,0.0,0.0,0.0,0.0,0.0,0.0,0.0,0.0,0.0,0.0,0.0,0.0,0.0,0.0,0.0,0.0,0.0,0.0,0.0,0.0,0.0,0.0,0.0,0.0,0.0,0.0,0.0,0.0,0.0,0.0,0.0,0.0,0.0,0.0,0.0,0.0,0.0,0.0,0.0,0.0,0.0,0.0,0.0,0.0,0.0,0.0,0.0,0.0,0.0,0.0,0.0,0.0,0.0,0.0,0.0,0.0,0.0,0.0,0.0,0.0,0.0,0.0,0.0,0.0,0.0,0.0,0.0,0.0,0.0,0.0,0.0,0.0,0.0,0.0,0.0,0.0,0.0,0.0,0.0,0.0,0.0,0.0,0.0,0.0,0.0,0.0,0.0,0.0,0.0,0.0,0.0,0.0,0.0,0.0,0.0,0.0,0.0,0.0,0.0,0.0,0.0,0.0,0.0,0.0,0.0,0.0,0.0,0.0,0.0,0.0,0.0,0.0,0.0,0.0,0.0,0.0,0.0,0.0,0.0,0.0,0.0,0.0,0.0,0.0,0.0,0.0,0.0,0.0,0.0,0.0,0.0,0.0,0.0,0.0,0.0,0.0,0.0,0.0,0.0,0.0,0.0,0.0,0.0,0.0,0.0,0.0,0.0,0.0,0.0,0.0,0.0,0.0,0.0,0.0,0.0,0.0,0.0,0.0,0.0,0.0,0.0,0.0,0.0,0.0,0.0,0.0,0.0,0.0,0.0,0.0,0.0,0.0,0.0,0.0,0.0,0.0,0.0,0.0,0.0,0.0,0.0,0.0,0.0,0.0,0.0,0.0,0.0,0.0,0.0,0.0,0.0,0.0,0.0,0.0,0.0,0.0,0.0,0.0,0.0,0.0,0.0,0.0,0.0,0.0,0.0,0.0,0.0,0.0,0.0,0.0,0.0,0.0,0.0,0.0,0.0,0.0,0.0,0.0,0.0,0.0,0.0,0.0,0.0,0.0,0.0,0.0,0.0,0.0,0.0,0.0,0.0,0.0,0.0,0.0,0.0,0.0,0.0,0.0,0.0,0.0,0.0,0.0,0.0,0.0,0.0,0.0,0.0,0.0,0.0,0.0,0.0,0.0,0.0,0.0,0.0,0.0,0.0,0.0,0.0,0.0,0.0,0.0,0.0,0.0,0.0,0.0,0.0,0.0,0.0,0.0,0.0,0.0,0.0,0.0,0.0,0.0,0.0,0.0,0.0,0.0,0.0,0.0,0.0,0.0,0.0,0.0,0.0,0.0,0.0,0.0,0.0,0.0,0.0,0.0,0.0,0.0,0.0,0.0,0.0,0.0,0.0,0.0,0.0,0.0,0.0,0.0,0.0,0.0,0.0,0.0,0.0,0.0,0.0,-2.3795,0.0,0.0,0.0,0.0,0.0,0.0,0.0,0.0,0.0,0.0,0.0,0.0,0.0,0.0,0.0,0.0,0.0,0.0,0.0,0.0,0.0,0.0,0.0,0.0,0.0,0.0,0.0,0.0,0.0,0.0,0.0,0.0,0.0,0.0,0.0,0.0,0.0,0.0,0.0,0.0,0.0,0.0,0.0,0.0,0.0,0.0,0.0,0.0,0.0,0.0,0.0,0.0,0.0,0.0,0.0,0.0,0.0,0.0,0.0,0.0,0.0,0.0,0.0,0.0,0.0,0.0,0.0,0.0,0.0,0.0,0.0,0.0,0.0,0.0,0.0,0.0,0.0,0.0,0.0,0.0,0.0,0.0,0.0,0.0,0.0,0.0,0.0,0.0,0.0,0.0,0.0,0.0,0.0,0.0,0.0,0.0,0.0,0.0,0.0,0.0,0.0,0.0,0.0,0.0,0.0,0.0,0.0,0.0,0.0,0.0,-2.4976,-2.4558,-2.4404,-2.4136,-2.3656,0.0,0.0,0.0,0.0,0.0,0.0,0.0,0.0,0.0,0.0,0.0,0.0,0.0,0.0,0.0,0.0,0.0,0.0,0.0,0.0,0.0,0.0,0.0,0.0,0.0,0.0,0.0,0.0,0.0,0.0,0.0,0.0,0.0,0.0,0.0,0.0,0.0,0.0,0.0,0.0,0.0,0.0,0.0,0.0,0.0,0.0,0.0,0.0,0.0,0.0,0.0,0.0,0.0,0.0,0.0,0.0,0.0,0.0,0.0,0.0,0.0,0.0,0.0,0.0,0.0,0.0,0.0,0.0,0.0,0.0,0.0,0.0,0.0,0.0,0.0,0.0,0.0,0.0,0.0,0.0,0.0,0.0,0.0,0.0,0.0,0.0,0.0,0.0,0.0,0.0,0.0,0.0,0.0,0.0,0.0,0.0,0.0,0.0,0.0,0.0,0.0,0.0,0.0,0.0,0.0,0.0,0.0,0.0,0.0,0.0,0.0,0.0,-2.5098,-2.4622,-2.3773,0.0,0.0,0.0,0.0,0.0,0.0,0.0,0.0,0.0,0.0,0.0,0.0,0.0,0.0,0.0,0.0,0.0,0.0,0.0,0.0,0.0,0.0,0.0,0.0,0.0,0.0,0.0,0.0,0.0,0.0,0.0,0.0,0.0,0.0,0.0,0.0,0.0,0.0,0.0,0.0,0.0,0.0,0.0,0.0,0.0,0.0,0.0,0.0,0.0,0.0,0.0,0.0,0.0,0.0,0.0,0.0,0.0,0.0,0.0,0.0,0.0,0.0,0.0,0.0,0.0,0.0,0.0,0.0,0.0,0.0,0.0,0.0,0.0,0.0,0.0,0.0,0.0,0.0,0.0,0.0,0.0,0.0,0.0,0.0,0.0,0.0,0.0,0.0,0.0,0.0,0.0,0.0,0.0,0.0,0.0,0.0,0.0,0.0,0.0,0.0,0.0,0.0,0.0,0.0,0.0,0.0,0.0,0.0,0.0,0.0,-2.5943,-2.5822,-2.5743,0.0,-2.4447,0.0,0.0,0.0,0.0,0.0,0.0,0.0,0.0,0.0,0.0,0.0,0.0,0.0,0.0,0.0,0.0,0.0,0.0,0.0,0.0,0.0,0.0,0.0,0.0,0.0,0.0,0.0,0.0,0.0,0.0,0.0,0.0,0.0,0.0,0.0,0.0,0.0,0.0,0.0,0.0,0.0,0.0,0.0,0.0,0.0,0.0,0.0,0.0,0.0,0.0,0.0,0.0,0.0,0.0,0.0,0.0,0.0,0.0,0.0,0.0,0.0,0.0,0.0,0.0,0.0,0.0,0.0,0.0,0.0,0.0,0.0,0.0,0.0,0.0,0.0,0.0,0.0,0.0,0.0,0.0,0.0,0.0,0.0,0.0,0.0,0.0,0.0,0.0,0.0,0.0,0.0,0.0,0.0,0.0,0.0,0.0,0.0,0.0,0.0,0.0,0.0,0.0,0.0,0.0,0.0,0.0,0.0,0.0,0.0,0.0,-2.7048,-2.6571,-2.5948,-2.526,0.0,0.0,0.0,0.0,0.0,0.0,0.0,0.0,0.0,0.0,0.0,0.0,0.0,0.0,0.0,0.0,0.0,0.0,0.0,0.0,0.0,0.0,0.0,0.0,0.0,0.0,0.0,0.0,0.0,0.0,0.0,0.0,0.0,0.0,0.0,0.0,0.0,0.0,0.0,0.0,0.0,0.0,0.0,0.0,0.0,0.0,0.0,0.0,0.0,0.0,0.0,0.0,0.0,0.0,0.0,0.0,0.0,0.0,0.0,0.0,0.0,0.0,0.0,0.0,0.0,0.0,0.0,0.0,0.0,0.0,0.0,0.0,0.0,0.0,0.0,0.0,0.0,0.0,0.0,0.0,0.0,0.0,0.0,0.0,0.0,0.0,0.0,0.0,0.0,0.0,0.0,0.0,0.0,0.0,0.0,0.0,0.0,0.0,0.0,0.0,0.0,0.0,0.0,0.0,0.0,0.0,0.0,0.0,0.0,0.0,-2.7951,-2.7869,-2.7259,-2.6303,-2.5539,-2.5006,0.0,0.0,0.0,0.0,0.0,0.0,0.0,0.0,0.0,0.0,0.0,0.0,0.0,0.0,0.0,0.0,0.0,0.0,0.0,0.0,0.0,0.0,0.0,0.0,0.0,0.0,0.0,0.0,0.0,0.0,0.0,0.0,0.0,0.0,0.0,0.0,0.0,0.0,0.0,0.0,0.0,0.0,0.0,0.0,0.0,0.0,0.0,0.0,0.0,0.0,0.0,0.0,0.0,0.0,0.0,0.0,0.0,0.0,0.0,0.0,0.0,0.0,0.0,0.0,0.0,0.0,0.0,0.0,0.0,0.0,0.0,0.0,0.0,0.0,0.0,0.0,0.0,0.0,0.0,0.0,0.0,0.0,0.0,0.0,0.0,0.0,0.0,0.0,0.0,0.0,0.0,0.0,0.0,0.0,0.0,0.0,0.0,0.0,0.0,0.0,0.0,0.0,0.0,0.0,0.0,0.0,0.0,0.0,-2.812,-2.8122,-2.8011,-2.7829,-2.7007,-2.6528,0.0,0.0,0.0,0.0,0.0,0.0,0.0,0.0,0.0,0.0,0.0,0.0,0.0,0.0,0.0,0.0,0.0,0.0,0.0,0.0,0.0,0.0,0.0,0.0,0.0,0.0,0.0,0.0,0.0,0.0,0.0,0.0,0.0,0.0,0.0,0.0,0.0,0.0,0.0,0.0,0.0,0.0,0.0,0.0,0.0,0.0,0.0,0.0,0.0,0.0,0.0,0.0,0.0,0.0,0.0,0.0,0.0,0.0,0.0,0.0,0.0,0.0,0.0,0.0,0.0,0.0,0.0,0.0,0.0,0.0,0.0,0.0,0.0,0.0,0.0,0.0,0.0,0.0,0.0,0.0,0.0,0.0,0.0,0.0,0.0,0.0,0.0,0.0,0.0,0.0,0.0,0.0,0.0,0.0,0.0,0.0,0.0,0.0,0.0,0.0,0.0,0.0,0.0,0.0,0.0,0.0,0.0,0.0,0.0,-2.8053,-2.7925,-2.7792,-2.7709,-2.7355,-2.6926,0.0,0.0,0.0,0.0,0.0,0.0,0.0,0.0,0.0,0.0,0.0,0.0,0.0,0.0,0.0,0.0,0.0,0.0,0.0,0.0,0.0,0.0,0.0,0.0,0.0,0.0,0.0,0.0,0.0,0.0,0.0,0.0,0.0,0.0,0.0,0.0,0.0,0.0,0.0,0.0,0.0,0.0,0.0,0.0,0.0,0.0,0.0,0.0,0.0,0.0,0.0,0.0,0.0,0.0,0.0,0.0,0.0,0.0,0.0,0.0,0.0,0.0,0.0,0.0,0.0,0.0,0.0,0.0,0.0,0.0,0.0,0.0,0.0,0.0,0.0,0.0,0.0,0.0,0.0,0.0,0.0,0.0,0.0,0.0,0.0,0.0,0.0,0.0,0.0,0.0,0.0,0.0,0.0,0.0,0.0,0.0,0.0,0.0,0.0,0.0,0.0,0.0,0.0,0.0,0.0,0.0,0.0,0.0,0.0,-2.7957,0.0,-2.7644,-2.7602,-2.7526,-2.7252,0.0,0.0,0.0,0.0,0.0,0.0,0.0,0.0,0.0,0.0,0.0,0.0,0.0,0.0,0.0,0.0,0.0,0.0,0.0,0.0,0.0,0.0,0.0,0.0,0.0,0.0,0.0,0.0,0.0,0.0,0.0,0.0,0.0,0.0,0.0,0.0,0.0,0.0,0.0,0.0,0.0,0.0,0.0,0.0,0.0,0.0,0.0,0.0,0.0,0.0,0.0,0.0,0.0,0.0,0.0,0.0,0.0,0.0,0.0,0.0,0.0,0.0,0.0,0.0,0.0,0.0,0.0,0.0,0.0,0.0,0.0,0.0,0.0,0.0,0.0,0.0,0.0,0.0,0.0,0.0,0.0,0.0,0.0,0.0,0.0,0.0,0.0,0.0,0.0,0.0,0.0,0.0,0.0,0.0,0.0,0.0,0.0,0.0,0.0,0.0,0.0,0.0,0.0,0.0,0.0,0.0,0.0,0.0,-2.7993,-2.7924,-2.7762,-2.7724,-2.7619,-2.7596,-2.7531,0.0,0.0,0.0,0.0,0.0,0.0,0.0,0.0,0.0,0.0,0.0,0.0,0.0,0.0,0.0,0.0,0.0,0.0,0.0,0.0,0.0,0.0,0.0,0.0,0.0,0.0,0.0,0.0,0.0,0.0,0.0,0.0,0.0,0.0,0.0,0.0,0.0,0.0,0.0,0.0,0.0,0.0,0.0,0.0,0.0,0.0,0.0,0.0,0.0,0.0,0.0,0.0,0.0,0.0,0.0,0.0,0.0,0.0,0.0,0.0,0.0,0.0,0.0,0.0,0.0,0.0,0.0,0.0,0.0,0.0,0.0,0.0,0.0,0.0,0.0,0.0,0.0,0.0,0.0,0.0,0.0,0.0,0.0,0.0,0.0,0.0,0.0,0.0,0.0,0.0,0.0,0.0,0.0,0.0,0.0,0.0,0.0,0.0,0.0,0.0,0.0,0.0,0.0,0.0,0.0,0.0,0.0,0.0,0.0,-2.8607,-2.8991,-2.9158,-2.9112,-2.8479,-2.8105,0.0,0.0,0.0,0.0,0.0,0.0,0.0,0.0,0.0,0.0,0.0,0.0,0.0,0.0,0.0,0.0,0.0,0.0,0.0,0.0,0.0,0.0,0.0,0.0,0.0,0.0,0.0,0.0,0.0,0.0,0.0,0.0,0.0,0.0,0.0,0.0,0.0,0.0,0.0,0.0,0.0,0.0,0.0,0.0,0.0,0.0,0.0,0.0,0.0,0.0,0.0,0.0,0.0,0.0,0.0,0.0,0.0,0.0,0.0,0.0,0.0,0.0,0.0,0.0,0.0,0.0,0.0,0.0,0.0,0.0,0.0,0.0,0.0,0.0,0.0,0.0,0.0,0.0,0.0,0.0,0.0,0.0,0.0,0.0,0.0,0.0,0.0,0.0,0.0,0.0,0.0,0.0,0.0,0.0,0.0,0.0,0.0,0.0,0.0,0.0,0.0,0.0,0.0,0.0,0.0,0.0,0.0,0.0,0.0,-2.9691,-2.9819,-2.9792,-2.9693,-2.9092,-2.8612,-2.8219,0.0,0.0,0.0,0.0,0.0,0.0,0.0,0.0,0.0,0.0,0.0,0.0,0.0,0.0,0.0,0.0,0.0,0.0,0.0,0.0,0.0,0.0,0.0,0.0,0.0,0.0,0.0,0.0,0.0,0.0,0.0,0.0,0.0,0.0,0.0,0.0,0.0,0.0,0.0,0.0,0.0,0.0,0.0,0.0,0.0,0.0,0.0,0.0,0.0,0.0,0.0,0.0,0.0,0.0,0.0,0.0,0.0,0.0,0.0,0.0,0.0,0.0,0.0,0.0,0.0,0.0,0.0,0.0,0.0,0.0,0.0,0.0,0.0,0.0,0.0,0.0,0.0,0.0,0.0,0.0,0.0,0.0,0.0,0.0,0.0,0.0,0.0,0.0,0.0,0.0,0.0,0.0,0.0,0.0,0.0,0.0,0.0,0.0,0.0,0.0,0.0,0.0,0.0,0.0,0.0,0.0,0.0,0.0,-3.1148,-3.0332,-2.9849,-2.9644,-2.9523,-2.9042,0.0,0.0,0.0,0.0,0.0,0.0,0.0,0.0,0.0,0.0,0.0,0.0,0.0,0.0,0.0,0.0,0.0,0.0,0.0,0.0,0.0,0.0,0.0,0.0,0.0,0.0,0.0,0.0,0.0,0.0,0.0,0.0,0.0,0.0,0.0,0.0,0.0,0.0,0.0,0.0,0.0,0.0,0.0,0.0,0.0,0.0,0.0,0.0,0.0,0.0,0.0,0.0,0.0,0.0,0.0,0.0,0.0,0.0,0.0,0.0,0.0,0.0,0.0,0.0,0.0,0.0,0.0,0.0,0.0,0.0,0.0,0.0,0.0,0.0,0.0,0.0,0.0,0.0,0.0,0.0,0.0,0.0,0.0,0.0,0.0,0.0,0.0,0.0,0.0,0.0,0.0,0.0,0.0,0.0,0.0,0.0,0.0,0.0,0.0,0.0,0.0,0.0,0.0,0.0,0.0,0.0,0.0,0.0,0.0,-3.1564,-3.1301,-3.1106,-3.1034,-3.0357,-2.9561,0.0,0.0,0.0,0.0,0.0,0.0,0.0,0.0,0.0,0.0,0.0,0.0,0.0,0.0,0.0,0.0,0.0,0.0,0.0,0.0,0.0,0.0,0.0,0.0,0.0,0.0,0.0,0.0,0.0,0.0,0.0,0.0,0.0,0.0,0.0,0.0,0.0,0.0,0.0,0.0,0.0,0.0,0.0,0.0,0.0,0.0,0.0,0.0,0.0,0.0,0.0,0.0,0.0,0.0,0.0,0.0,0.0,0.0,0.0,0.0,0.0,0.0,0.0,0.0,0.0,0.0,0.0,0.0,0.0,0.0,0.0,0.0,0.0,0.0,0.0,0.0,0.0,0.0,0.0,0.0,0.0,0.0,0.0,0.0,0.0,0.0,0.0,0.0,0.0,0.0,0.0,0.0,0.0,0.0,0.0,0.0,0.0,0.0,0.0,0.0,0.0,0.0,0.0,0.0,0.0,0.0,0.0,0.0,-3.1415,-3.2116,-3.2288,-3.2171,-3.1732,-3.1,-3.0176,0.0,0.0,0.0,0.0,0.0,0.0,0.0,0.0,0.0,0.0,0.0,0.0,0.0,0.0,0.0,0.0,0.0,0.0,0.0,0.0,0.0,0.0,0.0,0.0,0.0,0.0,0.0,0.0,0.0,0.0,0.0,0.0,0.0,0.0,0.0,0.0,0.0,0.0,0.0,0.0,0.0,0.0,0.0,0.0,0.0,0.0,0.0,0.0,0.0,0.0,0.0,0.0,0.0,0.0,0.0,0.0,0.0,0.0,0.0,0.0,0.0,0.0,0.0,0.0,0.0,0.0,0.0,0.0,0.0,0.0,0.0,0.0,0.0,0.0,0.0,0.0,0.0,0.0,0.0,0.0,0.0,0.0,0.0,0.0,0.0,0.0,0.0,0.0,0.0,0.0,0.0,0.0,0.0,0.0,0.0,0.0,0.0,0.0,0.0,0.0,0.0,0.0,0.0,0.0,0.0,0.0,0.0,0.0,-3.1886,-3.2514,-3.3079,-3.2921,-3.2039,-3.152,-3.0766,0.0,0.0,0.0,0.0,0.0,0.0,0.0,0.0,0.0,0.0,0.0,0.0,0.0,0.0,0.0,0.0,0.0,0.0,0.0,0.0,0.0,0.0,0.0,0.0,0.0,0.0,0.0,0.0,0.0,0.0,0.0,0.0,0.0,0.0,0.0,0.0,0.0,0.0,0.0,0.0,0.0,0.0,0.0,0.0,0.0,0.0,0.0,0.0,0.0,0.0,0.0,0.0,0.0,0.0,0.0,0.0,0.0,0.0,0.0,0.0,0.0,0.0,0.0,0.0,0.0,0.0,0.0,0.0,0.0,0.0,0.0,0.0,0.0,0.0,0.0,0.0,0.0,0.0,0.0,0.0,0.0,0.0,0.0,0.0,0.0,0.0,0.0,0.0,0.0,0.0,0.0,0.0,0.0,0.0,0.0,0.0,0.0,0.0,0.0,0.0,0.0,0.0,0.0,0.0,0.0,0.0,0.0,0.0,-3.2036,-3.2205,-3.2769,-3.2959,-3.2695,-3.2005,-3.0983,0.0,0.0,0.0,0.0,0.0,0.0,0.0,0.0,0.0,0.0,0.0,0.0,0.0,0.0,0.0,0.0,0.0,0.0,0.0,0.0,0.0,0.0,0.0,0.0,0.0,0.0,0.0,0.0,0.0,0.0,0.0,0.0,0.0,0.0,0.0,0.0,0.0,0.0,0.0,0.0,0.0,0.0,0.0,0.0,0.0,0.0,0.0,0.0,-2.6717,0.0,0.0,0.0,0.0,0.0,0.0,0.0,0.0,0.0,0.0,0.0,0.0,0.0,0.0,0.0,0.0,0.0,0.0,0.0,0.0,0.0,0.0,0.0,0.0,0.0,0.0,0.0,0.0,0.0,0.0,0.0,0.0,0.0,0.0,0.0,0.0,0.0,0.0,0.0,0.0,0.0,0.0,0.0,0.0,0.0,0.0,0.0,0.0,0.0,0.0,0.0,0.0,0.0,0.0,0.0,0.0,0.0,0.0,0.0,-3.2701,-3.3009,-3.3651,-3.3778,-3.3316,-3.2602,-3.1667,0.0,0.0,0.0,0.0,0.0,0.0,0.0,0.0,0.0,0.0,0.0,0.0,0.0,0.0,0.0,0.0,0.0,0.0,0.0,0.0,0.0,0.0,0.0,0.0,0.0,0.0,0.0,0.0,0.0,0.0,0.0,0.0,0.0,0.0,0.0,0.0,0.0,0.0,0.0,0.0,0.0,0.0,0.0,0.0,0.0,0.0,0.0,0.0,0.0,0.0,0.0,0.0,0.0,0.0,0.0,0.0,0.0,0.0,0.0,0.0,0.0,0.0,0.0,0.0,0.0,0.0,0.0,0.0,0.0,0.0,0.0,0.0,0.0,0.0,0.0,0.0,0.0,0.0,0.0,0.0,0.0,0.0,0.0,0.0,0.0,0.0,0.0,0.0,0.0,0.0,0.0,0.0,0.0,0.0,0.0,0.0,0.0,0.0,0.0,0.0,0.0,0.0,0.0,0.0,0.0,0.0,0.0,-3.2466,-3.3456,-3.3977,-3.4675,-3.4718,-3.3972,-3.3265,-3.2531,-3.1725,0.0,0.0,0.0,0.0,0.0,0.0,0.0,0.0,0.0,0.0,0.0,0.0,0.0,0.0,0.0,0.0,0.0,0.0,0.0,0.0,0.0,0.0,0.0,0.0,0.0,0.0,0.0,0.0,0.0,0.0,0.0,0.0,0.0,0.0,0.0,0.0,0.0,0.0,-2.6265,-2.7682,0.0,0.0,0.0,0.0,0.0,0.0,0.0,0.0,-2.8233,0.0,0.0,0.0,0.0,0.0,0.0,0.0,0.0,0.0,0.0,0.0,0.0,0.0,0.0,0.0,0.0,0.0,0.0,0.0,0.0,0.0,0.0,0.0,0.0,0.0,0.0,0.0,0.0,0.0,0.0,0.0,0.0,0.0,0.0,0.0,0.0,0.0,0.0,0.0,0.0,0.0,0.0,0.0,0.0,0.0,0.0,0.0,0.0,0.0,0.0,0.0,0.0,0.0,0.0,0.0,0.0,-3.0783,-3.2691,-3.3742,-3.3829,-3.4542,-3.4857,-3.47,-3.4005,-3.3214,-3.2292,0.0,0.0,0.0,0.0,0.0,0.0,0.0,0.0,0.0,0.0,0.0,0.0,0.0,0.0,0.0,0.0,0.0,0.0,0.0,0.0,0.0,0.0,0.0,0.0,0.0,0.0,0.0,0.0,0.0,0.0,0.0,0.0,0.0,0.0,0.0,0.0,0.0,0.0,0.0,-2.905,-2.9761,0.0,0.0,0.0,0.0,0.0,0.0,0.0,0.0,-2.9295,0.0,0.0,0.0,0.0,0.0,0.0,0.0,0.0,0.0,0.0,0.0,0.0,0.0,0.0,0.0,0.0,0.0,0.0,0.0,0.0,0.0,0.0,0.0,0.0,0.0,0.0,0.0,0.0,0.0,0.0,0.0,0.0,0.0,0.0,0.0,0.0,0.0,0.0,0.0,0.0,0.0,0.0,0.0,0.0,0.0,0.0,0.0,0.0,0.0,0.0,0.0,0.0,0.0,0.0,0.0,-3.1869,-3.3122,-3.3988,-3.4352,-3.4717,-3.4899,-3.4883,-3.417,-3.3373,0.0,0.0,0.0,0.0,0.0,0.0,0.0,0.0,0.0,0.0,0.0,0.0,0.0,0.0,0.0,0.0,0.0,0.0,0.0,0.0,0.0,0.0,0.0,0.0,0.0,0.0,0.0,0.0,0.0,0.0,0.0,0.0,0.0,0.0,0.0,0.0,0.0,0.0,0.0,0.0,-2.9436,-3.0392,-3.0345,0.0,0.0,0.0,0.0,0.0,0.0,-3.1101,-3.0466,0.0,0.0,0.0,0.0,0.0,0.0,0.0,0.0,0.0,0.0,0.0,0.0,0.0,0.0,0.0,0.0,0.0,0.0,0.0,0.0,0.0,0.0,0.0,0.0,0.0,0.0,0.0,0.0,0.0,0.0,0.0,0.0,0.0,0.0,0.0,0.0,0.0,0.0,0.0,0.0,0.0,0.0,0.0,0.0,0.0,0.0,0.0,0.0,0.0,0.0,0.0,0.0,0.0,0.0,0.0,-3.3045,-3.3703,-3.4303,-3.4866,-3.4899,-3.4899,-3.4899,-3.4319,-3.3515,0.0,0.0,0.0,0.0,0.0,0.0,0.0,0.0,0.0,0.0,0.0,0.0,0.0,0.0,0.0,0.0,0.0,0.0,0.0,0.0,0.0,0.0,0.0,0.0,0.0,0.0,0.0,0.0,0.0,0.0,0.0,0.0,0.0,0.0,0.0,0.0,0.0,0.0,0.0,0.0,0.0,-3.0973,-3.1457,-3.1775,0.0,0.0,0.0,0.0,-3.2529,-3.1968,0.0,0.0,0.0,0.0,0.0,0.0,0.0,0.0,0.0,0.0,0.0,0.0,0.0,0.0,0.0,0.0,0.0,0.0,0.0,0.0,0.0,0.0,0.0,0.0,0.0,0.0,0.0,0.0,0.0,0.0,0.0,0.0,0.0,0.0,0.0,0.0,0.0,0.0,0.0,0.0,0.0,0.0,0.0,0.0,0.0,0.0,0.0,0.0,0.0,0.0,0.0,0.0,0.0,0.0,0.0,0.0,-3.3647,-3.4402,-3.484,-3.4899,-3.4899,-3.4899,-3.4899,-3.48,-3.402,0.0,0.0,0.0,0.0,0.0,0.0,0.0,0.0,0.0,0.0,0.0,0.0,0.0,0.0,0.0,0.0,0.0,0.0,0.0,0.0,0.0,0.0,0.0,0.0,0.0,0.0,0.0,0.0,0.0,0.0,0.0,0.0,0.0,0.0,0.0,0.0,0.0,0.0,0.0,0.0,0.0,-3.2083,-3.1659,-3.2707,-3.3342,0.0,0.0,-3.268,-3.268,-3.2078,0.0,0.0,0.0,0.0,0.0,0.0,0.0,0.0,0.0,0.0,0.0,0.0,0.0,0.0,0.0,0.0,0.0,0.0,0.0,0.0,0.0,0.0,0.0,0.0,0.0,0.0,0.0,0.0,0.0,0.0,0.0,0.0,0.0,0.0,0.0,0.0,0.0,0.0,0.0,0.0,0.0,0.0,0.0,0.0,0.0,0.0,0.0,0.0,0.0,0.0,0.0,0.0,0.0,0.0,0.0,-3.2874,-3.3812,-3.4932,-3.5512,-3.5528,-3.5943,-3.5943,-3.5528,-3.5528,-3.4714,0.0,0.0,0.0,0.0,0.0,0.0,0.0,0.0,0.0,0.0,0.0,0.0,0.0,0.0,0.0,0.0,0.0,0.0,0.0,0.0,0.0,0.0,0.0,0.0,0.0,0.0,0.0,0.0,0.0,0.0,0.0,0.0,0.0,0.0,0.0,0.0,0.0,0.0,0.0,0.0,0.0,0.0,-3.2194,-3.311,0.0,0.0,0.0,-3.3938,-3.3938,0.0,0.0,0.0,0.0,0.0,0.0,0.0,0.0,0.0,0.0,0.0,0.0,0.0,0.0,0.0,0.0,0.0,0.0,0.0,0.0,0.0,0.0,0.0,0.0,0.0,0.0,0.0,0.0,0.0,0.0,0.0,0.0,0.0,0.0,0.0,0.0,0.0,0.0,0.0,0.0,0.0,0.0,0.0,0.0,0.0,0.0,0.0,0.0,0.0,0.0,0.0,0.0,0.0,0.0,0.0,0.0,0.0,-3.4071,-3.5346,-3.6009,-3.6025,-3.6721,-3.6837,-3.6307,-3.6092,0.0,0.0,0.0,0.0,0.0,0.0,0.0,0.0,0.0,0.0,0.0,0.0,0.0,0.0,0.0,0.0,0.0,0.0,0.0,0.0,0.0,0.0,0.0,0.0,0.0,0.0,0.0,-2.438,0.0,0.0,0.0,0.0,0.0,0.0,0.0,0.0,0.0,0.0,0.0,0.0,0.0,0.0,-3.19,-3.2856,-3.3591,-3.4253,0.0,0.0,-3.4899,-3.4899,-3.3806,-3.2827,0.0,0.0,0.0,0.0,0.0,0.0,0.0,0.0,0.0,0.0,0.0,0.0,0.0,0.0,0.0,0.0,0.0,0.0,0.0,0.0,0.0,0.0,0.0,0.0,0.0,0.0,0.0,0.0,0.0,0.0,0.0,0.0,0.0,0.0,0.0,0.0,0.0,0.0,0.0,0.0,0.0,0.0,0.0,0.0,0.0,0.0,0.0,0.0,0.0,0.0,0.0,0.0,0.0,0.0,0.0,-3.48,-3.5595,-3.6025,-3.6042,-3.6721,-3.7085,-3.7019,-3.6357,-3.5555,0.0,0.0,0.0,0.0,0.0,0.0,0.0,0.0,0.0,0.0,0.0,0.0,0.0,0.0,0.0,0.0,0.0,0.0,0.0,0.0,0.0,0.0,0.0,0.0,0.0,0.0,0.0,0.0,0.0,0.0,0.0,0.0,0.0,0.0,0.0,0.0,0.0,0.0,0.0,0.0,0.0,-3.2662,-3.3601,-3.4352,-3.4833,0.0,0.0,-3.4899,-3.4899,-3.422,-3.3445,-3.2615,0.0,0.0,0.0,0.0,0.0,0.0,0.0,0.0,0.0,0.0,0.0,0.0,0.0,0.0,0.0,0.0,0.0,0.0,0.0,0.0,0.0,0.0,0.0,0.0,0.0,0.0,0.0,0.0,0.0,0.0,0.0,0.0,0.0,0.0,0.0,0.0,0.0,0.0,0.0,0.0,0.0,0.0,0.0,0.0,0.0,0.0,0.0,0.0,0.0,0.0,0.0,0.0,0.0,-3.364,-3.5545,-3.6307,-3.6903,-3.7367,-3.8079,-3.8245,-3.7798,-3.7069,-3.629,0.0,0.0,0.0,0.0,0.0,0.0,0.0,0.0,0.0,0.0,0.0,0.0,0.0,0.0,0.0,0.0,0.0,0.0,0.0,0.0,0.0,0.0,0.0,0.0,0.0,0.0,0.0,0.0,-2.9251,-2.9736,-2.9877,0.0,0.0,0.0,0.0,0.0,0.0,0.0,0.0,0.0,0.0,-3.278,-3.3667,-3.4419,0.0,0.0,-3.4899,-3.4899,-3.4899,-3.427,-3.3684,-3.3232,-3.1884,0.0,0.0,0.0,0.0,0.0,0.0,0.0,0.0,0.0,0.0,0.0,0.0,0.0,0.0,0.0,0.0,0.0,0.0,0.0,0.0,0.0,0.0,0.0,0.0,0.0,0.0,0.0,0.0,0.0,0.0,0.0,0.0,0.0,0.0,0.0,0.0,0.0,0.0,0.0,0.0,0.0,0.0,0.0,0.0,0.0,0.0,0.0,0.0,0.0,0.0,0.0,0.0,-3.4028,-3.5976,-3.6738,-3.7466,-3.8169,-3.8934,-3.9067,-3.8543,-3.7831,-3.7035,0.0,0.0,0.0,0.0,0.0,0.0,0.0,0.0,0.0,0.0,0.0,0.0,0.0,0.0,0.0,0.0,0.0,0.0,0.0,0.0,0.0,0.0,0.0,0.0,0.0,0.0,0.0,0.0,-3.07,-3.0879,-3.0259,0.0,0.0,0.0,0.0,0.0,0.0,0.0,0.0,0.0,0.0,-3.3139,-3.3998,-3.4568,-3.4899,-3.4899,-3.4899,-3.4899,-3.4899,-3.4452,-3.4015,-3.3707,0.0,0.0,0.0,0.0,0.0,0.0,0.0,0.0,0.0,0.0,0.0,0.0,0.0,0.0,0.0,0.0,0.0,0.0,0.0,0.0,0.0,0.0,0.0,0.0,0.0,0.0,0.0,0.0,0.0,0.0,0.0,0.0,0.0,0.0,0.0,0.0,0.0,0.0,0.0,0.0,0.0,0.0,0.0,0.0,0.0,0.0,0.0,0.0,0.0,0.0,0.0,0.0,0.0,0.0,-3.5992,-3.6754,-3.7483,-3.8212,-3.8907,-3.9299,-3.9249,-3.856,-3.7831,-3.7044,0.0,0.0,0.0,0.0,0.0,0.0,0.0,0.0,0.0,0.0,0.0,0.0,0.0,0.0,0.0,0.0,0.0,0.0,0.0,0.0,0.0,0.0,0.0,0.0,0.0,0.0,-3.1361,-3.2139,-3.1901,0.0,0.0,0.0,0.0,0.0,0.0,0.0,0.0,0.0,0.0,-3.3093,-3.3881,-3.475,-3.4883,-3.4899,-3.4899,-3.4899,-3.4899,-3.4899,-3.4883,-3.4618,0.0,0.0,0.0,0.0,0.0,0.0,0.0,0.0,0.0,0.0,0.0,0.0,0.0,0.0,0.0,0.0,0.0,0.0,0.0,0.0,0.0,0.0,0.0,0.0,0.0,0.0,0.0,-3.1748,-3.1731,0.0,0.0,0.0,0.0,0.0,0.0,0.0,0.0,0.0,0.0,0.0,-3.4979,-3.4849,0.0,0.0,0.0,0.0,0.0,0.0,0.0,0.0,0.0,0.0,0.0,0.0,-3.5247,-3.6688,-3.7466,-3.8195,-3.8891,-3.9166,-3.9315,-3.9299,-3.8576,-3.7606,-3.6406,0.0,0.0,0.0,0.0,0.0,0.0,0.0,0.0,0.0,0.0,0.0,0.0,0.0,0.0,0.0,0.0,0.0,0.0,0.0,0.0,0.0,0.0,0.0,0.0,0.0,-3.0632,0.0,0.0,0.0,0.0,0.0,0.0,0.0,0.0,0.0,0.0,0.0,-3.1577,-3.3044,-3.3525,-3.4008,-3.48,-3.4899,-3.4899,0.0,0.0,0.0,0.0,0.0,0.0,0.0,0.0,0.0,0.0,0.0,0.0,0.0,0.0,-3.019,-2.8319,-2.796,-2.796,-2.796,0.0,0.0,0.0,0.0,0.0,0.0,0.0,0.0,0.0,0.0,0.0,0.0,0.0,0.0,0.0,0.0,-3.3723,0.0,0.0,0.0,0.0,0.0,0.0,0.0,0.0,-3.7163,-3.7312,-3.676,-3.6643,-3.6499,0.0,-3.5536,-3.461,0.0,0.0,0.0,0.0,0.0,0.0,0.0,0.0,-3.5992,-3.7408,-3.7963,-3.856,-3.9265,-3.9315,-3.9315,-3.9299,-3.8576,-3.7748,-3.6804,-3.5737,-3.4591,0.0,0.0,0.0,0.0,0.0,0.0,0.0,0.0,0.0,0.0,0.0,0.0,0.0,0.0,0.0,0.0,0.0,0.0,0.0,0.0,0.0,0.0,0.0,-3.1764,0.0,0.0,0.0,0.0,0.0,0.0,0.0,0.0,0.0,-3.0577,-3.1528,-3.2595,-3.3558,-3.3958,-3.4352,-3.4833,0.0,0.0,0.0,0.0,0.0,0.0,0.0,-3.4899,-3.4899,-3.4414,-3.3971,-3.3707,-3.3202,-3.2754,-3.2537,0.0,0.0,-2.9948,-2.9604,-2.9604,-2.9587,-2.9487,-2.9386,-2.9386,-2.928,-2.9448,0.0,0.0,0.0,0.0,0.0,0.0,0.0,0.0,-3.7062,-3.7025,0.0,-3.6233,0.0,0.0,0.0,0.0,0.0,0.0,0.0,0.0,-3.9045,-3.8951,-3.8681,-3.8624,-3.8543,-3.8368,-3.8006,-3.777,-3.7436,-3.4536,0.0,0.0,0.0,0.0,0.0,0.0,-3.6771,-3.8119,-3.8202,-3.8593,-3.9282,-3.9315,-3.9315,-3.9282,-3.8609,-3.8245,-3.8146,-3.6787,-3.5629,-3.4765,-3.338,0.0,0.0,0.0,0.0,0.0,0.0,0.0,0.0,0.0,0.0,0.0,0.0,0.0,0.0,0.0,0.0,0.0,0.0,0.0,0.0,-3.2486,0.0,0.0,0.0,0.0,0.0,0.0,0.0,0.0,0.0,0.0,-3.1583,-3.2737,-3.365,-3.3822,0.0,0.0,0.0,0.0,-3.4899,-3.4899,-3.4899,-3.4899,-3.4899,-3.4899,-3.4899,-3.4899,0.0,0.0,-3.3955,-3.373,-3.3452,-3.2872,-3.2739,-3.256,-3.2479,-3.2315,-3.2282,-3.2298,-3.2119,-3.2157,-3.215,-3.1781,-3.1771,-4.2885,0.0,0.0,0.0,0.0,-3.8963,-3.8821,-3.8676,-3.8655,-3.8655,-3.8638,-3.8389,0.0,0.0,0.0,0.0,0.0,0.0,-3.9202,-3.8986,-3.9336,-3.9207,-3.8612,-3.8328,-3.812,-3.7939,-3.7694,-3.7533,-3.7369,-3.6397,-3.5868,-3.586,0.0,0.0,0.0,0.0,-3.7798,-3.8212,-3.8709,-3.91,-3.9299,-3.9315,-3.9315,-3.9315,-3.91,-3.8742,-3.8202,-3.7301,-3.6431,-3.5645,-3.4152,0.0,0.0,0.0,0.0,0.0,0.0,0.0,0.0,0.0,0.0,0.0,0.0,0.0,0.0,0.0,0.0,0.0,0.0,0.0,-3.2652,-3.3425,-3.3601,0.0,0.0,0.0,0.0,0.0,0.0,0.0,0.0,0.0,-3.3131,-3.3479,-3.3965,0.0,0.0,-3.4899,-3.4899,-3.4899,-3.4899,-3.4899,0.0,0.0,0.0,-3.4899,-3.4899,-3.4899,-3.4899,-3.4833,-3.4618,-3.4561,-3.4471,-3.427,-3.4246,-3.4206,-3.411,-3.33,-3.2689,-3.2607,-3.2465,-3.2361,-3.2338,-3.2176,-3.211,-4.4668,-4.2887,-4.2304,-4.1689,-4.11,-4.0993,-4.0669,-4.0196,-4.0235,-4.0196,-4.02,-3.9901,-3.9761,-3.9761,-3.9382,0.0,0.0,0.0,-3.9964,-3.9713,-3.9893,-3.9712,-3.92,-3.8897,-3.8685,-3.8562,-3.8338,-3.822,-3.816,-3.8057,-3.7963,-3.7947,0.0,0.0,-3.7524,-3.798,-3.8344,-3.8642,-3.9067,-3.9315,-3.9315,-3.9315,-3.9315,-3.9315,-3.9315,-3.9083,-3.8642,-3.793,-3.7334,-3.6887,-3.539,-3.4202,0.0,0.0,0.0,0.0,0.0,0.0,0.0,0.0,0.0,0.0,0.0,-2.6752,0.0,0.0,0.0,0.0,-3.1583,-3.2321,-3.3673,-3.4054,0.0,0.0,0.0,0.0,0.0,0.0,0.0,-3.2873,-3.337,-3.3819,-3.4187,-3.4237,-3.4402,-3.4833,-3.4899,-3.4899,-3.4899,0.0,-3.4899,-3.4899,-3.4899,-3.4899,-3.4899,-3.4899,-3.4899,-3.4899,-3.4899,-3.4899,-3.4899,-3.4899,-3.4899,-3.4899,-3.4899,-3.4899,-3.4899,-3.4154,-3.3574,-3.3557,-3.339,-3.3243,-3.3219,-3.303,-3.2919,-4.5933,-4.4954,-4.4825,-4.4169,-4.3187,-4.3111,-4.2577,-4.1797,-4.178,-4.1797,-4.1727,-4.1082,-4.0766,-4.0709,-3.9843,0.0,0.0,-4.0261,-4.0498,-4.0995,-4.0754,-4.0508,-4.0257,-4.0095,-3.9966,-3.9862,-3.9704,-3.9641,-3.9641,-3.9534,-3.9481,-3.9431,-3.8112,-3.7706,-3.8261,-3.8295,-3.8609,-3.9282,-3.9299,-3.9315,-3.9315,-3.9315,-3.9315,-3.9315,-3.9315,-3.9315,-3.9282,-3.8593,-3.8212,-3.8162,-3.6854,-3.5695,-3.483,0.0,0.0,0.0,0.0,0.0,0.0,0.0,0.0,0.0,0.0,0.0,0.0,0.0,0.0,0.0,-3.3464,0.0,-3.3889,-3.4485,0.0,0.0,0.0,-3.3446,-3.277,-3.2688,-3.2951,-3.3627,0.0,0.0,0.0,0.0,-3.4899,-3.4899,-3.4899,-3.4899,-3.4899,-3.4899,-3.4899,-3.4899,-3.4899,-3.4899,-3.4899,-3.4899,-3.4899,-3.4899,-3.4899,-3.4899,-3.4899,-3.4899,-3.4899,-3.4899,-3.4899,-3.4899,-3.4899,-3.4833,-3.4899,-3.4833,-3.4642,-3.4448,-3.4382,-3.4145,-3.3871,-4.6806,-4.6449,-4.6318,-4.5417,-4.4018,-4.3883,-4.3627,-4.3342,-4.336,-4.3342,-4.3342,-4.3149,-4.3033,-4.2923,-4.2684,-4.2555,-4.2417,-4.2386,-4.2249,-4.2117,-4.1953,-4.1769,-4.16,-4.1402,-4.1255,-4.1211,-4.1039,-4.0923,-4.0967,-4.0912,-4.0912,-4.0878,-4.0564,-3.9934,-3.9067,-3.905,-3.9133,-3.9315,-3.9315,-3.9315,-3.9315,-3.9315,-3.9315,-3.9315,-3.9315,-3.9315,-3.9299,-3.8593,-3.8212,-3.8195,-3.7334,-3.6481,-3.5728,-3.4739,0.0,0.0,0.0,0.0,0.0,0.0,0.0,0.0,0.0,-3.0025,-3.1138,0.0,-3.2541,0.0,-3.4203,-3.4618,-3.4618,-3.4783,0.0,0.0,-3.461,-3.4544,-3.4339,-3.4322,-3.4388,-3.457,-3.461,-3.47,-3.4866,-3.4899,-3.4899,-3.4899,-3.4899,-3.4899,-3.4899,-3.4899,-3.4899,-3.4899,-3.4899,-3.4899,-3.4899,-3.4899,-3.4899,-3.4899,-3.4899,-3.4899,-3.4899,-3.4899,-3.4899,-3.4899,-3.4899,-3.4899,-3.4899,-3.4899,-3.4899,-3.4899,-3.4691,-3.448,-3.448,-3.4201,-3.3899,-4.6934,-4.6819,-4.6661,-4.6071,-4.5187,-4.48,-4.4354,-4.3886,-4.3886,-4.3886,-4.3886,-4.384,-4.3739,-4.362,-4.3482,-4.3328,-4.308,-4.2869,-4.2636,-4.24,-4.2166,-4.2003,-4.1893,-4.1699,-4.1571,-4.1571,-4.147,-4.1397,-4.1397,-4.1397,-4.1397,-4.1397,-4.1397,-4.1028,-4.0233,-3.9962,-3.963,-3.9315,-3.9315,-3.9315,-3.9315,-3.9315,-3.9315,-3.9315,-3.9315,-3.9315,-3.9315,-3.8917,-3.8692,-3.8659,-3.7996,-3.7417,-3.6977,-3.6216,-3.5069,0.0,0.0,0.0,0.0,0.0,0.0,0.0,0.0,0.0,0.0,0.0,-3.3491,0.0,-3.4667,0.0,-3.4899,-3.4899,-3.4899,-3.4899,-3.4899,-3.4899,-3.4899,-3.4899,-3.4899,-3.4899,-3.4899,-3.4899,-3.4899,-3.4899,-3.4899,-3.4899,-3.4899,-3.4899,-3.4899,-3.4899,-3.4899,-3.4899,-3.4899,-3.4899,-3.4899,-3.4899,-3.4899,-3.4899,-3.4899,-3.4899,-3.4899,-3.4899,-3.4899,-3.4899,-3.4899,-3.4899,-3.4899,-3.4899,-3.4899,-3.4875,-3.4683,-3.4521,-3.448,-3.4159,-3.3864,-4.6684,-4.6566,-4.6429,-4.6381,-4.6321,-4.5687,-4.4947,-4.4185,-4.4202,-4.4202,-4.4161,-4.4019,-4.3875,-4.3746,-4.3473,-4.3322,-4.3245,-4.2794,-4.2571,-4.249,-4.215,-4.1971,-4.1926,-4.1752,-4.1678,-4.1678,-4.1678,-4.1678,-4.1678,-4.1707,-4.169,-4.169,-4.1662,-4.1657,-4.1513,-4.0961,-4.0276,-3.9448,-3.9365,-3.9315,-3.9315,-3.9315,-3.9315,-3.9315,-3.9315,-3.9315,-3.9315,-3.9315,-3.9315,-3.9282,-3.8676,-3.8295,-3.8195,-3.7599,-3.6572,0.0,-3.4913,0.0,0.0,0.0,0.0,0.0,0.0,0.0,0.0,-3.3895,-3.4203,-3.4833,-3.4899,-3.4899,-3.4899,-3.4899,-3.4899,-3.4899,-3.4899,-3.4899,-3.4899,-3.4899,-3.4899,-3.4899,-3.4899,-3.4899,-3.4899,-3.4899,-3.4899,-3.4899,-3.4899,-3.4899,-3.4899,-3.4899,-3.4899,-3.4899,-3.4982,-3.5164,-3.5263,-3.5164,-3.5081,-3.5065,-3.4965,-3.4899,-3.4899,-3.4899,-3.4899,-3.4899,-3.4899,-3.4899,-3.4899,-3.4899,-3.4899,-3.4899,-3.4707,-3.4497,-3.4448,-3.4134,-3.3848,-4.6566,-4.6447,-4.6423,-4.6308,-4.6228,-4.6088,-4.5923,-4.5758,-4.5775,-4.5709,-4.5586,-4.5326,-4.519,-4.5036,-4.4879,-4.457,-4.4217,-4.4107,-4.3917,-4.3597,-4.351,-4.3394,-4.3243,-4.3197,-4.3168,-4.3184,-4.3168,-4.3168,-4.3168,-4.3168,-4.3184,-4.3168,-4.3168,-4.2886,-4.2307,0.0,0.0,0.0,-3.9613,-3.9315,-3.9315,-3.9315,-3.9315,-3.9315,-3.9315,0.0,-3.9315,-3.9315,-3.9315,-3.9299,-3.9166,0.0,0.0,0.0,0.0,0.0,0.0,0.0,0.0,0.0,0.0,0.0,-3.4346,-3.4154,-3.3839,-3.4336,-3.475,-3.4883,-3.4899,-3.4899,-3.4899,-3.4899,-3.4899,-3.4899,-3.4899,-3.4899,-3.4899,-3.4899,-3.4899,-3.4899,-3.4899,-3.4899,-3.4899,-3.4899,-3.4899,-3.4899,-3.4899,-3.4899,-3.4916,-3.4932,-3.4916,-3.4932,-3.5446,-3.6009,-3.6589,-3.6174,-3.581,-3.5744,-3.5263,-3.4949,-3.4932,-3.4899,-3.4899,-3.4899,-3.4899,-3.4899,-3.4899,-3.4899,-3.4899,-3.4899,-3.4691,-3.448,-3.4472,-3.4101,-3.3694,-4.6368,0.0,-4.6301,-4.627,0.0,-4.6122,-4.6097,-4.6115,-4.6097,-4.593,-4.5718,-4.5572,-4.538,-4.5086,-4.4934,-4.4686,-4.4406,-4.4253,-4.4068,-4.3898,-4.3793,-4.3687,-4.3615,-4.3615,-4.3615,-4.3615,-4.3615,-4.3615,-4.3615,-4.3615,-4.3615,-4.3615,-4.3615,-4.34,-4.3035,-4.2671,-4.1806,-4.0426,-4.0044,-3.968,-3.9332,-3.9315,-3.9315,-3.9315,0.0,0.0,0.0,0.0,0.0,0.0,0.0,0.0,0.0,0.0,0.0,-3.7673,-3.7301,-3.6936,-3.6572,-3.6191,-3.5827,-3.5462,-3.5098,-3.475,-3.4369,-3.4684,-3.4899,-3.4899,-3.4899,-3.4899,-3.4899,-3.4899,-3.4899,-3.4899,-3.4899,-3.4899,-3.4899,-3.4899,-3.4899,-3.4899,-3.4899,-3.4899,-3.4899,-3.4899,-3.4899,-3.4916,-3.523,-3.5429,-3.5446,-3.5446,-3.5545,-3.5926,-3.6274,-3.6671,-3.6986,-3.6837,-3.6555,-3.6473,-3.5926,-3.5495,-3.5429,-3.5131,-3.4899,-3.4899,-3.4899,-3.4899,-3.4899,-3.4899,-3.4899,-3.4875,-3.4667,-3.4497,-3.4472,-3.4075,-3.3642,-4.6172,-4.6147,-4.6189,-4.6147,-4.6122,-4.6015,-4.5947,-4.5897,0.0,0.0,0.0,-4.5292,-4.5042,-4.4748,-4.4519,-4.435,-4.4224,-4.3998,-4.3898,-4.3839,-4.3658,-4.3615,-4.3615,-4.3615,-4.3615,-4.3615,-4.3615,-4.3615,-4.3615,-4.3615,-4.3615,-4.3615,-4.3615,-4.3615,-4.3549,-4.2986,-4.2071,-4.0829,-4.0542,-4.0044,-3.9332,-3.9315,-3.9315,-3.9315,-3.9315,-3.9315,-3.9315,-3.9315,-3.9315,-3.9315,-3.9315,-3.9315,-3.9315,-3.9315,-3.9023,-3.846,-3.8252,-3.7947,-3.735,-3.7185,-3.6837,-3.6241,-3.5512,-3.5032,-3.4916,-3.4899,-3.4899,-3.4899,-3.4899,-3.4899,-3.4899,-3.4899,-3.4899,-3.4899,-3.4899,-3.4899,-3.4899,-3.4899,-3.4899,-3.4899,-3.4899,-3.4899,-3.4899,-3.4899,-3.4965,-3.5148,-3.5595,-3.6158,-3.6307,-3.6307,-3.6439,-3.7085,-3.7284,-3.735,-3.7466,-3.7367,-3.7317,-3.7284,-3.6688,-3.6191,-3.5943,-3.5512,-3.5098,-3.4916,-3.4899,-3.4899,-3.4899,-3.4899,-3.4899,-3.4899,-3.4667,-3.448,-3.4431,-3.4075,-3.3642,-4.614,-4.604,-4.6023,-4.5947,-4.5846,-4.5838,-4.5701,-4.5494,-4.5494,-4.5441,-4.5372,-4.4835,-4.4586,-4.4547,-4.4281,-4.4068,-4.3939,-4.3927,-4.3809,0.0,-4.3628,-4.3615,-4.3615,-4.3615,-4.3615,-4.3615,-4.3615,-4.3615,-4.3615,-4.3615,-4.3615,-4.3615,-4.3615,-4.3615,-4.3598,-4.3482,-4.3035,-4.2191,-4.0994,-4.0044,-3.9315,-3.9315,-3.9315,-3.9315,-3.9315,-3.9315,-3.9315,-3.9315,-3.9315,-3.9315,-3.9315,-3.9315,-3.9315,-3.9315,-3.9249,-3.9133,-3.856,-3.8136,-3.802,-3.7466,-3.7069,-3.692,-3.6257,-3.5578,-3.4965,-3.4899,-3.4899,-3.4899,-3.4899,-3.4899,-3.4899,-3.4899,-3.4899,-3.4899,-3.4899,-3.4899,-3.4899,-3.4899,-3.4899,-3.4899,-3.4899,-3.4916,-3.4965,-3.4949,-3.5197,-3.5694,-3.6092,-3.6489,-3.745,-3.7325,-3.7317,-3.7864,-3.8037,-3.8311,-3.8626,-3.8411,-3.8112,-3.8037,-3.7408,-3.6771,-3.6274,-3.5943,-3.5595,-3.5015,-3.4932,-3.4899,-3.4899,-3.4899,-3.4899,-3.4899,-3.4667,-3.4497,-3.4472,-3.4075,-3.3633,-4.661,-4.6489,-4.6063,-4.5803,-4.5675,-4.552,-4.5363,-4.5194,-4.4971,-4.4917,-4.4889,-4.4614,-4.4378,-4.4184,-4.4056,-4.391,-4.3734,-4.3734,-4.3687,-4.3598,-4.3615,-4.3615,-4.3615,-4.3615,-4.3615,-4.3615,-4.3615,-4.3615,-4.3615,-4.3615,-4.3615,-4.3615,-4.3615,-4.3615,-4.3615,-4.3615,-4.3234,-4.2506,-4.1475,-4.0597,-3.9928,-3.9514,-3.9315,-3.9315,-3.9315,-3.9315,-3.9315,-3.9315,-3.9315,-3.9315,-3.9315,-3.9315,-3.9315,-3.9315,-3.9315,-3.9299,-3.9,-3.8775,-3.8791,-3.8112,-3.7715,-3.7682,-3.7019,-3.6456,-3.6125,-3.5346,-3.4899,-3.4899,-3.4899,-3.4899,-3.4899,-3.4899,-3.4899,-3.4899,-3.4899,-3.4899,-3.4899,-3.4899,-3.4899,-3.4899,-3.4899,-3.5048,-3.5446,-3.5495,-3.576,-3.6456,-3.6903,-3.7615,-3.8609,-3.8536,-3.8377,-3.8709,-3.8775,-3.8907,-3.9232,-3.9067,-3.8808,-3.8791,-3.8195,-3.7632,-3.7168,-3.6671,-3.5926,-3.5545,-3.5197,-3.4932,-3.4899,-3.4899,-3.4899,-3.4875,-3.4691,-3.4521,-3.4423,-3.4025,-3.3503,-4.7029,-4.6777,-4.6187,-4.5745,-4.5441,-4.5203,-4.5015,-4.4852,-4.4558,-4.4435,-4.4378,-4.4361,-4.4184,-4.3898,-4.3852,-4.3763,-4.3645,-4.3615,-4.3615,-4.3615,-4.3615,-4.3615,-4.3615,-4.3615,-4.3615,-4.3615,-4.3615,-4.3615,-4.3615,-4.3615,-4.3615,-4.3615,-4.3615,-4.3615,-4.3615,-4.3615,-4.3317,-4.2721,-4.1844,-4.1077,-4.0398,-3.968,-3.9315,-3.9315,-3.9315,-3.9315,-3.9315,-3.9315,-3.9315,-3.9315,-3.9315,-3.9315,-3.9315,-3.9315,-3.9315,-3.9315,-3.9315,-3.9315,-3.9282,-3.8775,-3.8444,-3.8444,-3.7765,-3.7325,-3.7268,-3.6158,-3.533,-3.5164,-3.5015,-3.4899,-3.4899,-3.4899,-3.4899,-3.4899,-3.4899,-3.4899,-3.4899,-3.4899,-3.4899,-3.4916,-3.5032,-3.5396,-3.586,-3.6141,-3.6539,-3.7251,-3.7996,-3.8676,-3.9183,-3.9315,-3.9315,-3.9315,-3.9315,-3.9282,-3.9315,-3.9299,-3.9265,-3.9315,-3.8825,-3.8377,-3.8046,-3.7168,-3.6373,-3.6075,-3.5545,-3.5148,-3.4965,-3.4899,-3.4899,-3.4899,-3.4667,-3.4464,-3.4275,-3.3873,-3.3372,-4.7083,-4.6416,-4.6268,-4.5802,-4.5049,-4.4896,-4.4731,-4.453,-4.4378,-4.4167,-4.3981,-4.3939,-4.3956,-4.3868,-4.3734,-4.3628,-4.3615,-4.3615,-4.3615,-4.3615,-4.3615,-4.3615,-4.3615,-4.3615,-4.3615,-4.3615,-4.3615,-4.3615,-4.3615,-4.3615,-4.3615,-4.3615,-4.3615,-4.3615,-4.3615,-4.3615,-4.3549,-4.3466,-4.2109,-4.1077,-4.0409,-3.968,-3.9315,-3.9315,-3.9315,-3.9315,-3.9315,-3.9315,-3.9315,-3.9315,-3.9315,-3.9315,-3.9315,-3.9315,-3.9315,-3.9315,-3.9315,-3.9315,-3.9299,-3.9249,-3.9166,-3.9149,-3.8493,-3.8086,-3.8079,-3.7367,-3.6605,-3.6025,-3.533,-3.4965,-3.4899,-3.4899,-3.4899,-3.4899,-3.4899,-3.4899,-3.4899,-3.4899,-3.4899,-3.4899,-3.5462,-3.5943,-3.6174,-3.6704,-3.7334,-3.8013,-3.8626,-3.9116,-3.9249,-3.9315,-3.9315,-3.9315,-3.9315,-3.9315,-3.9315,-3.9315,-3.9315,-3.9299,-3.9265,-3.8891,-3.8411,-3.8079,-3.7639,-3.6589,-3.6042,-3.5727,-3.5181,-3.4899,-3.4932,-3.4875,-3.4667,-3.4374,-3.3924,-3.3658,-3.3388,-4.7503,-4.7087,-4.6266,-4.5382,-4.4615,-4.444,-4.4338,-4.4253,-4.4109,-4.3998,-4.3898,-4.3763,-4.3734,-4.3734,-4.3628,-4.3615,-4.3615,-4.3615,-4.3615,-4.3615,-4.3615,-4.3615,-4.3615,-4.3615,-4.3615,-4.3615,-4.3615,-4.3615,-4.3615,-4.3615,-4.3615,-4.3615,-4.3615,-4.3615,-4.3615,-4.3615,-4.3615,-4.3549,-4.2142,-4.1276,-4.0912,-3.9895,-3.9315,-3.9315,-3.9315,-3.9315,-3.9315,-3.9315,-3.9315,-3.9315,-3.9315,-3.9315,-3.9315,-3.9315,-3.9315,-3.9315,-3.9315,-3.9315,-3.9315,-3.9315,-3.9315,-3.9315,-3.9033,-3.8868,-3.8808,-3.8179,-3.7599,-3.7251,-3.6257,-3.5396,-3.4998,-3.4899,-3.4899,-3.4899,-3.4899,-3.4899,-3.4899,-3.4916,-3.5048,-3.5479,-3.5794,-3.6406,-3.7185,-3.793,-3.846,-3.8808,-3.9149,-3.9299,-3.9315,-3.9315,-3.9315,-3.9315,-3.9315,-3.9315,-3.9315,-3.9315,-3.9315,-3.9315,-3.9315,-3.9116,-3.8907,-3.8411,-3.7947,-3.7325,-3.6953,-3.6406,-3.5711,-3.5528,-3.5462,-3.5133,-3.4683,-3.4374,-3.3899,-3.372,-3.3477,-4.7855,-4.745,-4.6115,-4.5012,-4.4241,-4.4097,-4.4056,-4.4027,-4.3881,-4.3839,-4.3793,-4.3658,-4.3615,-4.3615,-4.3615,-4.3615,-4.3615,-4.3615,-4.3615,-4.3615,-4.3615,-4.3615,-4.3615,-4.3615,-4.3615,-4.3615,-4.3615,-4.3615,-4.3615,-4.3615,-4.3615,-4.3615,-4.3615,-4.3615,-4.3615,-4.3615,-4.3615,-4.3466,-4.2142,-4.1397,-4.1226,-4.0044,-3.9315,-3.9315,-3.9315,-3.9315,-3.9315,-3.9315,-3.9315,-3.9315,-3.9315,-3.9315,-3.9315,-3.9315,-3.9315,-3.9315,-3.9315,-3.9315,-3.9315,-3.9315,-3.9315,-3.9315,-3.9315,-3.9315,-3.9216,-3.8808,-3.8427,-3.8112,-3.7235,-3.6274,-3.5346,-3.5015,-3.4899,-3.4899,-3.4899,-3.4949,-3.5164,-3.5214,-3.5512,-3.6174,-3.6555,-3.7069,-3.8245,-3.8891,-3.9232,-3.9265,-3.9282,-3.9315,-3.9315,-3.9315,-3.9315,-3.9315,-3.9315,-3.9315,-3.9315,-3.9315,-3.9315,-3.9315,-3.9315,-3.9315,-3.9315,-3.8775,-3.8311,-3.7914,-3.7615,-3.7201,-3.6522,-3.6274,-3.6034,-3.5356,-3.4857,-3.4595,-3.4381,-3.4127,-3.3969,-4.808,-4.7211,-4.5822,-4.4817,-4.4097,-4.3985,-4.3898,-4.3898,-4.3704,-4.3628,-4.3628,-4.3598,-4.3615,-4.3615,-4.3615,-4.3615,-4.3615,-4.3615,-4.3615,-4.3615,-4.3615,-4.3615,-4.3615,-4.3615,-4.3615,-4.3615,-4.3615,-4.3615,-4.3615,-4.3615,-4.3615,-4.3615,-4.3615,-4.3615,-4.3615,-4.3615,-4.3615,-4.3449,-4.2125,-4.1397,-4.1243,-4.0028,-3.9315,-3.9315,-3.9315,-3.9315,-3.9315,-3.9315,-3.9315,-3.9315,-3.9315,-3.9315,-3.9315,-3.9315,-3.9315,-3.9315,-3.9315,-3.9315,-3.9315,-3.9315,-3.9315,-3.9315,-3.9315,-3.9315,-3.9315,-3.9216,-3.8891,-3.8295,-3.8079,-3.74,-3.6208,-3.5429,-3.5015,-3.4982,-3.4932,-3.5247,-3.5876,-3.5959,-3.629,-3.697,-3.7615,-3.8245,-3.91,-3.9282,-3.9315,-3.9315,-3.9315,-3.9315,-3.9315,-3.9315,-3.9315,-3.9315,-3.9315,-3.9315,-3.9315,-3.9315,-3.9315,-3.9315,-3.9315,-3.9315,-3.9315,-3.9199,-3.8791,-3.8493,-3.8295,-3.7897,-3.7317,-3.6878,-3.653,-3.5943,-3.5243,-3.4929,-3.5124,-3.4844,-3.4707,-4.7481,-4.635,-4.5818,-4.492,-4.3809,-4.3734,-4.3704,-4.3687,-4.3628,-4.3615,-4.3615,-4.3615,-4.3615,-4.3615,-4.3615,-4.3615,-4.3615,-4.3615,-4.3615,-4.3615,-4.3615,-4.3615,-4.3615,-4.3615,-4.3615,-4.3615,-4.3615,-4.3615,-4.3615,-4.3615,-4.3615,-4.3615,-4.3615,-4.3615,-4.3615,-4.3615,-4.3615,-4.3449,-4.2142,-4.1397,-4.1293,-4.0017,-3.9315,-3.9315,-3.9315,-3.9315,-3.9315,-3.9315,-3.9315,-3.9315,-3.9315,-3.9315,-3.9315,-3.9315,-3.9315,-3.9315,-3.9315,-3.9315,-3.9315,-3.9315,-3.9315,-3.9315,-3.9315,-3.9315,-3.9315,-3.9299,-3.9183,-3.8891,-3.8427,-3.7871,-3.74,-3.634,-3.5611,-3.5595,-3.5628,-3.5893,-3.6489,-3.6704,-3.6986,-3.7715,-3.8444,-3.9033,-3.9199,-3.9315,-3.9315,-3.9315,-3.9315,-3.9315,-3.9315,-3.9315,-3.9315,-3.9315,-3.9315,-3.9315,-3.9315,-3.9315,-3.9315,-3.9315,-3.9315,-3.9315,-3.9315,-3.9315,-3.9,-3.895,-3.8791,-3.856,-3.7963,-3.735,-3.7018,-3.6686,-3.5983,-3.5716,-3.6017,-3.5743,-3.5588,-4.6924,-4.5847,-4.5533,-4.4738,-4.3664,-4.3615,-4.3615,-4.3615,-4.3615,-4.3615,-4.3615,-4.3615,-4.3615,-4.3615,-4.3615,-4.3615,-4.3615,-4.3615,-4.3615,-4.3615,-4.3615,-4.3615,-4.3615,-4.3615,-4.3615,-4.3615,-4.3615,-4.3615,-4.3615,-4.3615,-4.3615,-4.3615,-4.3615,-4.3615,-4.3615,-4.3615,-4.3515,-4.3052,-4.2009,-4.1326,-4.0961,-3.9928,-3.9315,-3.9315,-3.9315,-3.9315,-3.9315,-3.9315,-3.9315,-3.9315,-3.9315,-3.9315,-3.9315,-3.9315,-3.9315,-3.9315,-3.9315,-3.9315,-3.9315,-3.9315,-3.9315,-3.9315,-3.9315,-3.9315,-3.9315,-3.9315,-3.9315,-3.9199,-3.8891,-3.851,-3.8096,-3.7301,-3.6622,-3.6423,-3.6373,-3.6671,-3.7334,-3.745,-3.7798,-3.8427,-3.8967,-3.9265,-3.9315,-3.9315,-3.9315,-3.9315,-3.9315,-3.9315,-3.9315,-3.9315,-3.9315,-3.9315,-3.9315,-3.9315,-3.9315,-3.9315,-3.9315,-3.9315,-3.9315,-3.9315,-3.9315,-3.9315,-3.9315,-3.9315,-3.9216,-3.9017,-3.8576,-3.793,-3.7564,-3.7338,-3.6856,-3.6448,-3.6584,-3.6632,-3.6566,-4.6477,-4.5732,-4.5033,-4.434,-4.3648,-4.3615,-4.3615,-4.3615,-4.3615,-4.3615,-4.3615,-4.3615,-4.3615,-4.3615,-4.3615,-4.3615,-4.3615,-4.3615,-4.3615,-4.3615,-4.3615,-4.3615,-4.3615,-4.3615,-4.3615,-4.3615,-4.3615,-4.3615,-4.3615,-4.3615,-4.3615,-4.3615,-4.3615,-4.3615,-4.3615,-4.3515,-4.3201,-4.2539,-4.1728,-4.1044,-4.0426,-3.9696,-3.9315,-3.9315,-3.9315,-3.9315,-3.9315,-3.9315,-3.9315,-3.9315,-3.9315,-3.9315,-3.9315,-3.9315,-3.9315,-3.9315,-3.9315,-3.9315,-3.9315,-3.9315,-3.9315,-3.9315,-3.9315,-3.9315,-3.9315,-3.9315,-3.9315,-3.9299,-3.9232,-3.899,-3.8427,-3.8179,-3.7847,-3.7268,-3.7119,-3.7433,-3.7987,-3.8186,-3.8477,-3.904,-3.9299,-3.9299,-3.9315,-3.9315,-3.9315,-3.9315,-3.9315,-3.9315,-3.9315,-3.9315,-3.9315,-3.9315,-3.9315,-3.9315,-3.9315,-3.9315,-3.9315,-3.9315,-3.9315,-3.9315,-3.9315,-3.9315,-3.9315,-3.9315,-3.9315,-3.9133,-3.9083,-3.8493,-3.8328,-3.8051,-3.755,-3.7308,-3.7435,-3.7574,-3.7598,-4.646,-4.5732,-4.5017,-4.4274,-4.3648,-4.3615,-4.3615,-4.3615,-4.3615,-4.3615,-4.3615,-4.3615,-4.3615,-4.3615,-4.3615,-4.3615,-4.3615,-4.3615,-4.3615,-4.3615,-4.3615,-4.3615,-4.3615,-4.3615,-4.3615,-4.3615,-4.3615,-4.3615,-4.3615,-4.3615,-4.3615,-4.3615,-4.3615,-4.3615,-4.3582,-4.3102,-4.2688,-4.239,-4.1309,-4.0597,-4.0359,-3.968,-3.9315,-3.9315,-3.9315,-3.9315,-3.9315,-3.9315,-3.9315,-3.9315,-3.9315,-3.9315,-3.9315,-3.9315,-3.9315,-3.9315,-3.9315,-3.9315,-3.9315,-3.9315,-3.9315,-3.9315,-3.9315,-3.9315,-3.9315,-3.9315,-3.9315,-3.9315,-3.9299,-3.9166,-3.9017,-3.8941,-3.8609,-3.7947,-3.788,-3.8129,-3.8725,-3.8907,-3.9067,-3.9232,-3.9315,-3.9315,-3.9315,-3.9315,-3.9315,-3.9315,-3.9315,-3.9315,-3.9315,-3.9315,-3.9315,-3.9315,-3.9315,-3.9315,-3.9315,-3.9315,-3.9315,-3.9315,-3.9315,-3.9315,-3.9315,-3.9315,-3.9315,-3.9315,-3.9315,-3.9299,-3.9249,-3.9133,-3.8874,-3.8831,-3.8494,-3.8447,-3.8547,-3.8472,-3.8332,-4.5814,-4.5301,-4.4589,-4.4042,-4.3615,-4.3615,-4.3615,-4.3615,-4.3615,-4.3615,-4.3615,-4.3615,-4.3615,-4.3615,-4.3615,-4.3615,-4.3615,-4.3615,-4.3615,-4.3615,-4.3615,-4.3615,-4.3615,-4.3615,-4.3615,-4.3615,-4.3615,-4.3615,-4.3615,-4.3615,-4.3615,-4.3615,-4.3615,-4.3615,-4.3532,-4.287,-4.239,-4.2005,-4.0978,-4.0276,-3.9962,-3.9547,-3.9315,-3.9315,-3.9315,-3.9315,-3.9315,-3.9315,-3.9315,-3.9315,-3.9315,-3.9315,-3.9315,-3.9315,-3.9315,-3.9315,-3.9315,-3.9315,-3.9315,-3.9315,-3.9315,-3.9315,-3.9315,-3.9315,-3.9315,-3.9315,-3.9315,-3.9315,-3.9315,-3.9315,-3.9299,-3.9299,-3.9083,-3.8676,-3.8609,-3.8808,-3.9232,-3.9315,-3.9299,-3.9315,-3.9315,-3.9315,-3.9315,-3.9315,-3.9315,-3.9315,-3.9315,-3.9315,-3.9315,-3.9315,-3.9315,-3.9315,-3.9315,-3.9315,-3.9315,-3.9315,-3.9315,-3.9315,-3.9315,-3.9315,-3.9315,-3.9315,-3.9315,-3.9315,-3.9315,-3.9315,-3.9265,-3.9282,-3.9166,-3.9202,-3.9175,-3.9028,-3.8875,-3.8799,-3.8673,-4.4735,-4.4605,-4.3896,-4.3648,-4.3615,-4.3615,-4.3615,-4.3615,-4.3615,-4.3615,-4.3615,-4.3615,-4.3615,-4.3615,-4.3615,-4.3615,-4.3615,-4.3615,-4.3615,-4.3615,-4.3615,-4.3615,-4.3615,-4.3615,-4.3615,-4.3615,-4.3615,-4.3615,-4.3615,-4.3615,-4.3615,-4.3615,-4.3615,-4.3549,-4.3317,-4.2771,-4.2038,-4.1359,-4.063,-3.9962,-3.9398,-3.9332,-3.9315,-3.9315,-3.9315,-3.9315,-3.9315,-3.9315,-3.9315,-3.9315,-3.9315,-3.9315,-3.9315,-3.9315,-3.9315,-3.9315,-3.9315,-3.9315,-3.9315,-3.9315,-3.9315,-3.9315,-3.9315,-3.9315,-3.9315,-3.9315,-3.9315,-3.9315,-3.9315,-3.9315,-3.9315,-3.9315,-3.9265,-3.9299,-3.9183,-3.9232,-3.9282,-3.9315,-3.9315,-3.9315,-3.9315,-3.9315,-3.9315,-3.9315,-3.9315,-3.9315,-3.9315,-3.9315,-3.9315,-3.9315,-3.9315,-3.9315,-3.9315,-3.9315,-3.9315,-3.9315,-3.9315,-3.9315,-3.9315,-3.9315,-3.9315,-3.9315,-3.9315,-3.9315,-3.9249,-3.9265,-3.9299,-3.9299,-3.9299,-3.9272,-3.9245,-3.9175,-3.8929,-3.8683,-3.8378,-4.4718,-4.4605,-4.391,-4.3615,-4.3615,-4.3615,-4.3615,-4.3615,-4.3615,-4.3615,-4.3615,-4.3615,-4.3615,-4.3615,-4.3615,-4.3615,-4.3615,-4.3615,-4.3615,-4.3615,-4.3615,-4.3615,-4.3615,-4.3615,-4.3615,-4.3615,-4.3615,-4.3615,-4.3615,-4.3615,-4.3615,-4.3615,-4.3598,-4.33,-4.2754,-4.2092,-4.1359,-4.0663,-3.9962,-3.9564,-3.9365,-3.9315,-3.9315,-3.9315,-3.9315,-3.9315,-3.9315,-3.9315,-3.9315,-3.9315,-3.9315,-3.9315,-3.9315,-3.9315,-3.9315,-3.9315,-3.9315,-3.9315,-3.9315,-3.9315,-3.9315,-3.9315,-3.9315,-3.9315,-3.9315,-3.9315,-3.9315,-3.9315,-3.9315,-3.9315,-3.9315,-3.9315,-3.9315,-3.9315,-3.9315,-3.9315,-3.9315,-3.9315,-3.9315,-3.9315,-3.9315,-3.9315,-3.9315,-3.9315,-3.9315,-3.9315,-3.9315,-3.9315,-3.9315,-3.9315,-3.9315,-3.9315,-3.9315,-3.9315,-3.9315,-3.9315,-3.9315,-3.9315,-3.9315,-3.9315,-3.9315,-3.9315,-3.9315,-3.9315,-3.9116,-3.9083,-3.9199,-3.9265,-3.9282,-3.8984,-3.8775,-3.8457,-3.82,-3.7923,-3.7574,-4.4241,-4.4224,-4.3764,-4.3615,-4.3615,-4.3615,-4.3615,-4.3615,-4.3615,-4.3615,-4.3615,-4.3615,-4.3615,-4.3615,-4.3615,-4.3615,-4.3615,-4.3615,-4.3615,-4.3615,-4.3615,-4.3615,-4.3615,-4.3615,-4.3615,-4.3615,-4.3615,-4.3615,-4.3615,-4.3615,-4.3615,-4.3615,-4.3615,-4.3218,-4.2506,-4.1789,-4.1061,-4.0409,-3.9696,-3.9315,-3.9315,-3.9315,-3.9315,-3.9315,-3.9315,-3.9315,-3.9315,-3.9315,-3.9315,-3.9315,-3.9315,-3.9315,-3.9315,-3.9315,-3.9315,-3.9315,-3.9315,-3.9315,-3.9315,-3.9315,-3.9315,-3.9315,-3.9315,-3.9315,-3.9315,-3.9315,-3.9315,-3.9315,-3.9315,-3.9315,-3.9315,-3.9315,-3.9315,-3.9315,-3.9315,-3.9315,-3.9315,-3.9315,-3.9315,-3.9315,-3.9315,-3.9315,-3.9315,-3.9315,-3.9315,-3.9315,-3.9315,-3.9315,-3.9315,-3.9315,-3.9315,-3.9315,-3.9315,-3.9315,-3.9315,-3.9315,-3.9216,-3.9216,-3.9,-3.9067,-3.9083,-3.9116,-3.9199,-3.9133,-3.8984,-3.8851,-3.8834,-3.8659,-3.8228,-3.798,-3.7822,-3.7739,-3.7514,-3.7208,-3.6843,-4.3615,-4.3615,-4.3615,-4.3615,-4.3615,-4.3615,-4.3615,-4.3615,-4.3615,-4.3615,-4.3615,-4.3615,-4.3615,-4.3615,-4.3615,-4.3615,-4.3615,-4.3615,-4.3615,-4.3615,-4.3615,-4.3615,-4.3615,-4.3615,-4.3615,-4.3615,-4.3615,-4.3615,-4.3615,-4.3615,-4.3615,-4.3549,-4.3515,-4.3035,-4.2241,-4.1607,-4.0961,-4.0227,-3.9613,-3.9315,-3.9315,-3.9315,-3.9315,-3.9315,-3.9315,-3.9315,-3.9315,-3.9315,-3.9315,-3.9315,-3.9315,-3.9315,-3.9315,-3.9315,-3.9315,-3.9315,-3.9315,-3.9315,-3.9315,-3.9315,-3.9315,-3.9315,-3.9315,-3.9315,-3.9282,-3.9199,-3.9067,-3.9023,-3.9116,-3.8967,-3.9116,-3.9199,-3.9315,-3.9315,-3.9315,-3.9315,-3.9315,-3.9315,-3.9315,-3.9315,-3.9315,-3.9315,-3.9315,-3.9315,-3.9315,-3.9315,-3.9315,-3.9315,-3.9315,-3.9315,-3.9315,-3.9315,-3.9315,-3.9315,-3.9315,-3.9315,-3.9166,-3.905,-3.8685,-3.8586,-3.8593,-3.8676,-3.8901,-3.8851,-3.8328,-3.8079,-3.8063,-3.7765,-3.735,-3.7218,-3.7251,-3.7119,-3.6895,-3.653,-3.615,-4.3615,-4.3615,-4.3615,-4.3615,-4.3615,-4.3615,-4.3615,-4.3615,-4.3615,-4.3615,-4.3615,-4.3615,-4.3615,-4.3615,-4.3615,-4.3615,-4.3615,-4.3615,-4.3615,-4.3615,-4.3615,-4.3615,-4.3615,-4.3615,-4.3615,-4.3615,-4.3615,-4.3615,-4.3615,-4.3615,-4.3615,-4.3549,-4.3035,-4.2373,-4.1678,-4.1061,-4.0276,-3.9647,-3.9365,-3.9315,-3.9315,-3.9342,-3.9325,-3.9325,-3.9325,-3.9299,-3.9315,-3.9315,-3.9315,-3.9315,-3.9315,-3.9315,-3.9315,-3.9315,-3.9315,-3.9315,-3.9315,-3.9315,-3.9315,-3.9315,-3.9315,-3.9315,-3.9315,-3.9299,-3.9249,-3.8758,-3.851,-3.8328,-3.7947,-3.798,-3.8477,-3.9017,-3.9216,-3.9282,-3.9315,-3.9315,-3.9315,-3.9315,-3.9315,-3.9315,-3.9315,-3.9315,-3.9315,-3.9315,-3.9315,-3.9315,-3.9315,-3.9315,-3.9315,-3.9315,-3.9315,-3.9315,-3.9315,-3.9265,-3.8984,-3.8884,-3.8593,-3.8493,-3.8195,-3.7831,-3.788,-3.798,-3.8063,-3.7864,-3.7483,-3.735,-3.7317,-3.7168,-3.682,-3.6754,-3.6605,-3.639,-3.6141,-3.5794,-3.5661,-4.3615,-4.3615,-4.3615,-4.3615,-4.3615,-4.3615,-4.3615,-4.3615,-4.3615,-4.3615,-4.3615,-4.3615,-4.3615,-4.3615,-4.3615,-4.3615,-4.3615,-4.3615,-4.3615,-4.3615,-4.3615,-4.3615,-4.3615,-4.3615,-4.3615,-4.3615,-4.3615,-4.3615,-4.3615,-4.3615,-4.3615,-4.3549,-4.2837,-4.2158,-4.1397,-4.0741,-4.0078,-3.9481,-3.9315,-3.9325,-3.9395,-3.9379,-3.9432,-3.9484,-3.9484,-3.9468,-3.9511,-3.9448,-3.9422,-3.9395,-3.9342,-3.9315,-3.9315,-3.9315,-3.9315,-3.9315,-3.9315,-3.9315,-3.9315,-3.9315,-3.9315,-3.9315,-3.9315,-3.9083,-3.8858,-3.8394,-3.8046,-3.7731,-3.745,-3.7391,-3.8129,-3.846,-3.8841,-3.9265,-3.9315,-3.9315,-3.9315,-3.9315,-3.9315,-3.9315,-3.9315,-3.9315,-3.9315,-3.9315,-3.9315,-3.9315,-3.9315,-3.9315,-3.9315,-3.9315,-3.9315,-3.9315,-3.9315,-3.9149,-3.8709,-3.8361,-3.7914,-3.7748,-3.7566,-3.7135,-3.6854,-3.6986,-3.7119,-3.6936,-3.6787,-3.6622,-3.6555,-3.6406,-3.6191,-3.5876,-3.5644,-3.5528,-3.5462,-3.533,-3.523,-4.3615,-4.3615,-4.3615,-4.3615,-4.3615,-4.3615,-4.3615,-4.3615,-4.3615,-4.3615,-4.3615,-4.3615,-4.3615,-4.3615,-4.3615,-4.3615,-4.3615,-4.3615,-4.3615,-4.3615,-4.3615,-4.3615,-4.3615,-4.3615,-4.3615,-4.3615,-4.3615,-4.3615,-4.3615,-4.3615,-4.3615,-4.3449,-4.2688,-4.1976,-4.1359,-4.058,-3.9922,-3.9418,-3.9352,-3.9405,-3.9511,-3.9537,-3.9573,-3.9625,-3.9651,-3.9651,-3.9625,-3.959,-3.9554,-3.9511,-3.9432,-3.9379,-3.9352,-3.9315,-3.9315,-3.9315,-3.9315,-3.9315,-3.9315,-3.9315,-3.9315,-3.9315,-3.9149,-3.8841,-3.8377,-3.788,-3.7417,-3.7152,-3.6887,-3.7052,-3.7781,-3.8195,-3.8526,-3.8967,-3.9199,-3.9315,-3.9315,-3.9315,-3.9315,-3.9315,-3.9315,-3.9315,-3.9315,-3.9315,-3.9315,-3.9315,-3.9315,-3.9282,-3.9265,-3.9232,-3.9199,-3.8974,-3.8891,-3.8543,-3.8112,-3.7533,-3.7119,-3.6953,-3.682,-3.6406,-3.5976,-3.6009,-3.6158,-3.6307,-3.6208,-3.6025,-3.581,-3.5628,-3.533,-3.4932,-3.4965,-3.5148,-3.5081,-3.4932,-3.4899,-4.3615,-4.3615,-4.3615,-4.3615,-4.3615,-4.3615,-4.3615,-4.3615,-4.3615,-4.3615,-4.3615,-4.3615,-4.3615,-4.3615,-4.3615,-4.3615,-4.3615,-4.3615,-4.3615,-4.3615,-4.3615,-4.3615,-4.3615,-4.3615,-4.3615,-4.3615,-4.3615,-4.3615,-4.3615,-4.3615,-4.3615,-4.3317,-4.2303,-4.1524,-4.1127,-4.0227,-3.9611,-3.9508,-3.9458,-3.9537,-3.9651,-3.9703,-3.9729,-3.9781,-3.9807,-3.9781,-3.9755,-3.9703,-3.9677,-3.9677,-3.9651,-3.9625,-3.9573,-3.9432,-3.9325,-3.9342,-3.9315,-3.9315,-3.9315,-3.9315,-3.9315,-3.9183,-3.8791,-3.8394,-3.7914,-3.7152,-3.6572,-3.629,-3.6191,-3.6274,-3.6373,-3.7334,-3.8086,-3.8493,-3.8858,-3.9249,-3.9282,-3.9315,-3.9315,-3.9315,-3.9315,-3.9315,-3.9315,-3.9315,-3.9315,-3.9315,-3.9315,-3.9183,-3.9067,-3.9,-3.8907,-3.8642,-3.8318,-3.7897,-3.74,-3.6738,-3.6224,-3.6092,-3.5909,-3.5611,-3.5263,-3.5131,-3.5197,-3.5545,-3.5562,-3.5346,-3.5114,-3.4982,-3.4949,-3.4899,-3.4899,-3.4899,-3.4899,-3.4899,-3.4899,-4.3615,-4.3615,-4.3615,-4.3615,-4.3615,-4.3615,-4.3615,-4.3615,-4.3615,-4.3615,-4.3615,-4.3615,-4.3615,-4.3615,-4.3615,-4.3615,-4.3615,-4.3615,-4.3615,-4.3615,-4.3615,-4.3615,-4.3615,-4.3615,-4.3615,-4.3615,-4.3615,-4.3615,-4.3615,-4.3615,-4.3615,-4.3251,-4.2125,-4.147,-4.1211,-4.0186,-3.9601,-3.9563,-3.9599,-3.9703,-3.991,-3.9995,-4.0113,-4.0113,-4.0113,-4.0121,-4.0096,-4.0037,-3.9986,-3.991,-3.9849,-3.9798,-3.9703,-3.9599,-3.9484,-3.9405,-3.9352,-3.9299,-3.9315,-3.9299,-3.9149,-3.8709,-3.8361,-3.7798,-3.7185,-3.6406,-3.5843,-3.5545,-3.5462,-3.5611,-3.6025,-3.6704,-3.7325,-3.8096,-3.8543,-3.8901,-3.9183,-3.9282,-3.9315,-3.9315,-3.9315,-3.9315,-3.9315,-3.9315,-3.9315,-3.9315,-3.9299,-3.91,-3.8825,-3.8626,-3.8477,-3.788,-3.7441,-3.7019,-3.6572,-3.6092,-3.5628,-3.5479,-3.533,-3.5015,-3.4899,-3.4916,-3.4916,-3.5065,-3.4932,-3.4899,-3.4916,-3.4932,-3.4916,-3.4899,-3.4899,-3.4899,-3.4899,-3.4899,-3.4899,-4.3615,-4.3615,-4.3615,-4.3615,-4.3615,-4.3615,-4.3615,-4.3615,-4.3615,-4.3615,-4.3615,-4.3615,-4.3615,-4.3615,-4.3615,-4.3615,-4.3615,-4.3615,-4.3615,-4.3615,-4.3615,-4.3615,-4.3615,-4.3615,-4.3615,-4.3615,-4.3615,-4.3615,-4.3615,-4.3615,-4.3615,-4.323,-4.217,-4.1543,-4.1344,-4.0244,-3.9816,-3.9729,-3.9781,-3.9935,-4.0188,-4.0387,-4.051,-4.051,-4.051,-4.0485,-4.0436,-4.0362,-4.0263,-4.0188,-4.0087,-3.9986,-3.9884,-3.9833,-3.9755,-3.9616,-3.9484,-3.9379,-3.9335,-3.9103,-3.8795,-3.8361,-3.793,-3.7119,-3.6439,-3.5909,-3.5512,-3.5032,-3.4949,-3.5131,-3.5595,-3.5943,-3.6572,-3.7367,-3.7963,-3.8394,-3.8858,-3.9133,-3.9299,-3.9315,-3.9299,-3.9282,-3.9265,-3.9315,-3.9315,-3.9116,-3.9073,-3.8742,-3.8477,-3.8063,-3.7731,-3.7003,-3.6473,-3.6042,-3.5694,-3.5495,-3.5214,-3.5148,-3.5098,-3.4949,-3.4899,-3.4899,-3.4899,-3.4899,-3.4899,-3.4899,-3.4899,-3.4899,-3.4899,-3.4899,-3.4899,-3.4899,-3.4899,-3.4899,-3.4899,-4.3615,-4.3615,-4.3615,-4.3615,-4.3615,-4.3615,-4.3615,-4.3615,-4.3615,-4.3615,-4.3615,-4.3615,-4.3615,-4.3615,-4.3615,-4.3615,-4.3615,-4.3615,-4.3615,-4.3615,-4.3615,-4.3615,-4.3615,-4.3615,-4.3615,-4.3615,-4.3615,-4.3615,-4.3615,-4.3615,-4.3645,-4.333,-4.2418,-4.1688,-4.1605,-4.0404,-3.9857,-3.9995,-4.0062,-4.0188,-4.0412,-4.051,-4.0534,-4.0541,-4.0541,-4.0566,-4.059,-4.0558,-4.051,-4.0485,-4.0461,-4.0436,-4.0387,-4.0288,-4.0163,-4.0011,-3.9807,-3.9616,-3.9361,-3.8926,-3.8375,-3.7849,-3.7102,-3.634,-3.586,-3.5413,-3.5098,-3.4965,-3.4899,-3.4949,-3.523,-3.5628,-3.6042,-3.6638,-3.735,-3.7864,-3.8361,-3.8808,-3.9017,-3.9083,-3.899,-3.9116,-3.9166,-3.9249,-3.9282,-3.904,-3.8791,-3.8427,-3.7888,-3.7367,-3.6953,-3.6241,-3.586,-3.5462,-3.533,-3.5048,-3.4965,-3.4899,-3.4899,-3.4899,-3.4899,-3.4899,-3.4899,-3.4899,-3.4899,-3.4899,-3.4899,-3.4899,-3.4899,-3.4899,-3.4899,-3.4899,-3.4899,-3.4899,-3.4899,-4.3615,-4.3615,-4.3615,-4.3615,-4.3615,-4.3615,-4.3615,-4.3615,-4.3615,-4.3615,-4.3615,-4.3615,-4.3615,-4.3615,-4.3615,-4.3615,-4.3615,-4.3615,-4.3615,-4.3615,-4.3615,-4.3615,-4.3615,-4.3615,-4.3615,-4.3615,-4.3615,-4.3615,-4.3615,-4.3628,-4.3628,-4.3514,-4.2487,-4.1783,-4.1703,-4.0581,-4.0163,-4.0196,-4.0362,-4.0534,-4.068,-4.0799,-4.0847,-4.0884,-4.0901,-4.0884,-4.0884,-4.0907,-4.0894,-4.0847,-4.084,-4.0752,-4.0631,-4.0534,-4.0461,-4.0286,-3.9814,-3.9379,-3.8982,-3.8663,-3.8053,-3.7236,-3.6455,-3.5966,-3.5486,-3.5131,-3.4899,-3.4899,-3.4899,-3.4899,-3.4899,-3.5181,-3.5578,-3.6092,-3.6688,-3.7119,-3.7649,-3.8278,-3.8609,-3.8659,-3.8676,-3.8676,-3.8742,-3.8934,-3.8834,-3.851,-3.8162,-3.7731,-3.6986,-3.6141,-3.5794,-3.5479,-3.5214,-3.5015,-3.5032,-3.4932,-3.4949,-3.4899,-3.4899,-3.4899,-3.4899,-3.4899,-3.4899,-3.4899,-3.4899,-3.4899,-3.4899,-3.4899,-3.4899,-3.4899,-3.4899,-3.4899,-3.4899,-3.4899,-3.4899,-4.3615,-4.3615,-4.3615,-4.3615,-4.3615,-4.3615,-4.3615,-4.3615,-4.3615,-4.3615,-4.3615,-4.3615,-4.3615,-4.3615,-4.3615,-4.3615,-4.3615,-4.3615,-4.3615,-4.3615,-4.3615,-4.3615,-4.3615,-4.3615,-4.3615,-4.3615,-4.3615,-4.3615,-4.3628,-4.3641,-4.3663,-4.3564,-4.24,-4.1864,-4.1526,-4.0832,-4.0238,-4.0485,-4.0673,-4.084,-4.0965,-4.1076,-4.1129,-4.1163,-4.1209,-4.1209,-4.1209,-4.1186,-4.1134,-4.1105,-4.1082,-4.0989,-4.0871,-4.0847,-4.0586,-4.0302,-3.9761,-3.9075,-3.8507,-3.7965,-3.7425,-3.6684,-3.5954,-3.5566,-3.5105,-3.4899,-3.4899,-3.4899,-3.4899,-3.4899,-3.4899,-3.4932,-3.5164,-3.5562,-3.5976,-3.6357,-3.6787,-3.7483,-3.7914,-3.793,-3.793,-3.793,-3.8079,-3.8411,-3.8328,-3.7996,-3.7566,-3.7052,-3.6257,-3.5313,-3.5181,-3.5065,-3.5015,-3.4899,-3.4899,-3.4899,-3.4899,-3.4899,-3.4899,-3.4899,-3.4899,-3.4899,-3.4899,-3.4899,-3.4899,-3.4899,-3.4899,-3.4899,-3.4899,-3.4899,-3.4899,-3.4899,-3.4899,-3.4899,-3.4899,-4.3615,-4.3615,-4.3615,-4.3615,-4.3615,-4.3615,-4.3615,-4.3615,-4.3615,-4.3615,-4.3615,-4.3615,-4.3615,-4.3615,-4.3615,-4.3615,-4.3615,-4.3615,-4.3615,-4.3615,-4.3615,-4.3615,-4.3615,-4.3615,-4.3615,-4.3615,-4.3598,-4.3598,-4.3625,-4.3656,-4.3352,-4.2765,-4.2283,-4.1796,-4.1322,-4.0773,-4.0544,-4.0769,-4.0959,-4.1059,-4.1134,-4.1203,-4.1209,-4.1232,-4.1209,-4.1209,-4.1209,-4.1232,-4.1255,-4.1226,-4.1226,-4.1203,-4.1134,-4.0995,-4.0649,-4.0135,-3.9543,-3.8763,-3.794,-3.7316,-3.6777,-3.6269,-3.5759,-3.5241,-3.498,-3.4923,-3.4899,-3.4899,-3.4899,-3.4899,-3.4899,-3.4916,-3.5015,-3.5181,-3.5512,-3.576,-3.6208,-3.6754,-3.7135,-3.7168,-3.7185,-3.7168,-3.7019,-3.7268,-3.7466,-3.7152,-3.6622,-3.6108,-3.5744,-3.5032,-3.4998,-3.4949,-3.4932,-3.4899,-3.4899,-3.4899,-3.4899,-3.4899,-3.4899,-3.4899,-3.4899,-3.4899,-3.4899,-3.4899,-3.4899,-3.4899,-3.4899,-3.4899,-3.4899,-3.4899,-3.4899,-3.4899,-3.4899,-3.4899,-3.4899,-4.3615,-4.3615,-4.3615,-4.3615,-4.3615,-4.3615,-4.3615,-4.3615,-4.3615,-4.3615,-4.3615,-4.3615,-4.3615,-4.3615,-4.3615,-4.3615,-4.3615,-4.3615,-4.3615,-4.3615,-4.3615,-4.3615,-4.3615,-4.3615,-4.3615,-4.3615,-4.3598,-4.3704,-4.3776,-4.3573,-4.2964,-4.2456,-4.2233,-4.1871,-4.1359,-4.0878,-4.0862,-4.0959,-4.1123,-4.1203,-4.1295,-4.1318,-4.1363,-4.1431,-4.1431,-4.1453,-4.1453,-4.1453,-4.1471,-4.1431,-4.1431,-4.1351,-4.1183,-4.0922,-4.0453,-3.9837,-3.918,-3.8256,-3.7575,-3.6973,-3.6569,-3.5883,-3.5412,-3.5081,-3.5034,-3.4987,-3.4923,-3.4899,-3.4923,-3.4947,-3.4899,-3.4899,-3.4932,-3.4982,-3.5114,-3.533,-3.5628,-3.6158,-3.6373,-3.6423,-3.6423,-3.6423,-3.6208,-3.6009,-3.6208,-3.6274,-3.5711,-3.5263,-3.5048,-3.4899,-3.4899,-3.4899,-3.4899,-3.4899,-3.4899,-3.4899,-3.4899,-3.4899,-3.4899,-3.4899,-3.4899,-3.4899,-3.4899,-3.4899,-3.4899,-3.4899,-3.4899,-3.4899,-3.4899,-3.4899,-3.4899,-3.4899,-3.4899,-3.4899,-3.4899,-4.3615,-4.3615,-4.3615,-4.3615,-4.3615,-4.3615,-4.3615,-4.3615,-4.3615,-4.3615,-4.3615,-4.3615,-4.3615,-4.3615,-4.3615,-4.3615,-4.3615,-4.3615,-4.3615,-4.3615,-4.3615,-4.3615,-4.3615,-4.3615,-4.3615,-4.3615,-4.3628,-4.3704,-4.3835,-4.3304,-4.2758,-4.2351,-4.2049,-4.1664,-4.1196,-4.1054,-4.1029,-4.1152,-4.1244,-4.134,-4.1448,-4.1471,-4.1493,-4.1582,-4.1582,-4.1582,-4.1565,-4.156,-4.1582,-4.1582,-4.1547,-4.1397,-4.1077,-4.0631,-4.0097,-3.9351,-3.8589,-3.7721,-3.7279,-3.6794,-3.6271,-3.5695,-3.5427,-3.5245,-3.5152,-3.5081,-3.5081,-3.5041,-3.5018,-3.5011,-3.497,-3.497,-3.4947,-3.4973,-3.4949,-3.5098,-3.5164,-3.5495,-3.5595,-3.5678,-3.5678,-3.5678,-3.5611,-3.5429,-3.5528,-3.5644,-3.5396,-3.5098,-3.4998,-3.4899,-3.4899,-3.4899,-3.4899,-3.4899,-3.4899,-3.4899,-3.4899,-3.4899,-3.4899,-3.4899,-3.4899,-3.4899,-3.4899,-3.4899,-3.4899,-3.4899,-3.4899,-3.4899,-3.4899,-3.4899,-3.4899,-3.4899,-3.4899,-3.4899,-3.4899,-4.3615,-4.3615,-4.3615,-4.3615,-4.3615,-4.3615,-4.3615,-4.3615,-4.3615,-4.3615,-4.3615,-4.3615,-4.3615,-4.3615,-4.3615,-4.3615,-4.3615,-4.3615,-4.3615,-4.3615,-4.3615,-4.3615,-4.3615,-4.3615,-4.3615,-4.3598,-4.3641,-4.373,-4.3794,-4.3176,-4.2667,-4.2185,-4.1759,-4.1322,-4.0661,-4.0922,-4.1169,-4.1358,-4.138,-4.1471,-4.1538,-4.156,-4.1582,-4.1604,-4.1604,-4.1604,-4.1604,-4.1604,-4.1604,-4.1604,-4.1446,-4.1161,-4.067,-4.0336,-3.9578,-3.84,-3.8128,-3.7539,-3.6817,-3.6208,-3.589,-3.5701,-3.5543,-3.5429,-3.5337,-3.5268,-3.5245,-3.5182,-3.5238,-3.5198,-3.5152,-3.5105,-3.5018,-3.497,-3.4947,-3.4939,-3.5022,-3.5032,-3.5197,-3.528,-3.5098,-3.4965,-3.4965,-3.4965,-3.4982,-3.5015,-3.4949,-3.4899,-3.4899,-3.4899,-3.4899,-3.4899,-3.4899,-3.4899,-3.4899,-3.4899,-3.4899,-3.4899,-3.4899,-3.4899,-3.4899,-3.4899,-3.4899,-3.4899,-3.4899,-3.4899,-3.4899,-3.4899,-3.4899,-3.4899,-3.4899,-3.4899,-3.4899,-3.4899,-3.4899,-4.3615,-4.3615,-4.3615,-4.3615,-4.3615,-4.3615,-4.3615,-4.3615,-4.3615,-4.3615,-4.3615,-4.3615,-4.3615,-4.3615,-4.3615,-4.3615,-4.3615,-4.3615,-4.3615,-4.3615,-4.3615,-4.3615,-4.3615,-4.3615,-4.3615,-4.3628,-4.37,-4.3515,-4.3287,-4.278,-4.224,-4.1741,-4.1414,-4.1085,-4.1004,-4.1186,-4.1358,-4.1386,-4.1471,-4.156,-4.1604,-4.1604,-4.1604,-4.1604,-4.1604,-4.1604,-4.1604,-4.1604,-4.1569,-4.1446,-4.1236,-4.0748,-4.0186,-3.9782,-3.8743,-3.7988,-3.7717,-3.7186,-3.6763,-3.6377,-3.6062,-3.591,-3.5751,-3.5639,-3.5526,-3.5396,-3.5367,-3.5321,-3.536,-3.5314,-3.5245,-3.5245,-3.5175,-3.5065,-3.5034,-3.497,-3.498,-3.4956,-3.4998,-3.5015,-3.4899,-3.4899,-3.4899,-3.4899,-3.4899,-3.4899,-3.4899,-3.4899,-3.4899,-3.4899,-3.4899,-3.4899,-3.4899,-3.4899,-3.4899,-3.4899,-3.4899,-3.4899,-3.4899,-3.4899,-3.4899,-3.4899,-3.4899,-3.4899,-3.4899,-3.4899,-3.4899,-3.4899,-3.4899,-3.4899,-3.4899,-3.4899,-3.4899,-3.4899,-3.4899,-4.3615,-4.3615,-4.3615,-4.3615,-4.3615,-4.3615,-4.3615,-4.3615,-4.3615,-4.3615,-4.3615,-4.3615,-4.3615,-4.3615,-4.3615,-4.3615,-4.3615,-4.3615,-4.3615,-4.3615,-4.3615,-4.3615,-4.3615,-4.3615,-4.3615,-4.3608,-4.3444,-4.3268,-4.3009,-4.226,-4.1732,-4.1304,-4.1082,-4.1139,-4.1215,-4.1312,-4.1426,-4.1471,-4.156,-4.1582,-4.1604,-4.1604,-4.1604,-4.1604,-4.1604,-4.1604,-4.1604,-4.1569,-4.1464,-4.1183,-4.0783,-4.0204,-3.9571,-3.8831,-3.797,-3.7637,-3.7299,-3.6888,-3.6731,-3.6606,-3.636,-3.6272,-3.6036,-3.5861,-3.5756,-3.5689,-3.5622,-3.5594,-3.5526,-3.5458,-3.5435,-3.5435,-3.5321,-3.5228,-3.5105,-3.5041,-3.4994,-3.497,-3.4899,-3.4899,-3.4899,-3.4899,-3.4899,-3.4899,-3.4899,-3.4899,-3.4899,-3.4899,-3.4899,-3.4899,-3.4899,-3.4899,-3.4899,-3.4899,-3.4899,-3.4899,-3.4899,-3.4899,-3.4899,-3.4899,-3.4899,-3.4899,-3.4899,-3.4899,-3.4899,-3.4899,-3.4899,-3.4899,-3.4899,-3.4899,-3.4899,-3.4899,-3.4899,-3.4899,-3.4899,-4.3615,-4.3615,-4.3615,-4.3615,-4.3615,-4.3615,-4.3615,-4.3615,-4.3615,-4.3615,-4.3615,-4.3615,-4.3615,-4.3615,-4.3615,-4.3615,-4.3615,-4.3615,-4.3615,-4.3615,-4.3615,-4.3615,-4.3615,-4.3615,-4.3499,-4.3326,-4.314,-4.2907,-4.278,-4.1873,-4.1203,-4.1082,-4.1151,-4.1244,-4.1318,-4.1426,-4.1493,-4.156,-4.1582,-4.1604,-4.1604,-4.1604,-4.1604,-4.1604,-4.1604,-4.1604,-4.1604,-4.1587,-4.12,-4.0836,-4.0432,-3.9463,-3.8708,-3.8111,-3.7602,-3.7213,-3.6923,-3.6869,-3.6811,-3.6708,-3.6647,-3.6523,-3.6255,-3.6084,-3.6019,-3.6036,-3.5975,-3.5932,-3.5905,-3.5778,-3.5689,-3.56,-3.5509,-3.5367,-3.5198,-3.5111,-3.5065,-3.5018,-3.4923,-3.4899,-3.4899,-3.4899,-3.4899,-3.4899,-3.4899,-3.4899,-3.4899,-3.4899,-3.4899,-3.4899,-3.4899,-3.4899,-3.4899,-3.4899,-3.4899,-3.4899,-3.4899,-3.4899,-3.4899,-3.4899,-3.4899,-3.4899,-3.4899,-3.4899,-3.4899,-3.4899,-3.4899,-3.4899,-3.4899,-3.4899,-3.4899,-3.4899,-3.4899,-3.4899,-3.4899,-4.3615,-4.3615,-4.3615,-4.3615,-4.3615,-4.3615,-4.3615,-4.3615,-4.3615,-4.3615,-4.3615,-4.3615,-4.3615,-4.3615,-4.3615,-4.3615,-4.3615,-4.3615,-4.3615,-4.3615,-4.3615,-4.3615,-4.3582,-4.3499,-4.3284,-4.3003,-4.2727,-4.2339,-4.1721,-4.1044,-4.1064,-4.1099,-4.1221,-4.134,-4.1426,-4.1493,-4.1538,-4.1582,-4.1604,-4.1604,-4.1604,-4.1604,-4.1604,-4.1604,-4.1604,-4.1604,-4.1604,-4.1604,-4.1183,-4.059,-3.9937,-3.9076,-3.8286,-3.7637,-3.7112,-3.7077,-3.6968,-3.6948,-3.6928,-3.6849,-3.6786,-3.6766,-3.6564,-3.6461,-3.6398,-3.6356,-3.6297,-3.6272,-3.6208,-3.6079,-3.5954,-3.5844,-3.5711,-3.5509,-3.5344,-3.5228,-3.5158,-3.5041,-3.497,-3.4899,-3.4899,-3.4899,-3.4899,-3.4899,-3.4899,-3.4899,-3.4899,-3.4899,-3.4899,-3.4899,-3.4899,-3.4899,-3.4899,-3.4899,-3.4899,-3.4899,-3.4899,-3.4899,-3.4899,-3.4899,-3.4899,-3.4899,-3.4899,-3.4899,-3.4899,-3.4899,-3.4899,-3.4899,-3.4899,-3.4899,-3.4899,-3.4899,-3.4899,-3.4899,-3.4899,-4.3615,-4.3615,-4.3615,-4.3615,-4.3615,-4.3615,-4.3615,-4.3615,-4.3615,-4.3615,-4.3615,-4.3615,-4.3615,-4.3615,-4.3615,-4.3615,-4.3615,-4.3615,-4.3615,-4.3615,-4.3565,-4.3333,-4.3267,-4.3102,-4.2746,-4.243,-4.2078,-4.1711,-4.1136,-4.0962,-4.0959,-4.1146,-4.1335,-4.1426,-4.1493,-4.156,-4.1582,-4.1604,-4.1604,-4.1604,-4.1604,-4.1604,-4.1604,-4.1604,-4.1604,-4.1604,-4.1604,-4.1604,-4.1078,-4.0217,-3.9424,-3.876,-3.7935,-3.7218,-3.7025,-3.6989,-3.697,-3.697,-3.697,-3.693,-3.6871,-3.6869,-3.6846,-3.6786,-3.6687,-3.6606,-3.6544,-3.6499,-3.6437,-3.6353,-3.6229,-3.6101,-3.5888,-3.5689,-3.5509,-3.5344,-3.5205,-3.5065,-3.4994,-3.4923,-3.4899,-3.4899,-3.4899,-3.4899,-3.4899,-3.4899,-3.4899,-3.4899,-3.4899,-3.4899,-3.4899,-3.4899,-3.4899,-3.4899,-3.4899,-3.4899,-3.4899,-3.4899,-3.4899,-3.4899,-3.4899,-3.4899,-3.4899,-3.4899,-3.4899,-3.4899,-3.4899,-3.4899,-3.4899,-3.4899,-3.4899,-3.4899,-3.4899,-3.4899,-3.4899,-4.3615,-4.3615,-4.3615,-4.3615,-4.3615,-4.3615,-4.3615,-4.3582,-4.3499,-4.3549,-4.3582,-4.3615,-4.3615,-4.3615,-4.3615,-4.3615,-4.3615,-4.3615,-4.3466,-4.3515,-4.3367,-4.3052,-4.2539,-4.2402,-4.2107,-4.1599,-4.1301,-4.1276,-4.118,-4.1057,-4.1065,-4.1209,-4.1363,-4.1471,-4.156,-4.1582,-4.1604,-4.1604,-4.1604,-4.1604,-4.1604,-4.1604,-4.1604,-4.1604,-4.1604,-4.1604,-4.1604,-4.1358,-4.0898,-3.9884,-3.9129,-3.855,-3.7604,-3.706,-3.7007,-3.6989,-3.6989,-3.6989,-3.6989,-3.697,-3.697,-3.697,-3.6989,-3.6948,-3.6869,-3.6788,-3.6728,-3.6705,-3.6664,-3.6564,-3.6461,-3.6276,-3.6084,-3.5888,-3.5689,-3.5526,-3.5367,-3.5205,-3.5018,-3.4947,-3.4899,-3.4899,-3.4899,-3.4899,-3.4899,-3.4899,-3.4899,-3.4899,-3.4899,-3.4899,-3.4899,-3.4899,-3.4899,-3.4899,-3.4899,-3.4899,-3.4899,-3.4899,-3.4899,-3.4899,-3.4899,-3.4899,-3.4899,-3.4899,-3.4899,-3.4899,-3.4899,-3.4899,-3.4899,-3.4899,-3.4899,-3.4899,-3.4899,-3.4899,-3.4899,-4.3615,-4.3615,-4.3615,-4.3615,-4.3598,-4.3615,-4.3582,-4.3532,-4.2986,-4.3052,-4.3499,-4.3565,-4.3532,-4.3416,-4.34,-4.34,-4.3449,-4.3251,-4.3201,-4.2903,-4.2754,-4.2357,-4.1851,-4.1775,-4.1477,-4.1115,-4.0932,-4.1011,-4.1035,-4.1086,-4.1203,-4.134,-4.1471,-4.156,-4.1604,-4.1604,-4.1604,-4.1604,-4.1604,-4.1604,-4.1604,-4.1604,-4.1604,-4.1604,-4.1604,-4.1604,-4.1604,-4.1534,-4.0674,-3.9617,-3.9392,-3.8462,-3.713,-3.7042,-3.6989,-3.6989,-3.6989,-3.6989,-3.6989,-3.6989,-3.6989,-3.6989,-3.6989,-3.6989,-3.6968,-3.6948,-3.6926,-3.6886,-3.6829,-3.6748,-3.6647,-3.6464,-3.6259,-3.6045,-3.5866,-3.5711,-3.5549,-3.5297,-3.5065,-3.4994,-3.4923,-3.4899,-3.4899,-3.4899,-3.4899,-3.4899,-3.4899,-3.4899,-3.4899,-3.4899,-3.4899,-3.4899,-3.4899,-3.4899,-3.4899,-3.4899,-3.4899,-3.4899,-3.4899,-3.4899,-3.4899,-3.4899,-3.4899,-3.4899,-3.4899,-3.4899,-3.4899,-3.4899,-3.4899,-3.4899,-3.4899,-3.4899,-3.4899,-3.4899,-3.4899,-4.3615,-4.3565,-4.3234,-4.3118,-4.3052,-4.2754,-4.2622,-4.2539,-4.2175,-4.2208,-4.2572,-4.2622,-4.2622,-4.2638,-4.2622,-4.2704,-4.2688,-4.2589,-4.2307,-4.2059,-4.1955,-4.1558,-4.1299,-4.11,-4.0727,-4.0454,-4.0704,-4.0827,-4.0946,-4.1088,-4.1272,-4.1386,-4.1538,-4.1604,-4.1604,-4.1604,-4.1604,-4.1604,-4.1604,-4.1604,-4.1604,-4.1604,-4.1604,-4.1604,-4.1604,-4.1604,-4.1604,-4.1516,-4.0674,-3.9427,-3.8673,-3.8023,-3.713,-3.7007,-3.6989,-3.6989,-3.6989,-3.6989,-3.6989,-3.6989,-3.6989,-3.6989,-3.6989,-3.6989,-3.6989,-3.6968,-3.6968,-3.6948,-3.6928,-3.6869,-3.6768,-3.6609,-3.6426,-3.6237,-3.6088,-3.5954,-3.5622,-3.5297,-3.5135,-3.5058,-3.497,-3.4899,-3.4899,-3.4899,-3.4899,-3.4899,-3.4899,-3.4899,-3.4899,-3.4899,-3.4899,-3.4899,-3.4899,-3.4899,-3.4899,-3.4899,-3.4899,-3.4899,-3.4899,-3.4899,-3.4899,-3.4899,-3.4899,-3.4899,-3.4899,-3.4899,-3.4899,-3.4899,-3.4899,-3.4899,-3.4899,-3.4899,-3.4899,-3.4899,-3.4899,-4.3267,-4.3218,-4.2622,-4.2357,-4.2258,-4.1695,-4.1463,-4.143,-4.1342,-4.1276,-4.1309,-4.1226,-4.121,-4.1364,-4.1397,-4.1397,-4.1513,-4.1778,-4.1574,-4.1326,-4.1293,-4.0857,-4.0574,-4.039,-4.022,-4.0281,-4.0491,-4.0758,-4.0965,-4.1157,-4.1318,-4.1408,-4.1515,-4.1604,-4.1604,-4.1604,-4.1604,-4.1604,-4.1604,-4.1604,-4.1604,-4.1604,-4.1604,-4.1604,-4.1604,-4.1604,-4.1604,-4.1376,-4.0705,-3.941,-3.8058,-3.7393,-3.7112,-3.6989,-3.6989,-3.6989,-3.6989,-3.6989,-3.6989,-3.6989,-3.6989,-3.6989,-3.6989,-3.6989,-3.6989,-3.7009,-3.7009,-3.7009,-3.7007,-3.6968,-3.6851,-3.6751,-3.6588,-3.6426,-3.6301,-3.6088,-3.5711,-3.5367,-3.5251,-3.5158,-3.5065,-3.497,-3.497,-3.497,-3.4947,-3.4923,-3.4923,-3.4923,-3.4899,-3.4899,-3.4899,-3.4899,-3.4899,-3.4899,-3.4899,-3.4899,-3.4899,-3.4899,-3.4899,-3.4899,-3.4899,-3.4899,-3.4899,-3.4899,-3.4899,-3.4899,-3.4899,-3.4899,-3.4899,-3.4899,-3.4899,-3.4899,-3.4899,-3.4899,-3.4899,-4.1839,-4.1823,-4.1674,-4.1595,-4.1591,-4.1442,-4.1397,-4.1309,-4.0779,-4.058,-4.0448,-4.0078,-4.0216,-4.138,-4.1397,-4.1326,-4.1061,-4.1177,-4.0928,-4.0663,-4.0608,-4.0182,-3.9984,-4.006,-4.0104,-4.0339,-4.0631,-4.0901,-4.1088,-4.1272,-4.1408,-4.156,-4.156,-4.1604,-4.1604,-4.1604,-4.1604,-4.1604,-4.1604,-4.1604,-4.1604,-4.1604,-4.1604,-4.1604,-4.1604,-4.1604,-4.1604,-4.1604,-4.0674,-3.9357,-3.797,-3.7288,-3.6989,-3.6989,-3.6989,-3.6989,-3.6989,-3.6989,-3.6989,-3.6989,-3.6989,-3.6989,-3.6989,-3.7009,-3.7029,-3.7069,-3.7069,-3.7069,-3.7068,-3.7029,-3.695,-3.6869,-3.671,-3.6588,-3.6447,-3.611,-3.5739,-3.5577,-3.5458,-3.5344,-3.5228,-3.5198,-3.5175,-3.5152,-3.5065,-3.5018,-3.497,-3.4947,-3.4923,-3.4899,-3.4899,-3.4899,-3.4899,-3.4899,-3.4899,-3.4899,-3.4899,-3.4899,-3.4899,-3.4899,-3.4899,-3.4899,-3.4899,-3.4899,-3.4899,-3.4899,-3.4899,-3.4899,-3.4899,-3.4899,-3.4899,-3.4899,-3.4899,-3.4899,-3.4899]},{"header":{"parameterUnit":"m.s-1","parameterCategory":1,"la1":31.0,"la2":29.5877,"lo1":-88.7671,"lo2":-86.6584,"dy":0.0162,"dx":0.0185,"nx":115,"ny":88,"refTime":"2023-08-11T06:00:00:Z","depth":0,"parameterNumber":3,"parameterNumberName":"V-component_of_WINDS"},"data":[0.0,0.0,0.0,0.0,0.0,0.0,0.0,0.0,0.0,0.0,0.0,0.0,0.0,0.0,0.0,0.0,0.0,0.0,0.0,0.0,0.0,0.0,0.0,0.0,0.0,0.0,0.0,0.0,0.0,0.0,0.0,0.0,0.0,0.0,0.0,0.0,0.0,0.0,0.0,0.0,0.0,0.0,0.0,0.0,0.0,0.0,0.0,0.0,0.0,0.0,0.0,0.0,0.0,0.0,0.0,0.0,0.0,0.0,0.0,0.0,0.0,0.0,0.0,0.0,0.0,0.0,0.0,0.0,0.0,0.0,0.0,0.0,0.0,0.0,0.0,0.0,0.0,0.0,0.0,0.0,0.0,0.0,0.0,0.0,0.0,0.0,0.0,0.0,0.0,0.0,0.0,0.0,0.0,0.0,0.0,0.0,0.0,0.0,0.0,0.0,0.0,0.0,0.0,0.0,0.0,0.0,0.0,0.0,0.0,0.0,0.0,0.0,0.0,0.0,0.0,0.0,0.0,0.0,0.0,0.0,0.0,0.0,0.0,0.0,0.0,0.0,0.0,0.0,0.0,0.0,0.0,0.0,0.0,0.0,0.0,0.0,0.0,0.0,0.0,0.0,0.0,0.0,0.0,0.0,0.0,0.0,0.0,0.0,0.0,0.0,0.0,0.0,0.0,0.0,0.0,0.0,0.0,0.0,0.0,0.0,0.0,0.0,0.0,0.0,0.0,0.0,0.0,0.0,0.0,0.0,0.0,0.0,0.0,0.0,0.0,0.0,0.0,0.0,0.0,0.0,0.0,0.0,0.0,0.0,0.0,0.0,0.0,0.0,0.0,0.0,0.0,0.0,0.0,0.0,0.0,0.0,0.0,0.0,0.0,0.0,0.0,0.0,0.0,0.0,0.0,0.0,0.0,0.0,0.0,0.0,0.0,0.0,0.0,0.0,0.0,0.0,0.0,0.0,0.0,0.0,0.0,0.0,0.0,0.0,0.0,0.0,0.0,0.0,0.0,0.0,0.0,0.0,0.0,0.0,0.0,0.0,0.0,0.0,0.0,0.0,0.0,0.0,0.0,0.0,0.0,0.0,0.0,0.0,0.0,0.0,0.0,0.0,0.0,0.0,0.0,0.0,0.0,0.0,0.0,0.0,0.0,0.0,0.0,0.0,0.0,0.0,0.0,0.0,0.0,0.0,0.0,0.0,0.0,0.0,0.0,0.0,0.0,0.0,0.0,0.0,0.0,0.0,0.0,0.0,0.0,0.0,0.0,0.0,0.0,0.0,0.0,0.0,0.0,0.0,0.0,0.0,0.0,0.0,0.0,0.0,0.0,0.0,0.0,0.0,0.0,0.0,0.0,0.0,0.0,0.0,0.0,0.0,0.0,0.0,0.0,0.0,0.0,0.0,0.0,0.0,0.0,0.0,0.0,0.0,0.0,0.0,0.0,0.0,0.0,0.0,0.0,0.0,0.0,0.0,0.0,0.0,0.0,0.0,0.0,0.0,0.0,0.0,0.0,0.0,0.0,0.0,0.0,0.0,0.0,0.0,0.0,0.0,0.0,0.0,0.0,0.0,0.0,0.0,0.0,0.0,0.0,0.0,0.0,0.0,0.0,0.0,0.0,0.0,0.0,0.0,0.0,0.0,0.0,0.0,0.0,0.0,0.0,0.0,0.0,0.0,0.0,0.0,0.0,0.0,0.0,0.0,0.0,0.0,0.0,0.0,0.0,0.0,0.0,0.0,0.0,0.0,0.0,0.0,0.0,0.0,0.0,0.0,0.0,0.0,0.0,0.0,0.0,0.0,0.0,0.0,0.0,0.0,0.0,0.0,0.0,0.0,0.0,0.0,0.0,0.0,0.0,0.0,0.0,0.0,0.0,0.0,0.0,0.0,0.0,0.0,0.0,0.0,0.0,0.0,0.0,0.0,0.0,0.0,0.0,0.0,0.0,0.0,0.0,0.0,0.0,0.0,0.0,0.0,0.0,0.0,0.0,0.0,0.0,0.0,0.0,0.0,0.0,0.0,0.0,0.0,0.0,0.0,0.0,0.0,0.0,0.0,0.0,0.0,0.0,0.0,0.0,0.0,0.0,0.0,0.0,0.0,0.0,0.0,0.0,0.0,0.0,0.0,0.0,0.0,0.0,0.0,0.0,0.0,0.0,0.0,0.0,0.0,0.0,0.0,0.0,0.0,0.0,0.0,0.0,0.0,0.0,0.0,0.0,0.0,0.0,0.0,0.0,0.0,0.0,0.0,0.0,0.0,0.0,0.0,0.0,0.0,0.0,0.0,0.0,0.0,0.0,0.0,0.0,0.0,0.0,0.0,0.0,0.0,0.0,0.0,0.0,0.0,0.0,0.0,0.0,0.0,0.0,0.0,0.0,0.0,0.0,0.0,0.0,0.0,0.0,0.0,0.0,0.0,0.0,0.0,0.0,0.0,0.0,0.0,0.0,0.0,0.0,0.0,0.0,0.0,0.0,0.0,0.0,0.0,0.0,0.0,0.0,0.0,0.0,0.0,0.0,0.0,0.0,0.0,0.0,0.0,0.0,0.0,0.0,0.0,0.0,0.0,0.0,0.0,0.0,0.0,0.0,0.0,0.0,0.0,0.0,0.0,0.0,0.0,0.0,0.0,0.0,0.0,0.0,0.0,0.0,0.0,0.0,0.0,0.0,0.0,0.0,0.0,0.0,0.0,0.0,0.0,0.0,0.0,0.0,0.0,0.0,0.0,0.0,0.0,0.0,0.0,0.0,0.0,0.0,0.0,0.0,0.0,0.0,0.0,0.0,0.0,0.0,0.0,0.0,0.0,0.0,0.0,0.0,0.0,0.0,0.0,0.0,0.0,0.0,0.0,0.0,0.0,0.0,0.0,0.0,0.0,0.0,0.0,0.0,0.0,0.0,0.0,0.0,0.0,0.0,0.0,0.0,0.0,0.0,0.0,0.0,0.0,0.0,0.0,0.0,0.0,0.0,0.0,0.0,0.0,0.0,0.0,0.0,0.0,0.0,0.0,0.0,0.0,0.0,0.0,0.0,0.0,0.0,0.0,0.0,0.0,0.0,0.0,0.0,0.0,0.0,0.0,0.0,0.0,0.0,0.0,0.0,0.0,0.0,0.0,0.0,0.0,0.0,0.0,0.0,0.0,0.0,0.0,0.0,0.0,0.0,0.0,0.0,0.0,0.0,0.0,0.0,0.0,0.0,0.0,0.0,0.0,0.0,0.0,0.0,0.0,0.0,0.0,0.0,0.0,0.0,0.0,0.0,0.0,0.0,0.0,0.0,0.0,0.0,0.0,0.0,0.0,0.0,0.0,0.0,0.0,0.0,0.0,0.0,0.0,0.0,0.0,0.0,0.0,0.0,0.0,0.0,0.0,0.0,0.0,0.0,0.0,0.0,0.0,0.0,0.0,0.0,0.0,0.0,0.0,0.0,0.0,0.0,0.0,0.0,0.0,0.0,0.0,0.0,0.0,0.0,0.0,0.0,0.0,0.0,0.0,0.0,0.0,0.0,0.0,0.0,0.0,0.0,0.0,0.0,0.0,0.0,0.0,0.0,0.0,0.0,0.0,0.0,0.0,0.0,0.0,0.0,0.0,0.0,0.0,0.0,0.0,0.0,0.0,0.0,0.0,0.0,0.0,0.0,0.0,0.0,0.0,0.0,0.0,0.0,0.0,0.0,0.0,0.0,0.0,0.0,0.0,0.0,0.0,0.0,0.0,0.0,0.0,0.0,0.0,0.0,0.0,0.0,0.0,0.0,0.0,0.0,0.0,0.0,0.0,0.0,0.0,0.0,0.0,0.0,0.0,0.0,0.0,0.0,0.0,0.0,0.0,0.0,0.0,0.0,0.0,0.0,0.0,0.0,0.0,0.0,0.0,0.0,0.0,0.0,0.0,0.0,0.0,0.0,0.0,0.0,0.0,0.0,0.0,0.0,0.0,0.0,0.0,0.0,0.0,0.0,0.0,0.0,0.0,0.0,0.0,0.0,0.0,0.0,0.0,0.0,0.0,0.0,0.0,0.0,0.0,0.0,0.0,0.0,0.0,0.0,0.0,0.0,0.0,0.0,0.0,0.0,0.0,0.0,0.0,0.0,0.0,0.0,0.0,0.0,0.0,0.0,0.0,0.0,0.0,0.0,0.0,0.0,0.0,0.0,0.0,0.0,0.0,0.0,0.0,0.0,0.0,0.0,0.0,0.0,0.0,0.0,0.0,0.0,0.0,0.0,0.0,0.0,0.0,0.0,0.0,0.0,0.0,0.0,0.0,-0.9614,0.0,0.0,0.0,0.0,0.0,0.0,0.0,0.0,0.0,0.0,0.0,0.0,0.0,0.0,0.0,0.0,0.0,0.0,0.0,0.0,0.0,0.0,0.0,0.0,0.0,0.0,0.0,0.0,0.0,0.0,0.0,0.0,0.0,0.0,0.0,0.0,0.0,0.0,0.0,0.0,0.0,0.0,0.0,0.0,0.0,0.0,0.0,0.0,0.0,0.0,0.0,0.0,0.0,0.0,0.0,0.0,0.0,0.0,0.0,0.0,0.0,0.0,0.0,0.0,0.0,0.0,0.0,0.0,0.0,0.0,0.0,0.0,0.0,0.0,0.0,0.0,0.0,0.0,0.0,0.0,0.0,0.0,0.0,0.0,0.0,0.0,0.0,0.0,0.0,0.0,0.0,0.0,0.0,0.0,0.0,0.0,0.0,0.0,0.0,0.0,0.0,0.0,0.0,0.0,0.0,0.0,0.0,0.0,0.0,0.0,-0.987,-0.9705,-0.9984,-1.0121,-1.0102,0.0,0.0,0.0,0.0,0.0,0.0,0.0,0.0,0.0,0.0,0.0,0.0,0.0,0.0,0.0,0.0,0.0,0.0,0.0,0.0,0.0,0.0,0.0,0.0,0.0,0.0,0.0,0.0,0.0,0.0,0.0,0.0,0.0,0.0,0.0,0.0,0.0,0.0,0.0,0.0,0.0,0.0,0.0,0.0,0.0,0.0,0.0,0.0,0.0,0.0,0.0,0.0,0.0,0.0,0.0,0.0,0.0,0.0,0.0,0.0,0.0,0.0,0.0,0.0,0.0,0.0,0.0,0.0,0.0,0.0,0.0,0.0,0.0,0.0,0.0,0.0,0.0,0.0,0.0,0.0,0.0,0.0,0.0,0.0,0.0,0.0,0.0,0.0,0.0,0.0,0.0,0.0,0.0,0.0,0.0,0.0,0.0,0.0,0.0,0.0,0.0,0.0,0.0,0.0,0.0,0.0,0.0,0.0,0.0,0.0,0.0,0.0,-1.0654,-1.077,-1.0709,0.0,0.0,0.0,0.0,0.0,0.0,0.0,0.0,0.0,0.0,0.0,0.0,0.0,0.0,0.0,0.0,0.0,0.0,0.0,0.0,0.0,0.0,0.0,0.0,0.0,0.0,0.0,0.0,0.0,0.0,0.0,0.0,0.0,0.0,0.0,0.0,0.0,0.0,0.0,0.0,0.0,0.0,0.0,0.0,0.0,0.0,0.0,0.0,0.0,0.0,0.0,0.0,0.0,0.0,0.0,0.0,0.0,0.0,0.0,0.0,0.0,0.0,0.0,0.0,0.0,0.0,0.0,0.0,0.0,0.0,0.0,0.0,0.0,0.0,0.0,0.0,0.0,0.0,0.0,0.0,0.0,0.0,0.0,0.0,0.0,0.0,0.0,0.0,0.0,0.0,0.0,0.0,0.0,0.0,0.0,0.0,0.0,0.0,0.0,0.0,0.0,0.0,0.0,0.0,0.0,0.0,0.0,0.0,0.0,0.0,-1.1112,-1.1194,-1.1327,0.0,-1.1303,0.0,0.0,0.0,0.0,0.0,0.0,0.0,0.0,0.0,0.0,0.0,0.0,0.0,0.0,0.0,0.0,0.0,0.0,0.0,0.0,0.0,0.0,0.0,0.0,0.0,0.0,0.0,0.0,0.0,0.0,0.0,0.0,0.0,0.0,0.0,0.0,0.0,0.0,0.0,0.0,0.0,0.0,0.0,0.0,0.0,0.0,0.0,0.0,0.0,0.0,0.0,0.0,0.0,0.0,0.0,0.0,0.0,0.0,0.0,0.0,0.0,0.0,0.0,0.0,0.0,0.0,0.0,0.0,0.0,0.0,0.0,0.0,0.0,0.0,0.0,0.0,0.0,0.0,0.0,0.0,0.0,0.0,0.0,0.0,0.0,0.0,0.0,0.0,0.0,0.0,0.0,0.0,0.0,0.0,0.0,0.0,0.0,0.0,0.0,0.0,0.0,0.0,0.0,0.0,0.0,0.0,0.0,0.0,0.0,0.0,-1.1901,-1.1726,-1.1825,-1.1779,0.0,0.0,0.0,0.0,0.0,0.0,0.0,0.0,0.0,0.0,0.0,0.0,0.0,0.0,0.0,0.0,0.0,0.0,0.0,0.0,0.0,0.0,0.0,0.0,0.0,0.0,0.0,0.0,0.0,0.0,0.0,0.0,0.0,0.0,0.0,0.0,0.0,0.0,0.0,0.0,0.0,0.0,0.0,0.0,0.0,0.0,0.0,0.0,0.0,0.0,0.0,0.0,0.0,0.0,0.0,0.0,0.0,0.0,0.0,0.0,0.0,0.0,0.0,0.0,0.0,0.0,0.0,0.0,0.0,0.0,0.0,0.0,0.0,0.0,0.0,0.0,0.0,0.0,0.0,0.0,0.0,0.0,0.0,0.0,0.0,0.0,0.0,0.0,0.0,0.0,0.0,0.0,0.0,0.0,0.0,0.0,0.0,0.0,0.0,0.0,0.0,0.0,0.0,0.0,0.0,0.0,0.0,0.0,0.0,0.0,-1.2371,-1.2554,-1.2387,-1.2405,-1.2284,-1.1995,0.0,0.0,0.0,0.0,0.0,0.0,0.0,0.0,0.0,0.0,0.0,0.0,0.0,0.0,0.0,0.0,0.0,0.0,0.0,0.0,0.0,0.0,0.0,0.0,0.0,0.0,0.0,0.0,0.0,0.0,0.0,0.0,0.0,0.0,0.0,0.0,0.0,0.0,0.0,0.0,0.0,0.0,0.0,0.0,0.0,0.0,0.0,0.0,0.0,0.0,0.0,0.0,0.0,0.0,0.0,0.0,0.0,0.0,0.0,0.0,0.0,0.0,0.0,0.0,0.0,0.0,0.0,0.0,0.0,0.0,0.0,0.0,0.0,0.0,0.0,0.0,0.0,0.0,0.0,0.0,0.0,0.0,0.0,0.0,0.0,0.0,0.0,0.0,0.0,0.0,0.0,0.0,0.0,0.0,0.0,0.0,0.0,0.0,0.0,0.0,0.0,0.0,0.0,0.0,0.0,0.0,0.0,0.0,-1.252,-1.2705,-1.295,-1.3199,-1.3063,-1.2975,0.0,0.0,0.0,0.0,0.0,0.0,0.0,0.0,0.0,0.0,0.0,0.0,0.0,0.0,0.0,0.0,0.0,0.0,0.0,0.0,0.0,0.0,0.0,0.0,0.0,0.0,0.0,0.0,0.0,0.0,0.0,0.0,0.0,0.0,0.0,0.0,0.0,0.0,0.0,0.0,0.0,0.0,0.0,0.0,0.0,0.0,0.0,0.0,0.0,0.0,0.0,0.0,0.0,0.0,0.0,0.0,0.0,0.0,0.0,0.0,0.0,0.0,0.0,0.0,0.0,0.0,0.0,0.0,0.0,0.0,0.0,0.0,0.0,0.0,0.0,0.0,0.0,0.0,0.0,0.0,0.0,0.0,0.0,0.0,0.0,0.0,0.0,0.0,0.0,0.0,0.0,0.0,0.0,0.0,0.0,0.0,0.0,0.0,0.0,0.0,0.0,0.0,0.0,0.0,0.0,0.0,0.0,0.0,0.0,-1.2858,-1.3133,-1.3368,-1.3627,-1.3639,-1.3535,0.0,0.0,0.0,0.0,0.0,0.0,0.0,0.0,0.0,0.0,0.0,0.0,0.0,0.0,0.0,0.0,0.0,0.0,0.0,0.0,0.0,0.0,0.0,0.0,0.0,0.0,0.0,0.0,0.0,0.0,0.0,0.0,0.0,0.0,0.0,0.0,0.0,0.0,0.0,0.0,0.0,0.0,0.0,0.0,0.0,0.0,0.0,0.0,0.0,0.0,0.0,0.0,0.0,0.0,0.0,0.0,0.0,0.0,0.0,0.0,0.0,0.0,0.0,0.0,0.0,0.0,0.0,0.0,0.0,0.0,0.0,0.0,0.0,0.0,0.0,0.0,0.0,0.0,0.0,0.0,0.0,0.0,0.0,0.0,0.0,0.0,0.0,0.0,0.0,0.0,0.0,0.0,0.0,0.0,0.0,0.0,0.0,0.0,0.0,0.0,0.0,0.0,0.0,0.0,0.0,0.0,0.0,0.0,0.0,-1.3111,0.0,-1.367,-1.3799,-1.395,-1.3886,0.0,0.0,0.0,0.0,0.0,0.0,0.0,0.0,0.0,0.0,0.0,0.0,0.0,0.0,0.0,0.0,0.0,0.0,0.0,0.0,0.0,0.0,0.0,0.0,0.0,0.0,0.0,0.0,0.0,0.0,0.0,0.0,0.0,0.0,0.0,0.0,0.0,0.0,0.0,0.0,0.0,0.0,0.0,0.0,0.0,0.0,0.0,0.0,0.0,0.0,0.0,0.0,0.0,0.0,0.0,0.0,0.0,0.0,0.0,0.0,0.0,0.0,0.0,0.0,0.0,0.0,0.0,0.0,0.0,0.0,0.0,0.0,0.0,0.0,0.0,0.0,0.0,0.0,0.0,0.0,0.0,0.0,0.0,0.0,0.0,0.0,0.0,0.0,0.0,0.0,0.0,0.0,0.0,0.0,0.0,0.0,0.0,0.0,0.0,0.0,0.0,0.0,0.0,0.0,0.0,0.0,0.0,0.0,-1.3128,-1.3319,-1.3653,-1.3861,-1.3808,-1.3985,-1.4028,0.0,0.0,0.0,0.0,0.0,0.0,0.0,0.0,0.0,0.0,0.0,0.0,0.0,0.0,0.0,0.0,0.0,0.0,0.0,0.0,0.0,0.0,0.0,0.0,0.0,0.0,0.0,0.0,0.0,0.0,0.0,0.0,0.0,0.0,0.0,0.0,0.0,0.0,0.0,0.0,0.0,0.0,0.0,0.0,0.0,0.0,0.0,0.0,0.0,0.0,0.0,0.0,0.0,0.0,0.0,0.0,0.0,0.0,0.0,0.0,0.0,0.0,0.0,0.0,0.0,0.0,0.0,0.0,0.0,0.0,0.0,0.0,0.0,0.0,0.0,0.0,0.0,0.0,0.0,0.0,0.0,0.0,0.0,0.0,0.0,0.0,0.0,0.0,0.0,0.0,0.0,0.0,0.0,0.0,0.0,0.0,0.0,0.0,0.0,0.0,0.0,0.0,0.0,0.0,0.0,0.0,0.0,0.0,0.0,-1.3837,-1.4297,-1.4617,-1.4753,-1.4746,-1.4787,0.0,0.0,0.0,0.0,0.0,0.0,0.0,0.0,0.0,0.0,0.0,0.0,0.0,0.0,0.0,0.0,0.0,0.0,0.0,0.0,0.0,0.0,0.0,0.0,0.0,0.0,0.0,0.0,0.0,0.0,0.0,0.0,0.0,0.0,0.0,0.0,0.0,0.0,0.0,0.0,0.0,0.0,0.0,0.0,0.0,0.0,0.0,0.0,0.0,0.0,0.0,0.0,0.0,0.0,0.0,0.0,0.0,0.0,0.0,0.0,0.0,0.0,0.0,0.0,0.0,0.0,0.0,0.0,0.0,0.0,0.0,0.0,0.0,0.0,0.0,0.0,0.0,0.0,0.0,0.0,0.0,0.0,0.0,0.0,0.0,0.0,0.0,0.0,0.0,0.0,0.0,0.0,0.0,0.0,0.0,0.0,0.0,0.0,0.0,0.0,0.0,0.0,0.0,0.0,0.0,0.0,0.0,0.0,0.0,-1.4642,-1.4867,-1.5139,-1.5375,-1.5428,-1.5414,-1.5401,0.0,0.0,0.0,0.0,0.0,0.0,0.0,0.0,0.0,0.0,0.0,0.0,0.0,0.0,0.0,0.0,0.0,0.0,0.0,0.0,0.0,0.0,0.0,0.0,0.0,0.0,0.0,0.0,0.0,0.0,0.0,0.0,0.0,0.0,0.0,0.0,0.0,0.0,0.0,0.0,0.0,0.0,0.0,0.0,0.0,0.0,0.0,0.0,0.0,0.0,0.0,0.0,0.0,0.0,0.0,0.0,0.0,0.0,0.0,0.0,0.0,0.0,0.0,0.0,0.0,0.0,0.0,0.0,0.0,0.0,0.0,0.0,0.0,0.0,0.0,0.0,0.0,0.0,0.0,0.0,0.0,0.0,0.0,0.0,0.0,0.0,0.0,0.0,0.0,0.0,0.0,0.0,0.0,0.0,0.0,0.0,0.0,0.0,0.0,0.0,0.0,0.0,0.0,0.0,0.0,0.0,0.0,0.0,-1.5572,-1.5413,-1.5456,-1.5804,-1.5988,-1.5933,0.0,0.0,0.0,0.0,0.0,0.0,0.0,0.0,0.0,0.0,0.0,0.0,0.0,0.0,0.0,0.0,0.0,0.0,0.0,0.0,0.0,0.0,0.0,0.0,0.0,0.0,0.0,0.0,0.0,0.0,0.0,0.0,0.0,0.0,0.0,0.0,0.0,0.0,0.0,0.0,0.0,0.0,0.0,0.0,0.0,0.0,0.0,0.0,0.0,0.0,0.0,0.0,0.0,0.0,0.0,0.0,0.0,0.0,0.0,0.0,0.0,0.0,0.0,0.0,0.0,0.0,0.0,0.0,0.0,0.0,0.0,0.0,0.0,0.0,0.0,0.0,0.0,0.0,0.0,0.0,0.0,0.0,0.0,0.0,0.0,0.0,0.0,0.0,0.0,0.0,0.0,0.0,0.0,0.0,0.0,0.0,0.0,0.0,0.0,0.0,0.0,0.0,0.0,0.0,0.0,0.0,0.0,0.0,0.0,-1.6519,-1.6599,-1.6714,-1.6806,-1.6784,-1.6725,0.0,0.0,0.0,0.0,0.0,0.0,0.0,0.0,0.0,0.0,0.0,0.0,0.0,0.0,0.0,0.0,0.0,0.0,0.0,0.0,0.0,0.0,0.0,0.0,0.0,0.0,0.0,0.0,0.0,0.0,0.0,0.0,0.0,0.0,0.0,0.0,0.0,0.0,0.0,0.0,0.0,0.0,0.0,0.0,0.0,0.0,0.0,0.0,0.0,0.0,0.0,0.0,0.0,0.0,0.0,0.0,0.0,0.0,0.0,0.0,0.0,0.0,0.0,0.0,0.0,0.0,0.0,0.0,0.0,0.0,0.0,0.0,0.0,0.0,0.0,0.0,0.0,0.0,0.0,0.0,0.0,0.0,0.0,0.0,0.0,0.0,0.0,0.0,0.0,0.0,0.0,0.0,0.0,0.0,0.0,0.0,0.0,0.0,0.0,0.0,0.0,0.0,0.0,0.0,0.0,0.0,0.0,0.0,-1.6924,-1.7392,-1.7852,-1.8063,-1.8045,-1.7673,-1.7422,0.0,0.0,0.0,0.0,0.0,0.0,0.0,0.0,0.0,0.0,0.0,0.0,0.0,0.0,0.0,0.0,0.0,0.0,0.0,0.0,0.0,0.0,0.0,0.0,0.0,0.0,0.0,0.0,0.0,0.0,0.0,0.0,0.0,0.0,0.0,0.0,0.0,0.0,0.0,0.0,0.0,0.0,0.0,0.0,0.0,0.0,0.0,0.0,0.0,0.0,0.0,0.0,0.0,0.0,0.0,0.0,0.0,0.0,0.0,0.0,0.0,0.0,0.0,0.0,0.0,0.0,0.0,0.0,0.0,0.0,0.0,0.0,0.0,0.0,0.0,0.0,0.0,0.0,0.0,0.0,0.0,0.0,0.0,0.0,0.0,0.0,0.0,0.0,0.0,0.0,0.0,0.0,0.0,0.0,0.0,0.0,0.0,0.0,0.0,0.0,0.0,0.0,0.0,0.0,0.0,0.0,0.0,0.0,-1.7811,-1.8209,-1.8954,-1.9344,-1.9299,-1.8567,-1.8077,0.0,0.0,0.0,0.0,0.0,0.0,0.0,0.0,0.0,0.0,0.0,0.0,0.0,0.0,0.0,0.0,0.0,0.0,0.0,0.0,0.0,0.0,0.0,0.0,0.0,0.0,0.0,0.0,0.0,0.0,0.0,0.0,0.0,0.0,0.0,0.0,0.0,0.0,0.0,0.0,0.0,0.0,0.0,0.0,0.0,0.0,0.0,0.0,0.0,0.0,0.0,0.0,0.0,0.0,0.0,0.0,0.0,0.0,0.0,0.0,0.0,0.0,0.0,0.0,0.0,0.0,0.0,0.0,0.0,0.0,0.0,0.0,0.0,0.0,0.0,0.0,0.0,0.0,0.0,0.0,0.0,0.0,0.0,0.0,0.0,0.0,0.0,0.0,0.0,0.0,0.0,0.0,0.0,0.0,0.0,0.0,0.0,0.0,0.0,0.0,0.0,0.0,0.0,0.0,0.0,0.0,0.0,0.0,-1.873,-1.8828,-1.9447,-1.9853,-1.9987,-1.9469,-1.8893,0.0,0.0,0.0,0.0,0.0,0.0,0.0,0.0,0.0,0.0,0.0,0.0,0.0,0.0,0.0,0.0,0.0,0.0,0.0,0.0,0.0,0.0,0.0,0.0,0.0,0.0,0.0,0.0,0.0,0.0,0.0,0.0,0.0,0.0,0.0,0.0,0.0,0.0,0.0,0.0,0.0,0.0,0.0,0.0,0.0,0.0,0.0,0.0,-1.8021,0.0,0.0,0.0,0.0,0.0,0.0,0.0,0.0,0.0,0.0,0.0,0.0,0.0,0.0,0.0,0.0,0.0,0.0,0.0,0.0,0.0,0.0,0.0,0.0,0.0,0.0,0.0,0.0,0.0,0.0,0.0,0.0,0.0,0.0,0.0,0.0,0.0,0.0,0.0,0.0,0.0,0.0,0.0,0.0,0.0,0.0,0.0,0.0,0.0,0.0,0.0,0.0,0.0,0.0,0.0,0.0,0.0,0.0,0.0,-1.96,-1.9883,-2.037,-2.0649,-2.0617,-2.0175,-1.9644,0.0,0.0,0.0,0.0,0.0,0.0,0.0,0.0,0.0,0.0,0.0,0.0,0.0,0.0,0.0,0.0,0.0,0.0,0.0,0.0,0.0,0.0,0.0,0.0,0.0,0.0,0.0,0.0,0.0,0.0,0.0,0.0,0.0,0.0,0.0,0.0,0.0,0.0,0.0,0.0,0.0,0.0,0.0,0.0,0.0,0.0,0.0,0.0,0.0,0.0,0.0,0.0,0.0,0.0,0.0,0.0,0.0,0.0,0.0,0.0,0.0,0.0,0.0,0.0,0.0,0.0,0.0,0.0,0.0,0.0,0.0,0.0,0.0,0.0,0.0,0.0,0.0,0.0,0.0,0.0,0.0,0.0,0.0,0.0,0.0,0.0,0.0,0.0,0.0,0.0,0.0,0.0,0.0,0.0,0.0,0.0,0.0,0.0,0.0,0.0,0.0,0.0,0.0,0.0,0.0,0.0,0.0,-1.946,-2.0352,-2.0923,-2.1353,-2.1432,-2.1228,-2.0736,-2.0327,-1.992,0.0,0.0,0.0,0.0,0.0,0.0,0.0,0.0,0.0,0.0,0.0,0.0,0.0,0.0,0.0,0.0,0.0,0.0,0.0,0.0,0.0,0.0,0.0,0.0,0.0,0.0,0.0,0.0,0.0,0.0,0.0,0.0,0.0,0.0,0.0,0.0,0.0,0.0,-1.6532,-1.7508,0.0,0.0,0.0,0.0,0.0,0.0,0.0,0.0,-1.8599,0.0,0.0,0.0,0.0,0.0,0.0,0.0,0.0,0.0,0.0,0.0,0.0,0.0,0.0,0.0,0.0,0.0,0.0,0.0,0.0,0.0,0.0,0.0,0.0,0.0,0.0,0.0,0.0,0.0,0.0,0.0,0.0,0.0,0.0,0.0,0.0,0.0,0.0,0.0,0.0,0.0,0.0,0.0,0.0,0.0,0.0,0.0,0.0,0.0,0.0,0.0,0.0,0.0,0.0,0.0,0.0,-1.8771,-2.018,-2.0931,-2.1087,-2.1532,-2.1728,-2.1683,-2.1248,-2.0855,-2.0523,0.0,0.0,0.0,0.0,0.0,0.0,0.0,0.0,0.0,0.0,0.0,0.0,0.0,0.0,0.0,0.0,0.0,0.0,0.0,0.0,0.0,0.0,0.0,0.0,0.0,0.0,0.0,0.0,0.0,0.0,0.0,0.0,0.0,0.0,0.0,0.0,0.0,0.0,0.0,-1.8596,-1.9006,0.0,0.0,0.0,0.0,0.0,0.0,0.0,0.0,-1.9116,0.0,0.0,0.0,0.0,0.0,0.0,0.0,0.0,0.0,0.0,0.0,0.0,0.0,0.0,0.0,0.0,0.0,0.0,0.0,0.0,0.0,0.0,0.0,0.0,0.0,0.0,0.0,0.0,0.0,0.0,0.0,0.0,0.0,0.0,0.0,0.0,0.0,0.0,0.0,0.0,0.0,0.0,0.0,0.0,0.0,0.0,0.0,0.0,0.0,0.0,0.0,0.0,0.0,0.0,0.0,-1.9577,-2.0597,-2.1238,-2.1466,-2.1694,-2.1807,-2.1797,-2.1352,-2.1006,0.0,0.0,0.0,0.0,0.0,0.0,0.0,0.0,0.0,0.0,0.0,0.0,0.0,0.0,0.0,0.0,0.0,0.0,0.0,0.0,0.0,0.0,0.0,0.0,0.0,0.0,0.0,0.0,0.0,0.0,0.0,0.0,0.0,0.0,0.0,0.0,0.0,0.0,0.0,0.0,-1.8753,-1.9362,-1.9472,0.0,0.0,0.0,0.0,0.0,0.0,-1.9957,-1.9644,0.0,0.0,0.0,0.0,0.0,0.0,0.0,0.0,0.0,0.0,0.0,0.0,0.0,0.0,0.0,0.0,0.0,0.0,0.0,0.0,0.0,0.0,0.0,0.0,0.0,0.0,0.0,0.0,0.0,0.0,0.0,0.0,0.0,0.0,0.0,0.0,0.0,0.0,0.0,0.0,0.0,0.0,0.0,0.0,0.0,0.0,0.0,0.0,0.0,0.0,0.0,0.0,0.0,0.0,0.0,-2.035,-2.0958,-2.1435,-2.1787,-2.1807,-2.1807,-2.1807,-2.1445,-2.1147,0.0,0.0,0.0,0.0,0.0,0.0,0.0,0.0,0.0,0.0,0.0,0.0,0.0,0.0,0.0,0.0,0.0,0.0,0.0,0.0,0.0,0.0,0.0,0.0,0.0,0.0,0.0,0.0,0.0,0.0,0.0,0.0,0.0,0.0,0.0,0.0,0.0,0.0,0.0,0.0,0.0,-1.9685,-1.9944,-2.0097,0.0,0.0,0.0,0.0,-2.0623,-2.0268,0.0,0.0,0.0,0.0,0.0,0.0,0.0,0.0,0.0,0.0,0.0,0.0,0.0,0.0,0.0,0.0,0.0,0.0,0.0,0.0,0.0,0.0,0.0,0.0,0.0,0.0,0.0,0.0,0.0,0.0,0.0,0.0,0.0,0.0,0.0,0.0,0.0,0.0,0.0,0.0,0.0,0.0,0.0,0.0,0.0,0.0,0.0,0.0,0.0,0.0,0.0,0.0,0.0,0.0,0.0,0.0,-2.0974,-2.1497,-2.1718,-2.1807,-2.1807,-2.1807,-2.1807,-2.1745,-2.1517,0.0,0.0,0.0,0.0,0.0,0.0,0.0,0.0,0.0,0.0,0.0,0.0,0.0,0.0,0.0,0.0,0.0,0.0,0.0,0.0,0.0,0.0,0.0,0.0,0.0,0.0,0.0,0.0,0.0,0.0,0.0,0.0,0.0,0.0,0.0,0.0,0.0,0.0,0.0,0.0,0.0,-2.0341,-1.9879,-2.0487,-2.0834,0.0,0.0,-2.042,-2.042,-2.0093,0.0,0.0,0.0,0.0,0.0,0.0,0.0,0.0,0.0,0.0,0.0,0.0,0.0,0.0,0.0,0.0,0.0,0.0,0.0,0.0,0.0,0.0,0.0,0.0,0.0,0.0,0.0,0.0,0.0,0.0,0.0,0.0,0.0,0.0,0.0,0.0,0.0,0.0,0.0,0.0,0.0,0.0,0.0,0.0,0.0,0.0,0.0,0.0,0.0,0.0,0.0,0.0,0.0,0.0,0.0,-2.0293,-2.1077,-2.1828,-2.219,-2.2201,-2.2459,-2.2459,-2.2201,-2.2201,-2.1956,0.0,0.0,0.0,0.0,0.0,0.0,0.0,0.0,0.0,0.0,0.0,0.0,0.0,0.0,0.0,0.0,0.0,0.0,0.0,0.0,0.0,0.0,0.0,0.0,0.0,0.0,0.0,0.0,0.0,0.0,0.0,0.0,0.0,0.0,0.0,0.0,0.0,0.0,0.0,0.0,0.0,0.0,-2.0166,-2.069,0.0,0.0,0.0,-2.1207,-2.1207,0.0,0.0,0.0,0.0,0.0,0.0,0.0,0.0,0.0,0.0,0.0,0.0,0.0,0.0,0.0,0.0,0.0,0.0,0.0,0.0,0.0,0.0,0.0,0.0,0.0,0.0,0.0,0.0,0.0,0.0,0.0,0.0,0.0,0.0,0.0,0.0,0.0,0.0,0.0,0.0,0.0,0.0,0.0,0.0,0.0,0.0,0.0,0.0,0.0,0.0,0.0,0.0,0.0,0.0,0.0,0.0,0.0,-2.129,-2.2087,-2.2501,-2.2511,-2.2946,-2.3018,-2.2687,-2.2553,0.0,0.0,0.0,0.0,0.0,0.0,0.0,0.0,0.0,0.0,0.0,0.0,0.0,0.0,0.0,0.0,0.0,0.0,0.0,0.0,0.0,0.0,0.0,0.0,0.0,0.0,0.0,-1.542,0.0,0.0,0.0,0.0,0.0,0.0,0.0,0.0,0.0,0.0,0.0,0.0,0.0,0.0,-2.0519,-2.0581,-2.099,-2.1404,0.0,0.0,-2.1807,-2.1807,-2.1124,-2.0663,0.0,0.0,0.0,0.0,0.0,0.0,0.0,0.0,0.0,0.0,0.0,0.0,0.0,0.0,0.0,0.0,0.0,0.0,0.0,0.0,0.0,0.0,0.0,0.0,0.0,0.0,0.0,0.0,0.0,0.0,0.0,0.0,0.0,0.0,0.0,0.0,0.0,0.0,0.0,0.0,0.0,0.0,0.0,0.0,0.0,0.0,0.0,0.0,0.0,0.0,0.0,0.0,0.0,0.0,0.0,-2.1745,-2.2242,-2.2511,-2.2522,-2.2946,-2.3174,-2.3132,-2.2718,-2.2379,0.0,0.0,0.0,0.0,0.0,0.0,0.0,0.0,0.0,0.0,0.0,0.0,0.0,0.0,0.0,0.0,0.0,0.0,0.0,0.0,0.0,0.0,0.0,0.0,0.0,0.0,0.0,0.0,0.0,0.0,0.0,0.0,0.0,0.0,0.0,0.0,0.0,0.0,0.0,0.0,0.0,-2.0959,-2.1047,-2.1466,-2.1766,0.0,0.0,-2.1807,-2.1807,-2.1383,-2.1001,-2.0778,0.0,0.0,0.0,0.0,0.0,0.0,0.0,0.0,0.0,0.0,0.0,0.0,0.0,0.0,0.0,0.0,0.0,0.0,0.0,0.0,0.0,0.0,0.0,0.0,0.0,0.0,0.0,0.0,0.0,0.0,0.0,0.0,0.0,0.0,0.0,0.0,0.0,0.0,0.0,0.0,0.0,0.0,0.0,0.0,0.0,0.0,0.0,0.0,0.0,0.0,0.0,0.0,0.0,-2.1021,-2.2211,-2.2687,-2.306,-2.335,-2.3795,-2.3898,-2.3619,-2.3163,-2.2787,0.0,0.0,0.0,0.0,0.0,0.0,0.0,0.0,0.0,0.0,0.0,0.0,0.0,0.0,0.0,0.0,0.0,0.0,0.0,0.0,0.0,0.0,0.0,0.0,0.0,0.0,0.0,0.0,-1.8278,-1.8717,-1.9079,0.0,0.0,0.0,0.0,0.0,0.0,0.0,0.0,0.0,0.0,-2.0883,-2.1089,-2.1507,0.0,0.0,-2.1807,-2.1807,-2.1807,-2.1414,-2.1099,-2.112,-2.0508,0.0,0.0,0.0,0.0,0.0,0.0,0.0,0.0,0.0,0.0,0.0,0.0,0.0,0.0,0.0,0.0,0.0,0.0,0.0,0.0,0.0,0.0,0.0,0.0,0.0,0.0,0.0,0.0,0.0,0.0,0.0,0.0,0.0,0.0,0.0,0.0,0.0,0.0,0.0,0.0,0.0,0.0,0.0,0.0,0.0,0.0,0.0,0.0,0.0,0.0,0.0,0.0,-2.1211,-2.248,-2.2956,-2.3412,-2.3909,-2.427,-2.4352,-2.4084,-2.3639,-2.3254,0.0,0.0,0.0,0.0,0.0,0.0,0.0,0.0,0.0,0.0,0.0,0.0,0.0,0.0,0.0,0.0,0.0,0.0,0.0,0.0,0.0,0.0,0.0,0.0,0.0,0.0,0.0,0.0,-1.9277,-1.9578,-1.9604,0.0,0.0,0.0,0.0,0.0,0.0,0.0,0.0,0.0,0.0,-2.101,-2.1296,-2.16,-2.1807,-2.1807,-2.1807,-2.1807,-2.1807,-2.1528,-2.1306,-2.1319,0.0,0.0,0.0,0.0,0.0,0.0,0.0,0.0,0.0,0.0,0.0,0.0,0.0,0.0,0.0,0.0,0.0,0.0,0.0,0.0,0.0,0.0,0.0,0.0,0.0,0.0,0.0,0.0,0.0,0.0,0.0,0.0,0.0,0.0,0.0,0.0,0.0,0.0,0.0,0.0,0.0,0.0,0.0,0.0,0.0,0.0,0.0,0.0,0.0,0.0,0.0,0.0,0.0,0.0,-2.249,-2.2967,-2.3422,-2.3877,-2.4312,-2.4497,-2.4466,-2.4095,-2.3639,-2.3204,0.0,0.0,0.0,0.0,0.0,0.0,0.0,0.0,0.0,0.0,0.0,0.0,0.0,0.0,0.0,0.0,0.0,0.0,0.0,0.0,0.0,0.0,0.0,0.0,0.0,0.0,-1.9692,-2.0327,-2.0372,0.0,0.0,0.0,0.0,0.0,0.0,0.0,0.0,0.0,0.0,-2.1083,-2.1481,-2.1714,-2.1797,-2.1807,-2.1807,-2.1807,-2.1807,-2.1807,-2.1797,-2.1631,0.0,0.0,0.0,0.0,0.0,0.0,0.0,0.0,0.0,0.0,0.0,0.0,0.0,0.0,0.0,0.0,0.0,0.0,0.0,0.0,0.0,0.0,0.0,0.0,0.0,0.0,0.0,-1.51,-1.5135,0.0,0.0,0.0,0.0,0.0,0.0,0.0,0.0,0.0,0.0,0.0,-1.7345,-1.7518,0.0,0.0,0.0,0.0,0.0,0.0,0.0,0.0,0.0,0.0,0.0,0.0,-2.2025,-2.2925,-2.3412,-2.3867,-2.4302,-2.4414,-2.4507,-2.4497,-2.4105,-2.3556,-2.2749,0.0,0.0,0.0,0.0,0.0,0.0,0.0,0.0,0.0,0.0,0.0,0.0,0.0,0.0,0.0,0.0,0.0,0.0,0.0,0.0,0.0,0.0,0.0,0.0,0.0,-1.9421,0.0,0.0,0.0,0.0,0.0,0.0,0.0,0.0,0.0,0.0,0.0,-2.0263,-2.1051,-2.1204,-2.1354,-2.1745,-2.1807,-2.1807,0.0,0.0,0.0,0.0,0.0,0.0,0.0,0.0,0.0,0.0,0.0,0.0,0.0,0.0,-1.9888,-1.8611,-1.8375,-1.8375,-1.8375,0.0,0.0,0.0,0.0,0.0,0.0,0.0,0.0,0.0,0.0,0.0,0.0,0.0,0.0,0.0,0.0,-1.6357,0.0,0.0,0.0,0.0,0.0,0.0,0.0,0.0,-1.8478,-1.8705,-1.8629,-1.8772,-1.9051,0.0,-1.9647,-1.9581,0.0,0.0,0.0,0.0,0.0,0.0,0.0,0.0,-2.249,-2.3432,-2.3722,-2.4095,-2.4476,-2.4507,-2.4507,-2.4497,-2.4105,-2.3588,-2.2998,-2.2494,-2.1931,0.0,0.0,0.0,0.0,0.0,0.0,0.0,0.0,0.0,0.0,0.0,0.0,0.0,0.0,0.0,0.0,0.0,0.0,0.0,0.0,0.0,0.0,0.0,-2.0042,0.0,0.0,0.0,0.0,0.0,0.0,0.0,0.0,0.0,-1.9904,-2.0231,-2.0665,-2.1225,-2.1323,-2.1466,-2.1766,0.0,0.0,0.0,0.0,0.0,0.0,0.0,-2.1807,-2.1807,-2.1661,-2.1486,-2.1319,-2.1203,-2.1068,-2.0828,0.0,0.0,-1.9402,-1.9179,-1.9179,-1.9168,-1.9287,-1.9404,-1.9404,-1.9564,-1.991,0.0,0.0,0.0,0.0,0.0,0.0,0.0,0.0,-1.7976,-1.8008,0.0,-1.7672,0.0,0.0,0.0,0.0,0.0,0.0,0.0,0.0,-1.952,-1.9793,-2.019,-2.0214,-2.0493,-2.0941,-2.1393,-2.1807,-2.2107,-2.0906,0.0,0.0,0.0,0.0,0.0,0.0,-2.2977,-2.3878,-2.3929,-2.4115,-2.4487,-2.4507,-2.4507,-2.4487,-2.4126,-2.3898,-2.3836,-2.2987,-2.2372,-2.2094,-2.1214,0.0,0.0,0.0,0.0,0.0,0.0,0.0,0.0,0.0,0.0,0.0,0.0,0.0,0.0,0.0,0.0,0.0,0.0,0.0,0.0,-2.0398,0.0,0.0,0.0,0.0,0.0,0.0,0.0,0.0,0.0,0.0,-2.0072,-2.0806,-2.1335,-2.1135,0.0,0.0,0.0,0.0,-2.1807,-2.1807,-2.1807,-2.1807,-2.1807,-2.1807,-2.1807,-2.1807,0.0,0.0,-2.1217,-2.1282,-2.1209,-2.0591,-2.0657,-2.0793,-2.0991,-2.0885,-2.0864,-2.0875,-2.1008,-2.1234,-2.128,-2.1235,-2.1531,-1.7055,0.0,0.0,0.0,0.0,-1.8117,-1.8465,-1.8811,-1.8853,-1.8853,-1.8845,-1.8775,0.0,0.0,0.0,0.0,0.0,0.0,-1.9599,-1.9811,-2.0368,-2.0573,-2.053,-2.0973,-2.1349,-2.1629,-2.2093,-2.2441,-2.2676,-2.2468,-2.2358,-2.2408,0.0,0.0,0.0,0.0,-2.3619,-2.3877,-2.4188,-2.4373,-2.4497,-2.4507,-2.4507,-2.4507,-2.4373,-2.4209,-2.3929,-2.3308,-2.282,-2.2382,-2.1601,0.0,0.0,0.0,0.0,0.0,0.0,0.0,0.0,0.0,0.0,0.0,0.0,0.0,0.0,0.0,0.0,0.0,0.0,0.0,-2.0502,-2.0886,-2.1047,0.0,0.0,0.0,0.0,0.0,0.0,0.0,0.0,0.0,-2.0803,-2.1021,-2.1275,0.0,0.0,-2.1807,-2.1807,-2.1807,-2.1807,-2.1807,0.0,0.0,0.0,-2.1807,-2.1807,-2.1807,-2.1807,-2.1766,-2.1631,-2.1648,-2.1645,-2.1414,-2.1451,-2.1478,-2.1522,-2.1011,-2.0625,-2.0573,-2.0832,-2.1066,-2.1101,-2.1347,-2.1761,-1.8274,-1.7929,-1.7957,-1.8344,-1.8893,-1.917,-1.9398,-1.9659,-1.9624,-1.9659,-1.9607,-1.9461,-1.9393,-1.9393,-1.9368,0.0,0.0,0.0,-2.0472,-2.0618,-2.1323,-2.1618,-2.1617,-2.2119,-2.2448,-2.2658,-2.3036,-2.3307,-2.3442,-2.3608,-2.3722,-2.3712,0.0,0.0,-2.3504,-2.3732,-2.396,-2.4146,-2.4352,-2.4507,-2.4507,-2.4507,-2.4507,-2.4507,-2.4507,-2.4363,-2.4146,-2.3701,-2.3329,-2.3049,-2.2275,-2.1632,0.0,0.0,0.0,0.0,0.0,0.0,0.0,0.0,0.0,0.0,0.0,-1.7581,0.0,0.0,0.0,0.0,-1.9927,-2.0294,-2.1041,-2.128,0.0,0.0,0.0,0.0,0.0,0.0,0.0,-2.0993,-2.1157,-2.1287,-2.1362,-2.1393,-2.1497,-2.1766,-2.1807,-2.1807,-2.1807,0.0,-2.1807,-2.1807,-2.1807,-2.1807,-2.1807,-2.1807,-2.1807,-2.1807,-2.1807,-2.1807,-2.1807,-2.1807,-2.1807,-2.1807,-2.1807,-2.1807,-2.1807,-2.1342,-2.0979,-2.0969,-2.1272,-2.1537,-2.1573,-2.1862,-2.2308,-1.9202,-1.9605,-1.9899,-2.0071,-2.0196,-2.0448,-2.0479,-2.0386,-2.0377,-2.0386,-2.0352,-1.9982,-1.9828,-1.9855,-1.9757,0.0,0.0,-2.0791,-2.1307,-2.1913,-2.2358,-2.2802,-2.3242,-2.3559,-2.3777,-2.3951,-2.4212,-2.4352,-2.4352,-2.4524,-2.4611,-2.458,-2.3815,-2.3618,-2.3908,-2.3929,-2.4126,-2.4487,-2.4497,-2.4507,-2.4507,-2.4507,-2.4507,-2.4507,-2.4507,-2.4507,-2.4487,-2.4115,-2.3877,-2.3846,-2.3029,-2.2413,-2.2136,0.0,0.0,0.0,0.0,0.0,0.0,0.0,0.0,0.0,0.0,0.0,0.0,0.0,0.0,0.0,-2.086,0.0,-2.1176,-2.1549,0.0,0.0,0.0,-2.1256,-2.0827,-2.0774,-2.0942,-2.1371,0.0,0.0,0.0,0.0,-2.1807,-2.1807,-2.1807,-2.1807,-2.1807,-2.1807,-2.1807,-2.1807,-2.1807,-2.1807,-2.1807,-2.1807,-2.1807,-2.1807,-2.1807,-2.1807,-2.1807,-2.1807,-2.1807,-2.1807,-2.1807,-2.1807,-2.1807,-2.1766,-2.1807,-2.1766,-2.2069,-2.2371,-2.2328,-2.2654,-2.3062,-2.0291,-2.062,-2.0865,-2.0818,-2.0585,-2.0872,-2.1043,-2.1139,-2.1148,-2.1139,-2.1139,-2.1045,-2.1105,-2.1284,-2.1281,-2.1624,-2.2317,-2.2418,-2.288,-2.3526,-2.3857,-2.4176,-2.4505,-2.4877,-2.5157,-2.5192,-2.5396,-2.5509,-2.5475,-2.5564,-2.5564,-2.5544,-2.5347,-2.4954,-2.4352,-2.4342,-2.4394,-2.4507,-2.4507,-2.4507,-2.4507,-2.4507,-2.4507,-2.4507,-2.4507,-2.4507,-2.4497,-2.4115,-2.3877,-2.3867,-2.3329,-2.2851,-2.2434,-2.2025,0.0,0.0,0.0,0.0,0.0,0.0,0.0,0.0,0.0,-1.9174,-1.9789,0.0,-2.0384,0.0,-2.1373,-2.1631,-2.1631,-2.1735,0.0,0.0,-2.168,-2.1638,-2.1561,-2.1551,-2.1593,-2.1707,-2.168,-2.1683,-2.1787,-2.1807,-2.1807,-2.1807,-2.1807,-2.1807,-2.1807,-2.1807,-2.1807,-2.1807,-2.1807,-2.1807,-2.1807,-2.1807,-2.1807,-2.1807,-2.1807,-2.1807,-2.1807,-2.1807,-2.1807,-2.1807,-2.1807,-2.1807,-2.1807,-2.1807,-2.1807,-2.1807,-2.2101,-2.2392,-2.2392,-2.2852,-2.3298,-2.1019,-2.1275,-2.1573,-2.1544,-2.1312,-2.1308,-2.1334,-2.1405,-2.1405,-2.1405,-2.1405,-2.15,-2.1748,-2.1986,-2.2215,-2.2555,-2.3027,-2.3458,-2.3877,-2.4295,-2.4776,-2.5051,-2.5234,-2.5553,-2.5725,-2.5725,-2.585,-2.593,-2.593,-2.593,-2.593,-2.593,-2.593,-2.5637,-2.514,-2.491,-2.4704,-2.4507,-2.4507,-2.4507,-2.4507,-2.4507,-2.4507,-2.4507,-2.4507,-2.4507,-2.4507,-2.4259,-2.4178,-2.4157,-2.3743,-2.3381,-2.3162,-2.2795,-2.2234,0.0,0.0,0.0,0.0,0.0,0.0,0.0,0.0,0.0,0.0,0.0,-2.0928,0.0,-2.1662,0.0,-2.1807,-2.1807,-2.1807,-2.1807,-2.1807,-2.1807,-2.1807,-2.1807,-2.1807,-2.1807,-2.1807,-2.1807,-2.1807,-2.1807,-2.1807,-2.1807,-2.1807,-2.1807,-2.1807,-2.1807,-2.1807,-2.1807,-2.1807,-2.1807,-2.1807,-2.1807,-2.1807,-2.1807,-2.1807,-2.1807,-2.1807,-2.1807,-2.1807,-2.1807,-2.1807,-2.1807,-2.1807,-2.1807,-2.1807,-2.1845,-2.2149,-2.2365,-2.2392,-2.2879,-2.3383,-2.1522,-2.1776,-2.2021,-2.2123,-2.2156,-2.1853,-2.168,-2.155,-2.1559,-2.1559,-2.1599,-2.1887,-2.2175,-2.247,-2.2994,-2.3278,-2.3419,-2.4273,-2.4702,-2.4841,-2.5452,-2.5783,-2.5818,-2.6026,-2.6107,-2.6107,-2.6107,-2.6107,-2.6107,-2.6061,-2.6051,-2.6051,-2.6096,-2.603,-2.6003,-2.5595,-2.5106,-2.459,-2.4538,-2.4507,-2.4507,-2.4507,-2.4507,-2.4507,-2.4507,-2.4507,-2.4507,-2.4507,-2.4507,-2.4487,-2.4167,-2.3929,-2.3867,-2.3494,-2.2964,0.0,-2.2188,0.0,0.0,0.0,0.0,0.0,0.0,0.0,0.0,-2.1129,-2.1373,-2.1766,-2.1807,-2.1807,-2.1807,-2.1807,-2.1807,-2.1807,-2.1807,-2.1807,-2.1807,-2.1807,-2.1807,-2.1807,-2.1807,-2.1807,-2.1807,-2.1807,-2.1807,-2.1807,-2.1807,-2.1807,-2.1807,-2.1807,-2.1807,-2.1807,-2.1859,-2.1973,-2.2035,-2.1973,-2.1921,-2.1911,-2.1849,-2.1807,-2.1807,-2.1807,-2.1807,-2.1807,-2.1807,-2.1807,-2.1807,-2.1807,-2.1807,-2.1807,-2.2111,-2.2402,-2.2478,-2.2916,-2.3372,-2.1776,-2.203,-2.208,-2.2274,-2.2485,-2.2416,-2.2398,-2.2379,-2.2388,-2.2479,-2.2728,-2.3157,-2.3462,-2.3757,-2.4051,-2.4579,-2.5208,-2.5401,-2.5805,-2.6455,-2.6598,-2.6787,-2.6956,-2.6993,-2.704,-2.705,-2.704,-2.704,-2.704,-2.704,-2.705,-2.704,-2.704,-2.6864,-2.6501,0.0,0.0,0.0,-2.4693,-2.4507,-2.4507,-2.4507,-2.4507,-2.4507,-2.4507,0.0,-2.4507,-2.4507,-2.4507,-2.4497,-2.4414,0.0,0.0,0.0,0.0,0.0,0.0,0.0,0.0,0.0,0.0,0.0,-2.1514,-2.1342,-2.1145,-2.1455,-2.1714,-2.1797,-2.1807,-2.1807,-2.1807,-2.1807,-2.1807,-2.1807,-2.1807,-2.1807,-2.1807,-2.1807,-2.1807,-2.1807,-2.1807,-2.1807,-2.1807,-2.1807,-2.1807,-2.1807,-2.1807,-2.1807,-2.1818,-2.1828,-2.1818,-2.1828,-2.2149,-2.2501,-2.2863,-2.2604,-2.2377,-2.2335,-2.2035,-2.1838,-2.1828,-2.1807,-2.1807,-2.1807,-2.1807,-2.1807,-2.1807,-2.1807,-2.1807,-2.1807,-2.2101,-2.2392,-2.244,-2.3001,-2.3593,-2.2241,0.0,-2.2333,-2.2443,0.0,-2.2745,-2.2795,-2.2804,-2.2795,-2.3088,-2.3546,-2.3786,-2.4192,-2.4735,-2.4971,-2.5411,-2.5897,-2.6197,-2.6544,-2.69,-2.7034,-2.7167,-2.732,-2.732,-2.732,-2.732,-2.732,-2.732,-2.732,-2.732,-2.732,-2.732,-2.732,-2.7185,-2.6957,-2.6729,-2.6123,-2.5199,-2.4962,-2.4735,-2.4518,-2.4507,-2.4507,-2.4507,0.0,0.0,0.0,0.0,0.0,0.0,0.0,0.0,0.0,0.0,0.0,-2.3598,-2.3308,-2.308,-2.2853,-2.2615,-2.2387,-2.2159,-2.1932,-2.1714,-2.1476,-2.1673,-2.1807,-2.1807,-2.1807,-2.1807,-2.1807,-2.1807,-2.1807,-2.1807,-2.1807,-2.1807,-2.1807,-2.1807,-2.1807,-2.1807,-2.1807,-2.1807,-2.1807,-2.1807,-2.1807,-2.1818,-2.2014,-2.2139,-2.2149,-2.2149,-2.2211,-2.2449,-2.2666,-2.2915,-2.3111,-2.3018,-2.2842,-2.2791,-2.2449,-2.218,-2.2139,-2.1952,-2.1807,-2.1807,-2.1807,-2.1807,-2.1807,-2.1807,-2.1807,-2.1845,-2.2138,-2.2402,-2.244,-2.3038,-2.3666,-2.2644,-2.2695,-2.2653,-2.2695,-2.2745,-2.3005,-2.3097,-2.3197,0.0,0.0,0.0,-2.4273,-2.4775,-2.5382,-2.5703,-2.5994,-2.6245,-2.6699,-2.69,-2.6996,-2.7214,-2.732,-2.732,-2.732,-2.732,-2.732,-2.732,-2.732,-2.732,-2.732,-2.732,-2.732,-2.732,-2.732,-2.7278,-2.6926,-2.6289,-2.5513,-2.5272,-2.4962,-2.4518,-2.4507,-2.4507,-2.4507,-2.4507,-2.4507,-2.4507,-2.4507,-2.4507,-2.4507,-2.4507,-2.4507,-2.4507,-2.4507,-2.4385,-2.4033,-2.3961,-2.3712,-2.3339,-2.3236,-2.3018,-2.2646,-2.219,-2.189,-2.1818,-2.1807,-2.1807,-2.1807,-2.1807,-2.1807,-2.1807,-2.1807,-2.1807,-2.1807,-2.1807,-2.1807,-2.1807,-2.1807,-2.1807,-2.1807,-2.1807,-2.1807,-2.1807,-2.1807,-2.1849,-2.1963,-2.2242,-2.2594,-2.2687,-2.2687,-2.277,-2.3174,-2.3298,-2.3339,-2.3412,-2.335,-2.3318,-2.3298,-2.2925,-2.2615,-2.2459,-2.219,-2.1932,-2.1818,-2.1807,-2.1807,-2.1807,-2.1807,-2.1807,-2.1807,-2.2138,-2.2392,-2.2467,-2.3038,-2.3666,-2.2754,-2.2955,-2.2946,-2.3097,-2.3297,-2.3356,-2.3538,-2.3935,-2.3935,-2.4035,-2.4125,-2.5109,-2.5548,-2.5654,-2.6149,-2.6544,-2.6794,-2.6853,-2.7044,0.0,-2.7262,-2.732,-2.732,-2.732,-2.732,-2.732,-2.732,-2.732,-2.732,-2.732,-2.732,-2.732,-2.732,-2.732,-2.7309,-2.7237,-2.6957,-2.6428,-2.5616,-2.4962,-2.4507,-2.4507,-2.4507,-2.4507,-2.4507,-2.4507,-2.4507,-2.4507,-2.4507,-2.4507,-2.4507,-2.4507,-2.4507,-2.4507,-2.4466,-2.4394,-2.4095,-2.3888,-2.3815,-2.3412,-2.3163,-2.307,-2.2656,-2.2232,-2.1849,-2.1807,-2.1807,-2.1807,-2.1807,-2.1807,-2.1807,-2.1807,-2.1807,-2.1807,-2.1807,-2.1807,-2.1807,-2.1807,-2.1807,-2.1807,-2.1807,-2.1818,-2.1849,-2.1838,-2.1994,-2.2304,-2.2553,-2.2801,-2.3401,-2.338,-2.3318,-2.366,-2.3826,-2.3939,-2.4136,-2.4002,-2.3815,-2.3826,-2.3432,-2.2977,-2.2666,-2.2459,-2.2242,-2.188,-2.1828,-2.1807,-2.1807,-2.1807,-2.1807,-2.1807,-2.2138,-2.2402,-2.244,-2.3038,-2.3714,-2.343,-2.3496,-2.3344,-2.3338,-2.3587,-2.3886,-2.4183,-2.4538,-2.4864,-2.4962,-2.5011,-2.5499,-2.5945,-2.6352,-2.6602,-2.6842,-2.7129,-2.7129,-2.7167,-2.7309,-2.732,-2.732,-2.732,-2.732,-2.732,-2.732,-2.732,-2.732,-2.732,-2.732,-2.732,-2.732,-2.732,-2.732,-2.732,-2.732,-2.7081,-2.6625,-2.5916,-2.5368,-2.489,-2.4631,-2.4507,-2.4507,-2.4507,-2.4507,-2.4507,-2.4507,-2.4507,-2.4507,-2.4507,-2.4507,-2.4507,-2.4507,-2.4507,-2.4497,-2.4311,-2.4229,-2.424,-2.3815,-2.3567,-2.3546,-2.3132,-2.278,-2.2573,-2.2087,-2.1807,-2.1807,-2.1807,-2.1807,-2.1807,-2.1807,-2.1807,-2.1807,-2.1807,-2.1807,-2.1807,-2.1807,-2.1807,-2.1807,-2.1807,-2.1901,-2.2149,-2.218,-2.2346,-2.278,-2.306,-2.3505,-2.4126,-2.4022,-2.3981,-2.4188,-2.4229,-2.4312,-2.4456,-2.4352,-2.425,-2.424,-2.3867,-2.3515,-2.3225,-2.2915,-2.2449,-2.2211,-2.1994,-2.1828,-2.1807,-2.1807,-2.1807,-2.1845,-2.2101,-2.2365,-2.2515,-2.3113,-2.3897,-2.4286,-2.4221,-2.3916,-2.3877,-2.4035,-2.448,-2.4824,-2.5118,-2.5596,-2.5849,-2.5945,-2.5936,-2.6352,-2.69,-2.6938,-2.7081,-2.7272,-2.732,-2.732,-2.732,-2.732,-2.732,-2.732,-2.732,-2.732,-2.732,-2.732,-2.732,-2.732,-2.732,-2.732,-2.732,-2.732,-2.732,-2.732,-2.732,-2.7133,-2.676,-2.621,-2.5668,-2.5244,-2.4735,-2.4507,-2.4507,-2.4507,-2.4507,-2.4507,-2.4507,-2.4507,-2.4507,-2.4507,-2.4507,-2.4507,-2.4507,-2.4507,-2.4507,-2.4507,-2.4507,-2.4487,-2.4229,-2.4022,-2.4022,-2.3598,-2.338,-2.3287,-2.2594,-2.2076,-2.1973,-2.188,-2.1807,-2.1807,-2.1807,-2.1807,-2.1807,-2.1807,-2.1807,-2.1807,-2.1807,-2.1807,-2.1818,-2.189,-2.2118,-2.2408,-2.2584,-2.2832,-2.3277,-2.3743,-2.4167,-2.4425,-2.4507,-2.4507,-2.4507,-2.4507,-2.4487,-2.4507,-2.4497,-2.4476,-2.4507,-2.426,-2.3981,-2.3774,-2.3225,-2.2729,-2.2542,-2.2211,-2.1963,-2.1849,-2.1807,-2.1807,-2.1807,-2.2138,-2.2488,-2.274,-2.3335,-2.408,-2.5232,-2.5071,-2.5056,-2.4933,-2.4843,-2.5079,-2.5372,-2.5645,-2.5945,-2.6342,-2.6688,-2.6794,-2.6805,-2.6948,-2.7129,-2.7262,-2.732,-2.732,-2.732,-2.732,-2.732,-2.732,-2.732,-2.732,-2.732,-2.732,-2.732,-2.732,-2.732,-2.732,-2.732,-2.732,-2.732,-2.732,-2.732,-2.732,-2.7278,-2.7226,-2.6376,-2.5668,-2.5189,-2.4735,-2.4507,-2.4507,-2.4507,-2.4507,-2.4507,-2.4507,-2.4507,-2.4507,-2.4507,-2.4507,-2.4507,-2.4507,-2.4507,-2.4507,-2.4507,-2.4507,-2.4497,-2.4466,-2.4414,-2.4404,-2.4053,-2.3857,-2.3795,-2.335,-2.2873,-2.2511,-2.2076,-2.1849,-2.1807,-2.1807,-2.1807,-2.1807,-2.1807,-2.1807,-2.1807,-2.1807,-2.1807,-2.1807,-2.2159,-2.2459,-2.2604,-2.2936,-2.3329,-2.3753,-2.4136,-2.4383,-2.4466,-2.4507,-2.4507,-2.4507,-2.4507,-2.4507,-2.4507,-2.4507,-2.4507,-2.4497,-2.4476,-2.4302,-2.4002,-2.3795,-2.3577,-2.2863,-2.2522,-2.2325,-2.1983,-2.1807,-2.1828,-2.1845,-2.2138,-2.259,-2.3261,-2.3677,-2.4091,-2.6739,-2.6641,-2.6109,-2.5807,-2.5693,-2.5917,-2.6052,-2.6197,-2.6438,-2.6699,-2.69,-2.7081,-2.7129,-2.7129,-2.7262,-2.732,-2.732,-2.732,-2.732,-2.732,-2.732,-2.732,-2.732,-2.732,-2.732,-2.732,-2.732,-2.732,-2.732,-2.732,-2.732,-2.732,-2.732,-2.732,-2.732,-2.732,-2.732,-2.7278,-2.6397,-2.5792,-2.5564,-2.4869,-2.4507,-2.4507,-2.4507,-2.4507,-2.4507,-2.4507,-2.4507,-2.4507,-2.4507,-2.4507,-2.4507,-2.4507,-2.4507,-2.4507,-2.4507,-2.4507,-2.4507,-2.4507,-2.4507,-2.4507,-2.4332,-2.4228,-2.425,-2.3857,-2.3494,-2.3277,-2.2656,-2.2118,-2.1869,-2.1807,-2.1807,-2.1807,-2.1807,-2.1807,-2.1807,-2.1818,-2.1901,-2.217,-2.2366,-2.2749,-2.3236,-2.3701,-2.4033,-2.425,-2.4404,-2.4497,-2.4507,-2.4507,-2.4507,-2.4507,-2.4507,-2.4507,-2.4507,-2.4507,-2.4507,-2.4507,-2.4507,-2.4383,-2.4312,-2.4002,-2.3712,-2.338,-2.3091,-2.2749,-2.2315,-2.2201,-2.2159,-2.206,-2.2149,-2.259,-2.3298,-2.3556,-2.3934,-2.8048,-2.7811,-2.6961,-2.6448,-2.6255,-2.6496,-2.6602,-2.6651,-2.689,-2.6996,-2.7034,-2.7214,-2.732,-2.732,-2.732,-2.732,-2.732,-2.732,-2.732,-2.732,-2.732,-2.732,-2.732,-2.732,-2.732,-2.732,-2.732,-2.732,-2.732,-2.732,-2.732,-2.732,-2.732,-2.732,-2.732,-2.732,-2.732,-2.7226,-2.6397,-2.593,-2.5761,-2.4962,-2.4507,-2.4507,-2.4507,-2.4507,-2.4507,-2.4507,-2.4507,-2.4507,-2.4507,-2.4507,-2.4507,-2.4507,-2.4507,-2.4507,-2.4507,-2.4507,-2.4507,-2.4507,-2.4507,-2.4507,-2.4507,-2.4507,-2.4445,-2.425,-2.4012,-2.3815,-2.3267,-2.2666,-2.2087,-2.188,-2.1807,-2.1807,-2.1807,-2.1838,-2.1973,-2.2004,-2.219,-2.2604,-2.2842,-2.3163,-2.3898,-2.4302,-2.4456,-2.4476,-2.4487,-2.4507,-2.4507,-2.4507,-2.4507,-2.4507,-2.4507,-2.4507,-2.4507,-2.4507,-2.4507,-2.4507,-2.4507,-2.4507,-2.4507,-2.4229,-2.3939,-2.3691,-2.3505,-2.3246,-2.2822,-2.2666,-2.2571,-2.2254,-2.2313,-2.2681,-2.3354,-2.362,-2.4118,-2.8818,-2.8367,-2.7532,-2.6929,-2.6496,-2.6757,-2.69,-2.69,-2.7177,-2.7262,-2.7262,-2.7309,-2.732,-2.732,-2.732,-2.732,-2.732,-2.732,-2.732,-2.732,-2.732,-2.732,-2.732,-2.732,-2.732,-2.732,-2.732,-2.732,-2.732,-2.732,-2.732,-2.732,-2.732,-2.732,-2.732,-2.732,-2.732,-2.7216,-2.6387,-2.593,-2.5771,-2.4952,-2.4507,-2.4507,-2.4507,-2.4507,-2.4507,-2.4507,-2.4507,-2.4507,-2.4507,-2.4507,-2.4507,-2.4507,-2.4507,-2.4507,-2.4507,-2.4507,-2.4507,-2.4507,-2.4507,-2.4507,-2.4507,-2.4507,-2.4507,-2.4445,-2.4302,-2.3929,-2.3795,-2.337,-2.2625,-2.2139,-2.188,-2.1859,-2.1828,-2.2025,-2.2418,-2.247,-2.2677,-2.3101,-2.3505,-2.3898,-2.4373,-2.4487,-2.4507,-2.4507,-2.4507,-2.4507,-2.4507,-2.4507,-2.4507,-2.4507,-2.4507,-2.4507,-2.4507,-2.4507,-2.4507,-2.4507,-2.4507,-2.4507,-2.4507,-2.4435,-2.424,-2.4053,-2.3929,-2.3681,-2.3318,-2.31,-2.2993,-2.2788,-2.2615,-2.2955,-2.358,-2.406,-2.4529,-2.9239,-2.8543,-2.8215,-2.7662,-2.7044,-2.7129,-2.7177,-2.7167,-2.7262,-2.732,-2.732,-2.732,-2.732,-2.732,-2.732,-2.732,-2.732,-2.732,-2.732,-2.732,-2.732,-2.732,-2.732,-2.732,-2.732,-2.732,-2.732,-2.732,-2.732,-2.732,-2.732,-2.732,-2.732,-2.732,-2.732,-2.732,-2.732,-2.7216,-2.6397,-2.593,-2.5802,-2.5006,-2.4507,-2.4507,-2.4507,-2.4507,-2.4507,-2.4507,-2.4507,-2.4507,-2.4507,-2.4507,-2.4507,-2.4507,-2.4507,-2.4507,-2.4507,-2.4507,-2.4507,-2.4507,-2.4507,-2.4507,-2.4507,-2.4507,-2.4507,-2.4497,-2.4425,-2.4302,-2.4012,-2.3722,-2.337,-2.2708,-2.2252,-2.2242,-2.2263,-2.2428,-2.2801,-2.2936,-2.3111,-2.3567,-2.4022,-2.4332,-2.4435,-2.4507,-2.4507,-2.4507,-2.4507,-2.4507,-2.4507,-2.4507,-2.4507,-2.4507,-2.4507,-2.4507,-2.4507,-2.4507,-2.4507,-2.4507,-2.4507,-2.4507,-2.4507,-2.4507,-2.4311,-2.428,-2.424,-2.4095,-2.3722,-2.3339,-2.3244,-2.3259,-2.3089,-2.325,-2.3895,-2.4337,-2.4803,-2.9321,-2.8649,-2.8452,-2.7955,-2.7351,-2.732,-2.732,-2.732,-2.732,-2.732,-2.732,-2.732,-2.732,-2.732,-2.732,-2.732,-2.732,-2.732,-2.732,-2.732,-2.732,-2.732,-2.732,-2.732,-2.732,-2.732,-2.732,-2.732,-2.732,-2.732,-2.732,-2.732,-2.732,-2.732,-2.732,-2.732,-2.7258,-2.6967,-2.6314,-2.5823,-2.5595,-2.489,-2.4507,-2.4507,-2.4507,-2.4507,-2.4507,-2.4507,-2.4507,-2.4507,-2.4507,-2.4507,-2.4507,-2.4507,-2.4507,-2.4507,-2.4507,-2.4507,-2.4507,-2.4507,-2.4507,-2.4507,-2.4507,-2.4507,-2.4507,-2.4507,-2.4507,-2.4435,-2.4302,-2.4064,-2.3805,-2.3308,-2.2884,-2.276,-2.2729,-2.2915,-2.3329,-2.3401,-2.3619,-2.4012,-2.429,-2.4476,-2.4507,-2.4507,-2.4507,-2.4507,-2.4507,-2.4507,-2.4507,-2.4507,-2.4507,-2.4507,-2.4507,-2.4507,-2.4507,-2.4507,-2.4507,-2.4507,-2.4507,-2.4507,-2.4507,-2.4507,-2.4507,-2.4507,-2.4445,-2.4321,-2.4105,-2.3701,-2.3587,-2.3616,-2.3537,-2.3557,-2.41,-2.4592,-2.5072,-2.9042,-2.8576,-2.8072,-2.7707,-2.734,-2.732,-2.732,-2.732,-2.732,-2.732,-2.732,-2.732,-2.732,-2.732,-2.732,-2.732,-2.732,-2.732,-2.732,-2.732,-2.732,-2.732,-2.732,-2.732,-2.732,-2.732,-2.732,-2.732,-2.732,-2.732,-2.732,-2.732,-2.732,-2.732,-2.732,-2.7258,-2.7061,-2.6646,-2.6138,-2.5647,-2.5199,-2.4745,-2.4507,-2.4507,-2.4507,-2.4507,-2.4507,-2.4507,-2.4507,-2.4507,-2.4507,-2.4507,-2.4507,-2.4507,-2.4507,-2.4507,-2.4507,-2.4507,-2.4507,-2.4507,-2.4507,-2.4507,-2.4507,-2.4507,-2.4507,-2.4507,-2.4507,-2.4497,-2.4456,-2.4364,-2.4012,-2.3857,-2.365,-2.3287,-2.3194,-2.3391,-2.3795,-2.3919,-2.4043,-2.4395,-2.4497,-2.4497,-2.4507,-2.4507,-2.4507,-2.4507,-2.4507,-2.4507,-2.4507,-2.4507,-2.4507,-2.4507,-2.4507,-2.4507,-2.4507,-2.4507,-2.4507,-2.4507,-2.4507,-2.4507,-2.4507,-2.4507,-2.4507,-2.4507,-2.4507,-2.4394,-2.4363,-2.4053,-2.395,-2.395,-2.3865,-2.3882,-2.4369,-2.4869,-2.536,-2.9032,-2.8576,-2.8061,-2.7665,-2.734,-2.732,-2.732,-2.732,-2.732,-2.732,-2.732,-2.732,-2.732,-2.732,-2.732,-2.732,-2.732,-2.732,-2.732,-2.732,-2.732,-2.732,-2.732,-2.732,-2.732,-2.732,-2.732,-2.732,-2.732,-2.732,-2.732,-2.732,-2.732,-2.732,-2.7299,-2.6998,-2.6739,-2.6553,-2.5813,-2.5368,-2.5158,-2.4735,-2.4507,-2.4507,-2.4507,-2.4507,-2.4507,-2.4507,-2.4507,-2.4507,-2.4507,-2.4507,-2.4507,-2.4507,-2.4507,-2.4507,-2.4507,-2.4507,-2.4507,-2.4507,-2.4507,-2.4507,-2.4507,-2.4507,-2.4507,-2.4507,-2.4507,-2.4507,-2.4497,-2.4414,-2.4321,-2.4333,-2.4126,-2.3712,-2.367,-2.3826,-2.4198,-2.4312,-2.4352,-2.4456,-2.4507,-2.4507,-2.4507,-2.4507,-2.4507,-2.4507,-2.4507,-2.4507,-2.4507,-2.4507,-2.4507,-2.4507,-2.4507,-2.4507,-2.4507,-2.4507,-2.4507,-2.4507,-2.4507,-2.4507,-2.4507,-2.4507,-2.4507,-2.4507,-2.4507,-2.4497,-2.4466,-2.4394,-2.4291,-2.4323,-2.4346,-2.4493,-2.4735,-2.5103,-2.5492,-2.8628,-2.8307,-2.7862,-2.7521,-2.732,-2.732,-2.732,-2.732,-2.732,-2.732,-2.732,-2.732,-2.732,-2.732,-2.732,-2.732,-2.732,-2.732,-2.732,-2.732,-2.732,-2.732,-2.732,-2.732,-2.732,-2.732,-2.732,-2.732,-2.732,-2.732,-2.732,-2.732,-2.732,-2.732,-2.7268,-2.6853,-2.6553,-2.6248,-2.5606,-2.5106,-2.491,-2.4652,-2.4507,-2.4507,-2.4507,-2.4507,-2.4507,-2.4507,-2.4507,-2.4507,-2.4507,-2.4507,-2.4507,-2.4507,-2.4507,-2.4507,-2.4507,-2.4507,-2.4507,-2.4507,-2.4507,-2.4507,-2.4507,-2.4507,-2.4507,-2.4507,-2.4507,-2.4507,-2.4507,-2.4507,-2.4497,-2.4497,-2.4363,-2.4167,-2.4126,-2.425,-2.4456,-2.4507,-2.4497,-2.4507,-2.4507,-2.4507,-2.4507,-2.4507,-2.4507,-2.4507,-2.4507,-2.4507,-2.4507,-2.4507,-2.4507,-2.4507,-2.4507,-2.4507,-2.4507,-2.4507,-2.4507,-2.4507,-2.4507,-2.4507,-2.4507,-2.4507,-2.4507,-2.4507,-2.4507,-2.4507,-2.4476,-2.4487,-2.4414,-2.4615,-2.4658,-2.4744,-2.4766,-2.4957,-2.5295,-2.7886,-2.7872,-2.7496,-2.734,-2.732,-2.732,-2.732,-2.732,-2.732,-2.732,-2.732,-2.732,-2.732,-2.732,-2.732,-2.732,-2.732,-2.732,-2.732,-2.732,-2.732,-2.732,-2.732,-2.732,-2.732,-2.732,-2.732,-2.732,-2.732,-2.732,-2.732,-2.732,-2.732,-2.7278,-2.7133,-2.6791,-2.6268,-2.5844,-2.5388,-2.491,-2.4559,-2.4518,-2.4507,-2.4507,-2.4507,-2.4507,-2.4507,-2.4507,-2.4507,-2.4507,-2.4507,-2.4507,-2.4507,-2.4507,-2.4507,-2.4507,-2.4507,-2.4507,-2.4507,-2.4507,-2.4507,-2.4507,-2.4507,-2.4507,-2.4507,-2.4507,-2.4507,-2.4507,-2.4507,-2.4507,-2.4507,-2.4507,-2.4476,-2.4497,-2.4425,-2.4456,-2.4487,-2.4507,-2.4507,-2.4507,-2.4507,-2.4507,-2.4507,-2.4507,-2.4507,-2.4507,-2.4507,-2.4507,-2.4507,-2.4507,-2.4507,-2.4507,-2.4507,-2.4507,-2.4507,-2.4507,-2.4507,-2.4507,-2.4507,-2.4507,-2.4507,-2.4507,-2.4507,-2.4507,-2.4466,-2.4476,-2.4497,-2.4497,-2.4497,-2.454,-2.4583,-2.4658,-2.4681,-2.4703,-2.4745,-2.7875,-2.7872,-2.7438,-2.732,-2.732,-2.732,-2.732,-2.732,-2.732,-2.732,-2.732,-2.732,-2.732,-2.732,-2.732,-2.732,-2.732,-2.732,-2.732,-2.732,-2.732,-2.732,-2.732,-2.732,-2.732,-2.732,-2.732,-2.732,-2.732,-2.732,-2.732,-2.732,-2.7309,-2.7123,-2.6781,-2.6366,-2.5844,-2.5409,-2.491,-2.4662,-2.4538,-2.4507,-2.4507,-2.4507,-2.4507,-2.4507,-2.4507,-2.4507,-2.4507,-2.4507,-2.4507,-2.4507,-2.4507,-2.4507,-2.4507,-2.4507,-2.4507,-2.4507,-2.4507,-2.4507,-2.4507,-2.4507,-2.4507,-2.4507,-2.4507,-2.4507,-2.4507,-2.4507,-2.4507,-2.4507,-2.4507,-2.4507,-2.4507,-2.4507,-2.4507,-2.4507,-2.4507,-2.4507,-2.4507,-2.4507,-2.4507,-2.4507,-2.4507,-2.4507,-2.4507,-2.4507,-2.4507,-2.4507,-2.4507,-2.4507,-2.4507,-2.4507,-2.4507,-2.4507,-2.4507,-2.4507,-2.4507,-2.4507,-2.4507,-2.4507,-2.4507,-2.4507,-2.4507,-2.4507,-2.4383,-2.4363,-2.4435,-2.4476,-2.4487,-2.4301,-2.4229,-2.4148,-2.4044,-2.4043,-2.3937,-2.7645,-2.7634,-2.7413,-2.732,-2.732,-2.732,-2.732,-2.732,-2.732,-2.732,-2.732,-2.732,-2.732,-2.732,-2.732,-2.732,-2.732,-2.732,-2.732,-2.732,-2.732,-2.732,-2.732,-2.732,-2.732,-2.732,-2.732,-2.732,-2.732,-2.732,-2.732,-2.732,-2.732,-2.7071,-2.6625,-2.6113,-2.5658,-2.5189,-2.4745,-2.4507,-2.4507,-2.4507,-2.4507,-2.4507,-2.4507,-2.4507,-2.4507,-2.4507,-2.4507,-2.4507,-2.4507,-2.4507,-2.4507,-2.4507,-2.4507,-2.4507,-2.4507,-2.4507,-2.4507,-2.4507,-2.4507,-2.4507,-2.4507,-2.4507,-2.4507,-2.4507,-2.4507,-2.4507,-2.4507,-2.4507,-2.4507,-2.4507,-2.4507,-2.4507,-2.4507,-2.4507,-2.4507,-2.4507,-2.4507,-2.4507,-2.4507,-2.4507,-2.4507,-2.4507,-2.4507,-2.4507,-2.4507,-2.4507,-2.4507,-2.4507,-2.4507,-2.4507,-2.4507,-2.4507,-2.4507,-2.4507,-2.4445,-2.4445,-2.4311,-2.4352,-2.4363,-2.4383,-2.4435,-2.4394,-2.4301,-2.4218,-2.4208,-2.4157,-2.3888,-2.3732,-2.3691,-2.3639,-2.3556,-2.342,-2.3302,-2.732,-2.732,-2.732,-2.732,-2.732,-2.732,-2.732,-2.732,-2.732,-2.732,-2.732,-2.732,-2.732,-2.732,-2.732,-2.732,-2.732,-2.732,-2.732,-2.732,-2.732,-2.732,-2.732,-2.732,-2.732,-2.732,-2.732,-2.732,-2.732,-2.732,-2.732,-2.7278,-2.7258,-2.6957,-2.6459,-2.5999,-2.5595,-2.5075,-2.4693,-2.4507,-2.4507,-2.4507,-2.4507,-2.4507,-2.4507,-2.4507,-2.4507,-2.4507,-2.4507,-2.4507,-2.4507,-2.4507,-2.4507,-2.4507,-2.4507,-2.4507,-2.4507,-2.4507,-2.4507,-2.4507,-2.4507,-2.4507,-2.4507,-2.4507,-2.4487,-2.4435,-2.4352,-2.4385,-2.4383,-2.429,-2.4383,-2.4435,-2.4507,-2.4507,-2.4507,-2.4507,-2.4507,-2.4507,-2.4507,-2.4507,-2.4507,-2.4507,-2.4507,-2.4507,-2.4507,-2.4507,-2.4507,-2.4507,-2.4507,-2.4507,-2.4507,-2.4507,-2.4507,-2.4507,-2.4507,-2.4507,-2.4414,-2.4342,-2.4115,-2.4053,-2.4115,-2.4167,-2.4249,-2.4218,-2.395,-2.3795,-2.3784,-2.3598,-2.3339,-2.3256,-2.3277,-2.3194,-2.311,-2.2882,-2.2754,-2.732,-2.732,-2.732,-2.732,-2.732,-2.732,-2.732,-2.732,-2.732,-2.732,-2.732,-2.732,-2.732,-2.732,-2.732,-2.732,-2.732,-2.732,-2.732,-2.732,-2.732,-2.732,-2.732,-2.732,-2.732,-2.732,-2.732,-2.732,-2.732,-2.732,-2.732,-2.7278,-2.6957,-2.6542,-2.6107,-2.5658,-2.5106,-2.4714,-2.4538,-2.4507,-2.4507,-2.4464,-2.4454,-2.4454,-2.4454,-2.4497,-2.4507,-2.4507,-2.4507,-2.4507,-2.4507,-2.4507,-2.4507,-2.4507,-2.4507,-2.4507,-2.4507,-2.4507,-2.4507,-2.4507,-2.4507,-2.4507,-2.4507,-2.4497,-2.4466,-2.4219,-2.4064,-2.395,-2.3712,-2.3732,-2.4043,-2.4321,-2.4445,-2.4487,-2.4507,-2.4507,-2.4507,-2.4507,-2.4507,-2.4507,-2.4507,-2.4507,-2.4507,-2.4507,-2.4507,-2.4507,-2.4507,-2.4507,-2.4507,-2.4507,-2.4507,-2.4507,-2.4507,-2.4476,-2.4301,-2.4239,-2.4115,-2.4053,-2.3867,-2.3639,-2.367,-2.3732,-2.3784,-2.366,-2.3422,-2.3339,-2.3318,-2.3225,-2.3008,-2.2967,-2.2873,-2.2739,-2.2584,-2.2366,-2.2283,-2.732,-2.732,-2.732,-2.732,-2.732,-2.732,-2.732,-2.732,-2.732,-2.732,-2.732,-2.732,-2.732,-2.732,-2.732,-2.732,-2.732,-2.732,-2.732,-2.732,-2.732,-2.732,-2.732,-2.732,-2.732,-2.732,-2.732,-2.732,-2.732,-2.732,-2.732,-2.7278,-2.6832,-2.6407,-2.593,-2.5396,-2.4983,-2.4611,-2.4507,-2.4454,-2.4378,-2.4368,-2.4282,-2.4196,-2.4196,-2.4186,-2.4153,-2.4292,-2.4335,-2.4378,-2.4464,-2.4507,-2.4507,-2.4507,-2.4507,-2.4507,-2.4507,-2.4507,-2.4507,-2.4507,-2.4507,-2.4507,-2.4507,-2.4363,-2.4281,-2.3991,-2.3774,-2.3577,-2.3401,-2.3421,-2.3826,-2.4033,-2.4271,-2.4476,-2.4507,-2.4507,-2.4507,-2.4507,-2.4507,-2.4507,-2.4507,-2.4507,-2.4507,-2.4507,-2.4507,-2.4507,-2.4507,-2.4507,-2.4507,-2.4507,-2.4507,-2.4507,-2.4507,-2.4404,-2.4188,-2.3971,-2.3691,-2.3588,-2.3474,-2.3205,-2.3029,-2.3111,-2.3194,-2.308,-2.2987,-2.2884,-2.2842,-2.2749,-2.2615,-2.2418,-2.2273,-2.2201,-2.2159,-2.2076,-2.2014,-2.732,-2.732,-2.732,-2.732,-2.732,-2.732,-2.732,-2.732,-2.732,-2.732,-2.732,-2.732,-2.732,-2.732,-2.732,-2.732,-2.732,-2.732,-2.732,-2.732,-2.732,-2.732,-2.732,-2.732,-2.732,-2.732,-2.732,-2.732,-2.732,-2.732,-2.732,-2.7216,-2.6739,-2.6293,-2.5844,-2.5357,-2.4825,-2.4452,-2.4411,-2.4325,-2.4153,-2.411,-2.4013,-2.3927,-2.3884,-2.3884,-2.3927,-2.4024,-2.412,-2.4153,-2.4282,-2.4368,-2.4411,-2.4507,-2.4507,-2.4507,-2.4507,-2.4507,-2.4507,-2.4507,-2.4507,-2.4507,-2.4404,-2.4271,-2.3981,-2.367,-2.3381,-2.3215,-2.3049,-2.3153,-2.3608,-2.3867,-2.4074,-2.429,-2.4435,-2.4507,-2.4507,-2.4507,-2.4507,-2.4507,-2.4507,-2.4507,-2.4507,-2.4507,-2.4507,-2.4507,-2.4507,-2.4487,-2.4476,-2.4456,-2.4435,-2.4353,-2.4302,-2.4084,-2.3815,-2.3453,-2.3194,-2.3091,-2.3008,-2.2749,-2.248,-2.2501,-2.2594,-2.2687,-2.2625,-2.2511,-2.2377,-2.2263,-2.2076,-2.1828,-2.1849,-2.1963,-2.1921,-2.1828,-2.1807,-2.732,-2.732,-2.732,-2.732,-2.732,-2.732,-2.732,-2.732,-2.732,-2.732,-2.732,-2.732,-2.732,-2.732,-2.732,-2.732,-2.732,-2.732,-2.732,-2.732,-2.732,-2.732,-2.732,-2.732,-2.732,-2.732,-2.732,-2.732,-2.732,-2.732,-2.732,-2.7133,-2.6434,-2.5947,-2.5699,-2.5075,-2.4512,-2.427,-2.4239,-2.411,-2.3884,-2.3797,-2.3754,-2.3667,-2.3624,-2.3667,-2.3711,-2.3797,-2.3841,-2.3841,-2.3884,-2.3927,-2.4013,-2.4282,-2.4454,-2.4464,-2.4507,-2.4507,-2.4507,-2.4507,-2.4507,-2.4425,-2.424,-2.3991,-2.3691,-2.3215,-2.2853,-2.2677,-2.2615,-2.2666,-2.2729,-2.3329,-2.3857,-2.4053,-2.4281,-2.4466,-2.4487,-2.4507,-2.4507,-2.4507,-2.4507,-2.4507,-2.4507,-2.4507,-2.4507,-2.4507,-2.4507,-2.4425,-2.4352,-2.4311,-2.4312,-2.4146,-2.4002,-2.3681,-2.337,-2.2956,-2.2635,-2.2553,-2.2439,-2.2252,-2.2035,-2.1952,-2.1994,-2.2211,-2.2221,-2.2087,-2.1942,-2.1859,-2.1838,-2.1807,-2.1807,-2.1807,-2.1807,-2.1807,-2.1807,-2.732,-2.732,-2.732,-2.732,-2.732,-2.732,-2.732,-2.732,-2.732,-2.732,-2.732,-2.732,-2.732,-2.732,-2.732,-2.732,-2.732,-2.732,-2.732,-2.732,-2.732,-2.732,-2.732,-2.732,-2.732,-2.732,-2.732,-2.732,-2.732,-2.732,-2.732,-2.7092,-2.6387,-2.585,-2.5564,-2.4807,-2.4268,-2.4067,-2.397,-2.3797,-2.345,-2.3266,-2.3101,-2.3101,-2.3101,-2.3047,-2.3091,-2.3232,-2.3319,-2.345,-2.359,-2.3677,-2.3797,-2.397,-2.4196,-2.4325,-2.4411,-2.4497,-2.4507,-2.4497,-2.4404,-2.4188,-2.3971,-2.3619,-2.3236,-2.2749,-2.2397,-2.2211,-2.2159,-2.2252,-2.2511,-2.2936,-2.338,-2.3805,-2.4084,-2.4249,-2.4425,-2.4487,-2.4507,-2.4507,-2.4507,-2.4507,-2.4507,-2.4507,-2.4507,-2.4507,-2.4497,-2.4373,-2.426,-2.4136,-2.4043,-2.367,-2.3452,-2.3132,-2.2853,-2.2553,-2.2263,-2.217,-2.2076,-2.188,-2.1807,-2.1818,-2.1818,-2.1911,-2.1828,-2.1807,-2.1818,-2.1828,-2.1818,-2.1807,-2.1807,-2.1807,-2.1807,-2.1807,-2.1807,-2.732,-2.732,-2.732,-2.732,-2.732,-2.732,-2.732,-2.732,-2.732,-2.732,-2.732,-2.732,-2.732,-2.732,-2.732,-2.732,-2.732,-2.732,-2.732,-2.732,-2.732,-2.732,-2.732,-2.732,-2.732,-2.732,-2.732,-2.732,-2.732,-2.732,-2.732,-2.7013,-2.6351,-2.577,-2.546,-2.4601,-2.4102,-2.3754,-2.3667,-2.3406,-2.2969,-2.2618,-2.2397,-2.2397,-2.2397,-2.2441,-2.253,-2.2662,-2.2838,-2.2969,-2.3144,-2.3319,-2.3493,-2.358,-2.3711,-2.398,-2.4196,-2.4368,-2.4401,-2.4257,-2.4124,-2.3971,-2.3701,-2.3194,-2.277,-2.2439,-2.219,-2.189,-2.1838,-2.1952,-2.2242,-2.2459,-2.2853,-2.335,-2.3722,-2.3991,-2.4281,-2.4394,-2.4497,-2.4507,-2.4497,-2.4487,-2.4476,-2.4507,-2.4507,-2.4383,-2.4416,-2.4209,-2.4043,-2.3784,-2.3577,-2.3122,-2.2791,-2.2522,-2.2304,-2.218,-2.2004,-2.1963,-2.1932,-2.1838,-2.1807,-2.1807,-2.1807,-2.1807,-2.1807,-2.1807,-2.1807,-2.1807,-2.1807,-2.1807,-2.1807,-2.1807,-2.1807,-2.1807,-2.1807,-2.732,-2.732,-2.732,-2.732,-2.732,-2.732,-2.732,-2.732,-2.732,-2.732,-2.732,-2.732,-2.732,-2.732,-2.732,-2.732,-2.732,-2.732,-2.732,-2.732,-2.732,-2.732,-2.732,-2.732,-2.732,-2.732,-2.732,-2.732,-2.732,-2.732,-2.7272,-2.7076,-2.6249,-2.5609,-2.5371,-2.4337,-2.3654,-2.3266,-2.3188,-2.2969,-2.2574,-2.2397,-2.2353,-2.2299,-2.2299,-2.2255,-2.2211,-2.2309,-2.2397,-2.2441,-2.2485,-2.253,-2.2618,-2.2794,-2.3013,-2.3276,-2.3624,-2.398,-2.4061,-2.3912,-2.3689,-2.3536,-2.3184,-2.2708,-2.2408,-2.2128,-2.1932,-2.1849,-2.1807,-2.1838,-2.2014,-2.2263,-2.2522,-2.2894,-2.3339,-2.366,-2.3971,-2.425,-2.4321,-2.4363,-2.4364,-2.4383,-2.4414,-2.4466,-2.4487,-2.4395,-2.424,-2.4012,-2.3732,-2.335,-2.3091,-2.2646,-2.2408,-2.2159,-2.2076,-2.1901,-2.1849,-2.1807,-2.1807,-2.1807,-2.1807,-2.1807,-2.1807,-2.1807,-2.1807,-2.1807,-2.1807,-2.1807,-2.1807,-2.1807,-2.1807,-2.1807,-2.1807,-2.1807,-2.1807,-2.732,-2.732,-2.732,-2.732,-2.732,-2.732,-2.732,-2.732,-2.732,-2.732,-2.732,-2.732,-2.732,-2.732,-2.732,-2.732,-2.732,-2.732,-2.732,-2.732,-2.732,-2.732,-2.732,-2.732,-2.732,-2.732,-2.732,-2.732,-2.732,-2.7262,-2.7262,-2.6927,-2.61,-2.5417,-2.5058,-2.3964,-2.3364,-2.2916,-2.2662,-2.2353,-2.2087,-2.1865,-2.1776,-2.1624,-2.1633,-2.1624,-2.1624,-2.1579,-2.1687,-2.1776,-2.183,-2.1954,-2.2176,-2.2353,-2.2485,-2.2677,-2.264,-2.2965,-2.3481,-2.3404,-2.3205,-2.293,-2.2559,-2.2311,-2.2121,-2.1952,-2.1807,-2.1807,-2.1807,-2.1807,-2.1807,-2.1983,-2.2232,-2.2553,-2.2925,-2.3194,-2.3525,-2.3919,-2.4126,-2.4157,-2.4167,-2.4167,-2.4209,-2.427,-2.4208,-2.4064,-2.3846,-2.3577,-2.3111,-2.2584,-2.2366,-2.217,-2.2004,-2.188,-2.189,-2.1828,-2.1838,-2.1807,-2.1807,-2.1807,-2.1807,-2.1807,-2.1807,-2.1807,-2.1807,-2.1807,-2.1807,-2.1807,-2.1807,-2.1807,-2.1807,-2.1807,-2.1807,-2.1807,-2.1807,-2.732,-2.732,-2.732,-2.732,-2.732,-2.732,-2.732,-2.732,-2.732,-2.732,-2.732,-2.732,-2.732,-2.732,-2.732,-2.732,-2.732,-2.732,-2.732,-2.732,-2.732,-2.732,-2.732,-2.732,-2.732,-2.732,-2.732,-2.732,-2.7262,-2.7204,-2.702,-2.6696,-2.5792,-2.5093,-2.44,-2.3574,-2.2882,-2.2441,-2.2141,-2.183,-2.1553,-2.1383,-2.1239,-2.1087,-2.0997,-2.0997,-2.0997,-2.1042,-2.1186,-2.1284,-2.1329,-2.1508,-2.1731,-2.1776,-2.1808,-2.1882,-2.1814,-2.1883,-2.2288,-2.2363,-2.2432,-2.2261,-2.2033,-2.1955,-2.1883,-2.1807,-2.1807,-2.1807,-2.1807,-2.1807,-2.1807,-2.1828,-2.1973,-2.2221,-2.248,-2.2718,-2.2987,-2.3422,-2.3691,-2.3701,-2.3701,-2.3701,-2.3795,-2.4002,-2.395,-2.3743,-2.3474,-2.3153,-2.2656,-2.2066,-2.1983,-2.1911,-2.188,-2.1807,-2.1807,-2.1807,-2.1807,-2.1807,-2.1807,-2.1807,-2.1807,-2.1807,-2.1807,-2.1807,-2.1807,-2.1807,-2.1807,-2.1807,-2.1807,-2.1807,-2.1807,-2.1807,-2.1807,-2.1807,-2.1807,-2.732,-2.732,-2.732,-2.732,-2.732,-2.732,-2.732,-2.732,-2.732,-2.732,-2.732,-2.732,-2.732,-2.732,-2.732,-2.732,-2.732,-2.732,-2.732,-2.732,-2.732,-2.732,-2.732,-2.732,-2.732,-2.732,-2.7309,-2.7309,-2.7194,-2.6884,-2.6631,-2.6207,-2.5344,-2.4558,-2.3857,-2.3127,-2.2416,-2.1963,-2.1607,-2.1374,-2.1186,-2.1051,-2.0997,-2.0952,-2.0997,-2.0997,-2.0997,-2.0952,-2.0907,-2.1006,-2.1006,-2.1051,-2.1186,-2.1114,-2.1104,-2.1116,-2.1025,-2.0992,-2.103,-2.1382,-2.161,-2.1739,-2.1752,-2.1701,-2.1752,-2.1769,-2.1807,-2.1807,-2.1807,-2.1807,-2.1807,-2.1818,-2.188,-2.1983,-2.219,-2.2346,-2.2625,-2.2967,-2.3205,-2.3225,-2.3236,-2.3225,-2.3132,-2.3287,-2.3412,-2.3215,-2.2884,-2.2563,-2.2335,-2.189,-2.1869,-2.1838,-2.1828,-2.1807,-2.1807,-2.1807,-2.1807,-2.1807,-2.1807,-2.1807,-2.1807,-2.1807,-2.1807,-2.1807,-2.1807,-2.1807,-2.1807,-2.1807,-2.1807,-2.1807,-2.1807,-2.1807,-2.1807,-2.1807,-2.1807,-2.732,-2.732,-2.732,-2.732,-2.732,-2.732,-2.732,-2.732,-2.732,-2.732,-2.732,-2.732,-2.732,-2.732,-2.732,-2.732,-2.732,-2.732,-2.732,-2.732,-2.732,-2.732,-2.732,-2.732,-2.732,-2.732,-2.7309,-2.7177,-2.7023,-2.6571,-2.5879,-2.5321,-2.4815,-2.4235,-2.3519,-2.2659,-2.1956,-2.1607,-2.1293,-2.1051,-2.0871,-2.0826,-2.0736,-2.06,-2.06,-2.0555,-2.0555,-2.0555,-2.0564,-2.06,-2.06,-2.0673,-2.0702,-2.057,-2.0501,-2.0462,-2.0287,-2.0074,-2.019,-2.06,-2.1113,-2.1242,-2.1383,-2.155,-2.1627,-2.1703,-2.1769,-2.1807,-2.1769,-2.1731,-2.1807,-2.1807,-2.1828,-2.1859,-2.1942,-2.2076,-2.2263,-2.2594,-2.2729,-2.276,-2.276,-2.276,-2.2625,-2.2501,-2.2625,-2.2666,-2.2315,-2.2035,-2.1901,-2.1807,-2.1807,-2.1807,-2.1807,-2.1807,-2.1807,-2.1807,-2.1807,-2.1807,-2.1807,-2.1807,-2.1807,-2.1807,-2.1807,-2.1807,-2.1807,-2.1807,-2.1807,-2.1807,-2.1807,-2.1807,-2.1807,-2.1807,-2.1807,-2.1807,-2.1807,-2.732,-2.732,-2.732,-2.732,-2.732,-2.732,-2.732,-2.732,-2.732,-2.732,-2.732,-2.732,-2.732,-2.732,-2.732,-2.732,-2.732,-2.732,-2.732,-2.732,-2.732,-2.732,-2.732,-2.732,-2.732,-2.732,-2.7262,-2.7177,-2.6928,-2.6148,-2.5501,-2.4885,-2.4277,-2.3693,-2.3012,-2.2175,-2.1472,-2.1195,-2.1015,-2.0781,-2.0609,-2.0564,-2.0518,-2.0337,-2.0337,-2.0337,-2.0329,-2.0382,-2.0337,-2.0337,-2.032,-2.0359,-2.0257,-2.0147,-1.9992,-1.9781,-1.9556,-1.9324,-1.9666,-2.0238,-2.0731,-2.0869,-2.1129,-2.1282,-2.1436,-2.155,-2.155,-2.1578,-2.1617,-2.1665,-2.1693,-2.1693,-2.1731,-2.18,-2.1838,-2.1932,-2.1973,-2.218,-2.2242,-2.2294,-2.2294,-2.2294,-2.2252,-2.2139,-2.2201,-2.2273,-2.2118,-2.1932,-2.1869,-2.1807,-2.1807,-2.1807,-2.1807,-2.1807,-2.1807,-2.1807,-2.1807,-2.1807,-2.1807,-2.1807,-2.1807,-2.1807,-2.1807,-2.1807,-2.1807,-2.1807,-2.1807,-2.1807,-2.1807,-2.1807,-2.1807,-2.1807,-2.1807,-2.1807,-2.1807,-2.732,-2.732,-2.732,-2.732,-2.732,-2.732,-2.732,-2.732,-2.732,-2.732,-2.732,-2.732,-2.732,-2.732,-2.732,-2.732,-2.732,-2.732,-2.732,-2.732,-2.732,-2.732,-2.732,-2.732,-2.732,-2.7309,-2.7204,-2.7061,-2.6771,-2.5943,-2.5195,-2.4355,-2.3566,-2.2905,-2.2365,-2.1759,-2.1203,-2.0789,-2.0744,-2.0564,-2.0428,-2.0382,-2.0337,-2.0292,-2.0292,-2.0292,-2.0292,-2.0292,-2.0292,-2.0292,-2.0215,-2.0131,-1.9891,-1.9728,-1.9411,-1.8885,-1.8906,-1.8819,-1.8861,-1.9762,-2.0254,-2.0508,-2.078,-2.0974,-2.1128,-2.1244,-2.1282,-2.1349,-2.1331,-2.1359,-2.1436,-2.1512,-2.1617,-2.1693,-2.1731,-2.178,-2.1831,-2.189,-2.1994,-2.2045,-2.1932,-2.1849,-2.1849,-2.1849,-2.1859,-2.188,-2.1838,-2.1807,-2.1807,-2.1807,-2.1807,-2.1807,-2.1807,-2.1807,-2.1807,-2.1807,-2.1807,-2.1807,-2.1807,-2.1807,-2.1807,-2.1807,-2.1807,-2.1807,-2.1807,-2.1807,-2.1807,-2.1807,-2.1807,-2.1807,-2.1807,-2.1807,-2.1807,-2.1807,-2.1807,-2.732,-2.732,-2.732,-2.732,-2.732,-2.732,-2.732,-2.732,-2.732,-2.732,-2.732,-2.732,-2.732,-2.732,-2.732,-2.732,-2.732,-2.732,-2.732,-2.732,-2.732,-2.732,-2.732,-2.732,-2.732,-2.7262,-2.7109,-2.6666,-2.6138,-2.5388,-2.4572,-2.3676,-2.2779,-2.2076,-2.1688,-2.1212,-2.0789,-2.069,-2.0564,-2.0382,-2.0292,-2.0292,-2.0292,-2.0292,-2.0292,-2.0292,-2.0292,-2.0292,-2.0275,-2.0215,-2.0112,-1.9819,-1.9546,-1.9349,-1.8896,-1.8528,-1.8549,-1.8389,-1.858,-1.924,-1.9784,-2.0059,-2.0381,-2.0576,-2.077,-2.0954,-2.1041,-2.1118,-2.1089,-2.1167,-2.1282,-2.1282,-2.1397,-2.154,-2.1627,-2.1693,-2.1752,-2.179,-2.1869,-2.188,-2.1807,-2.1807,-2.1807,-2.1807,-2.1807,-2.1807,-2.1807,-2.1807,-2.1807,-2.1807,-2.1807,-2.1807,-2.1807,-2.1807,-2.1807,-2.1807,-2.1807,-2.1807,-2.1807,-2.1807,-2.1807,-2.1807,-2.1807,-2.1807,-2.1807,-2.1807,-2.1807,-2.1807,-2.1807,-2.1807,-2.1807,-2.1807,-2.1807,-2.1807,-2.1807,-2.732,-2.732,-2.732,-2.732,-2.732,-2.732,-2.732,-2.732,-2.732,-2.732,-2.732,-2.732,-2.732,-2.732,-2.732,-2.732,-2.732,-2.732,-2.732,-2.732,-2.732,-2.732,-2.732,-2.732,-2.732,-2.7183,-2.6818,-2.632,-2.5842,-2.4769,-2.3731,-2.2777,-2.1959,-2.1473,-2.1114,-2.088,-2.0654,-2.0564,-2.0382,-2.0337,-2.0292,-2.0292,-2.0292,-2.0292,-2.0292,-2.0292,-2.0292,-2.0275,-2.0223,-2.0086,-1.9836,-1.9554,-1.9247,-1.8939,-1.8519,-1.8357,-1.8293,-1.8241,-1.8514,-1.8803,-1.9231,-1.9439,-1.9872,-2.0186,-2.0333,-2.045,-2.0566,-2.0654,-2.077,-2.0886,-2.0925,-2.0925,-2.1118,-2.1272,-2.1512,-2.1578,-2.1655,-2.1693,-2.1807,-2.1807,-2.1807,-2.1807,-2.1807,-2.1807,-2.1807,-2.1807,-2.1807,-2.1807,-2.1807,-2.1807,-2.1807,-2.1807,-2.1807,-2.1807,-2.1807,-2.1807,-2.1807,-2.1807,-2.1807,-2.1807,-2.1807,-2.1807,-2.1807,-2.1807,-2.1807,-2.1807,-2.1807,-2.1807,-2.1807,-2.1807,-2.1807,-2.1807,-2.1807,-2.1807,-2.1807,-2.732,-2.732,-2.732,-2.732,-2.732,-2.732,-2.732,-2.732,-2.732,-2.732,-2.732,-2.732,-2.732,-2.732,-2.732,-2.732,-2.732,-2.732,-2.732,-2.732,-2.732,-2.732,-2.732,-2.732,-2.7247,-2.7008,-2.6566,-2.5973,-2.5578,-2.4114,-2.2839,-2.1959,-2.1365,-2.1015,-2.0826,-2.0654,-2.0518,-2.0382,-2.0337,-2.0292,-2.0292,-2.0292,-2.0292,-2.0292,-2.0292,-2.0292,-2.0292,-2.0283,-2.0095,-1.9862,-1.9665,-1.9247,-1.8879,-1.8588,-1.834,-1.82,-1.8259,-1.8282,-1.8353,-1.8603,-1.8723,-1.8962,-1.9429,-1.9745,-1.9863,-1.9872,-1.9942,-2.002,-2.0108,-2.0294,-2.045,-2.0605,-2.076,-2.1041,-2.1359,-2.1464,-2.154,-2.1617,-2.1769,-2.1807,-2.1807,-2.1807,-2.1807,-2.1807,-2.1807,-2.1807,-2.1807,-2.1807,-2.1807,-2.1807,-2.1807,-2.1807,-2.1807,-2.1807,-2.1807,-2.1807,-2.1807,-2.1807,-2.1807,-2.1807,-2.1807,-2.1807,-2.1807,-2.1807,-2.1807,-2.1807,-2.1807,-2.1807,-2.1807,-2.1807,-2.1807,-2.1807,-2.1807,-2.1807,-2.1807,-2.732,-2.732,-2.732,-2.732,-2.732,-2.732,-2.732,-2.732,-2.732,-2.732,-2.732,-2.732,-2.732,-2.732,-2.732,-2.732,-2.732,-2.732,-2.732,-2.732,-2.732,-2.732,-2.7299,-2.7247,-2.7112,-2.6676,-2.6119,-2.544,-2.4453,-2.3163,-2.2238,-2.1509,-2.106,-2.0781,-2.0654,-2.0518,-2.0428,-2.0337,-2.0292,-2.0292,-2.0292,-2.0292,-2.0292,-2.0292,-2.0292,-2.0292,-2.0292,-2.0292,-2.0086,-1.9742,-1.9478,-1.9059,-1.8674,-1.8357,-1.8051,-1.8034,-1.808,-1.8121,-1.8161,-1.8322,-1.8491,-1.8531,-1.8882,-1.9082,-1.9201,-1.928,-1.935,-1.9439,-1.9557,-1.9794,-1.9981,-2.0177,-2.0411,-2.076,-2.1079,-2.1272,-2.1387,-2.1578,-2.1693,-2.1807,-2.1807,-2.1807,-2.1807,-2.1807,-2.1807,-2.1807,-2.1807,-2.1807,-2.1807,-2.1807,-2.1807,-2.1807,-2.1807,-2.1807,-2.1807,-2.1807,-2.1807,-2.1807,-2.1807,-2.1807,-2.1807,-2.1807,-2.1807,-2.1807,-2.1807,-2.1807,-2.1807,-2.1807,-2.1807,-2.1807,-2.1807,-2.1807,-2.1807,-2.1807,-2.1807,-2.732,-2.732,-2.732,-2.732,-2.732,-2.732,-2.732,-2.732,-2.732,-2.732,-2.732,-2.732,-2.732,-2.732,-2.732,-2.732,-2.732,-2.732,-2.732,-2.732,-2.7289,-2.7143,-2.7102,-2.6998,-2.6646,-2.6192,-2.5533,-2.4816,-2.375,-2.2589,-2.1607,-2.1248,-2.0835,-2.0654,-2.0518,-2.0382,-2.0337,-2.0292,-2.0292,-2.0292,-2.0292,-2.0292,-2.0292,-2.0292,-2.0292,-2.0292,-2.0292,-2.0292,-2.0035,-1.9615,-1.9282,-1.8905,-1.8502,-1.8102,-1.8008,-1.7991,-1.8031,-1.8031,-1.8031,-1.8112,-1.8233,-1.8282,-1.8371,-1.8491,-1.8643,-1.8803,-1.8922,-1.9051,-1.917,-1.9329,-1.9518,-1.9754,-2.0098,-2.045,-2.076,-2.1079,-2.131,-2.154,-2.1655,-2.1769,-2.1807,-2.1807,-2.1807,-2.1807,-2.1807,-2.1807,-2.1807,-2.1807,-2.1807,-2.1807,-2.1807,-2.1807,-2.1807,-2.1807,-2.1807,-2.1807,-2.1807,-2.1807,-2.1807,-2.1807,-2.1807,-2.1807,-2.1807,-2.1807,-2.1807,-2.1807,-2.1807,-2.1807,-2.1807,-2.1807,-2.1807,-2.1807,-2.1807,-2.1807,-2.1807,-2.732,-2.732,-2.732,-2.732,-2.732,-2.732,-2.732,-2.7299,-2.7247,-2.7278,-2.7299,-2.732,-2.732,-2.732,-2.732,-2.732,-2.732,-2.732,-2.7226,-2.7258,-2.7164,-2.6967,-2.6646,-2.6496,-2.612,-2.5492,-2.4816,-2.4132,-2.3358,-2.2292,-2.132,-2.0997,-2.0736,-2.0564,-2.0382,-2.0337,-2.0292,-2.0292,-2.0292,-2.0292,-2.0292,-2.0292,-2.0292,-2.0292,-2.0292,-2.0292,-2.0292,-2.0172,-2.0002,-1.9453,-1.9085,-1.8802,-1.829,-1.8025,-1.8,-1.7991,-1.7991,-1.7991,-1.7991,-1.8031,-1.8031,-1.8031,-1.7991,-1.8121,-1.8282,-1.8442,-1.8563,-1.8652,-1.8732,-1.8882,-1.9082,-1.939,-1.9745,-2.0098,-2.045,-2.077,-2.1041,-2.131,-2.1617,-2.1731,-2.1807,-2.1807,-2.1807,-2.1807,-2.1807,-2.1807,-2.1807,-2.1807,-2.1807,-2.1807,-2.1807,-2.1807,-2.1807,-2.1807,-2.1807,-2.1807,-2.1807,-2.1807,-2.1807,-2.1807,-2.1807,-2.1807,-2.1807,-2.1807,-2.1807,-2.1807,-2.1807,-2.1807,-2.1807,-2.1807,-2.1807,-2.1807,-2.1807,-2.1807,-2.1807,-2.732,-2.732,-2.732,-2.732,-2.7309,-2.732,-2.7299,-2.7268,-2.6926,-2.6967,-2.7247,-2.7289,-2.7268,-2.7195,-2.7185,-2.7185,-2.7216,-2.7092,-2.7061,-2.6874,-2.6781,-2.6532,-2.6088,-2.5914,-2.5542,-2.5011,-2.4292,-2.338,-2.2455,-2.1616,-2.1051,-2.0781,-2.0564,-2.0382,-2.0292,-2.0292,-2.0292,-2.0292,-2.0292,-2.0292,-2.0292,-2.0292,-2.0292,-2.0292,-2.0292,-2.0292,-2.0292,-2.0257,-1.9838,-1.9376,-1.9213,-1.8759,-1.8059,-1.8017,-1.7991,-1.7991,-1.7991,-1.7991,-1.7991,-1.7991,-1.7991,-1.7991,-1.7991,-1.7991,-1.808,-1.8121,-1.821,-1.829,-1.8362,-1.8523,-1.8723,-1.9033,-1.9381,-1.9775,-2.0137,-2.0411,-2.0731,-2.1156,-2.154,-2.1655,-2.1769,-2.1807,-2.1807,-2.1807,-2.1807,-2.1807,-2.1807,-2.1807,-2.1807,-2.1807,-2.1807,-2.1807,-2.1807,-2.1807,-2.1807,-2.1807,-2.1807,-2.1807,-2.1807,-2.1807,-2.1807,-2.1807,-2.1807,-2.1807,-2.1807,-2.1807,-2.1807,-2.1807,-2.1807,-2.1807,-2.1807,-2.1807,-2.1807,-2.1807,-2.1807,-2.732,-2.7289,-2.7081,-2.7009,-2.6967,-2.6781,-2.6698,-2.6646,-2.6418,-2.6438,-2.6667,-2.6698,-2.6698,-2.6708,-2.6698,-2.675,-2.6739,-2.6677,-2.6501,-2.6345,-2.6216,-2.5968,-2.5681,-2.5372,-2.4897,-2.4368,-2.356,-2.2631,-2.1714,-2.1275,-2.0916,-2.069,-2.0428,-2.0292,-2.0292,-2.0292,-2.0292,-2.0292,-2.0292,-2.0292,-2.0292,-2.0292,-2.0292,-2.0292,-2.0292,-2.0292,-2.0292,-2.0249,-1.9838,-1.923,-1.8862,-1.8545,-1.8059,-1.8,-1.7991,-1.7991,-1.7991,-1.7991,-1.7991,-1.7991,-1.7991,-1.7991,-1.7991,-1.7991,-1.7991,-1.808,-1.808,-1.8121,-1.8161,-1.8282,-1.8482,-1.8754,-1.9063,-1.942,-1.9696,-1.9981,-2.0566,-2.1156,-2.1425,-2.1589,-2.1693,-2.1807,-2.1807,-2.1807,-2.1807,-2.1807,-2.1807,-2.1807,-2.1807,-2.1807,-2.1807,-2.1807,-2.1807,-2.1807,-2.1807,-2.1807,-2.1807,-2.1807,-2.1807,-2.1807,-2.1807,-2.1807,-2.1807,-2.1807,-2.1807,-2.1807,-2.1807,-2.1807,-2.1807,-2.1807,-2.1807,-2.1807,-2.1807,-2.1807,-2.1807,-2.7102,-2.7071,-2.6698,-2.6532,-2.647,-2.6117,-2.5972,-2.5951,-2.5834,-2.5792,-2.5813,-2.5761,-2.5751,-2.591,-2.593,-2.593,-2.6003,-2.6169,-2.5978,-2.5823,-2.5802,-2.5468,-2.5108,-2.4812,-2.4226,-2.355,-2.2792,-2.2188,-2.1553,-2.1141,-2.0826,-2.0645,-2.0473,-2.0292,-2.0292,-2.0292,-2.0292,-2.0292,-2.0292,-2.0292,-2.0292,-2.0292,-2.0292,-2.0292,-2.0292,-2.0292,-2.0292,-2.018,-1.9908,-1.9222,-1.8562,-1.8188,-1.8051,-1.7991,-1.7991,-1.7991,-1.7991,-1.7991,-1.7991,-1.7991,-1.7991,-1.7991,-1.7991,-1.7991,-1.7991,-1.7951,-1.7951,-1.7951,-1.8,-1.808,-1.8273,-1.8474,-1.8794,-1.9063,-1.9301,-1.9696,-2.0411,-2.1041,-2.1233,-2.1387,-2.154,-2.1693,-2.1693,-2.1693,-2.1731,-2.1769,-2.1769,-2.1769,-2.1807,-2.1807,-2.1807,-2.1807,-2.1807,-2.1807,-2.1807,-2.1807,-2.1807,-2.1807,-2.1807,-2.1807,-2.1807,-2.1807,-2.1807,-2.1807,-2.1807,-2.1807,-2.1807,-2.1807,-2.1807,-2.1807,-2.1807,-2.1807,-2.1807,-2.1807,-2.1807,-2.6144,-2.6134,-2.6041,-2.6055,-2.5989,-2.5896,-2.593,-2.5813,-2.5482,-2.5357,-2.5275,-2.4983,-2.513,-2.592,-2.593,-2.5823,-2.5658,-2.573,-2.5575,-2.5409,-2.5313,-2.4926,-2.4502,-2.419,-2.3505,-2.2823,-2.2176,-2.1633,-2.1275,-2.0916,-2.0645,-2.0382,-2.0382,-2.0292,-2.0292,-2.0292,-2.0292,-2.0292,-2.0292,-2.0292,-2.0292,-2.0292,-2.0292,-2.0292,-2.0292,-2.0292,-2.0292,-2.0292,-1.9838,-1.9196,-1.8519,-1.8136,-1.7991,-1.7991,-1.7991,-1.7991,-1.7991,-1.7991,-1.7991,-1.7991,-1.7991,-1.7991,-1.7991,-1.7951,-1.791,-1.7781,-1.7781,-1.7781,-1.7829,-1.791,-1.8072,-1.8282,-1.8554,-1.8794,-1.9024,-1.9657,-2.0323,-2.0644,-2.0886,-2.1079,-2.1272,-2.1359,-2.1397,-2.1436,-2.154,-2.1617,-2.1693,-2.1731,-2.1769,-2.1807,-2.1807,-2.1807,-2.1807,-2.1807,-2.1807,-2.1807,-2.1807,-2.1807,-2.1807,-2.1807,-2.1807,-2.1807,-2.1807,-2.1807,-2.1807,-2.1807,-2.1807,-2.1807,-2.1807,-2.1807,-2.1807,-2.1807,-2.1807,-2.1807,-2.1807]}]]